<?xml version="1.0" encoding="UTF-8" standalone="no" ?>
<gpx xmlns="http://www.topografix.com/GPX/1/1" xmlns:xsi="http://www.w3.org/2001/XMLSchema-instance" xsi:schemaLocation="http://www.topografix.com/GPX/1/1 http://www.topografix.com/GPX/1/1/gpx.xsd" version="1.1" creator="VisuGPX - https://www.visugpx.com">
  <metadata>
    <name>Stevenson Dimanche 18 Septembre</name>
    <desc><![CDATA[Cassagnas - Le Pont de Burgen
beau]]></desc>
  </metadata>
  <trk>
    <name><![CDATA[ACTIVE LOG083225]]></name>
    <trkseg>
      <trkpt lat="44.27165" lon="3.73058">
        <ele>650.012</ele>
        <time>2011-09-18T06:32:24Z</time>
      </trkpt>
      <trkpt lat="44.27164" lon="3.73058">
        <ele>650.012</ele>
        <time>2011-09-18T06:32:25Z</time>
      </trkpt>
      <trkpt lat="44.2716" lon="3.73064">
        <ele>649.515</ele>
        <time>2011-09-18T06:32:35Z</time>
      </trkpt>
      <trkpt lat="44.27152" lon="3.73072">
        <ele>648.944</ele>
        <time>2011-09-18T06:32:45Z</time>
      </trkpt>
      <trkpt lat="44.27144" lon="3.73071">
        <ele>648.606</ele>
        <time>2011-09-18T06:32:55Z</time>
      </trkpt>
      <trkpt lat="44.27135" lon="3.73071">
        <ele>649.015</ele>
        <time>2011-09-18T06:33:05Z</time>
      </trkpt>
      <trkpt lat="44.27128" lon="3.73063">
        <ele>648.286</ele>
        <time>2011-09-18T06:33:15Z</time>
      </trkpt>
      <trkpt lat="44.27122" lon="3.73055">
        <ele>648.102</ele>
        <time>2011-09-18T06:33:25Z</time>
      </trkpt>
      <trkpt lat="44.27114" lon="3.73047">
        <ele>647.46</ele>
        <time>2011-09-18T06:33:35Z</time>
      </trkpt>
      <trkpt lat="44.27105" lon="3.73034">
        <ele>647.629</ele>
        <time>2011-09-18T06:33:45Z</time>
      </trkpt>
      <trkpt lat="44.271" lon="3.73029">
        <ele>648.081</ele>
        <time>2011-09-18T06:33:55Z</time>
      </trkpt>
      <trkpt lat="44.27085" lon="3.73013">
        <ele>647.706</ele>
        <time>2011-09-18T06:34:05Z</time>
      </trkpt>
      <trkpt lat="44.27073" lon="3.73004">
        <ele>647.667</ele>
        <time>2011-09-18T06:34:15Z</time>
      </trkpt>
      <trkpt lat="44.27065" lon="3.73003">
        <ele>648.419</ele>
        <time>2011-09-18T06:34:25Z</time>
      </trkpt>
      <trkpt lat="44.27059" lon="3.73009">
        <ele>648.633</ele>
        <time>2011-09-18T06:34:35Z</time>
      </trkpt>
      <trkpt lat="44.27053" lon="3.73021">
        <ele>648.81</ele>
        <time>2011-09-18T06:34:45Z</time>
      </trkpt>
      <trkpt lat="44.27044" lon="3.73033">
        <ele>649.615</ele>
        <time>2011-09-18T06:34:55Z</time>
      </trkpt>
      <trkpt lat="44.27038" lon="3.73047">
        <ele>649.954</ele>
        <time>2011-09-18T06:35:05Z</time>
      </trkpt>
      <trkpt lat="44.27033" lon="3.7306">
        <ele>651.035</ele>
        <time>2011-09-18T06:35:15Z</time>
      </trkpt>
      <trkpt lat="44.2702" lon="3.73065">
        <ele>651.752</ele>
        <time>2011-09-18T06:35:25Z</time>
      </trkpt>
      <trkpt lat="44.27014" lon="3.73072">
        <ele>652.506</ele>
        <time>2011-09-18T06:35:35Z</time>
      </trkpt>
      <trkpt lat="44.27004" lon="3.73074">
        <ele>653.215</ele>
        <time>2011-09-18T06:35:45Z</time>
      </trkpt>
      <trkpt lat="44.26994" lon="3.73082">
        <ele>654.133</ele>
        <time>2011-09-18T06:35:55Z</time>
      </trkpt>
      <trkpt lat="44.26982" lon="3.73083">
        <ele>655.143</ele>
        <time>2011-09-18T06:36:05Z</time>
      </trkpt>
      <trkpt lat="44.2697" lon="3.73087">
        <ele>655.629</ele>
        <time>2011-09-18T06:36:15Z</time>
      </trkpt>
      <trkpt lat="44.2696" lon="3.7308">
        <ele>656.434</ele>
        <time>2011-09-18T06:36:25Z</time>
      </trkpt>
      <trkpt lat="44.26949" lon="3.73077">
        <ele>657.073</ele>
        <time>2011-09-18T06:36:35Z</time>
      </trkpt>
      <trkpt lat="44.26939" lon="3.73073">
        <ele>657.731</ele>
        <time>2011-09-18T06:36:45Z</time>
      </trkpt>
      <trkpt lat="44.26928" lon="3.73069">
        <ele>657.598</ele>
        <time>2011-09-18T06:36:55Z</time>
      </trkpt>
      <trkpt lat="44.26918" lon="3.73064">
        <ele>656.757</ele>
        <time>2011-09-18T06:37:05Z</time>
      </trkpt>
      <trkpt lat="44.26904" lon="3.73063">
        <ele>655.859</ele>
        <time>2011-09-18T06:37:15Z</time>
      </trkpt>
      <trkpt lat="44.26897" lon="3.73071">
        <ele>655.426</ele>
        <time>2011-09-18T06:37:25Z</time>
      </trkpt>
      <trkpt lat="44.26893" lon="3.73081">
        <ele>656.037</ele>
        <time>2011-09-18T06:37:35Z</time>
      </trkpt>
      <trkpt lat="44.26885" lon="3.73094">
        <ele>656.212</ele>
        <time>2011-09-18T06:37:45Z</time>
      </trkpt>
      <trkpt lat="44.26888" lon="3.731">
        <ele>657.742</ele>
        <time>2011-09-18T06:37:55Z</time>
      </trkpt>
      <trkpt lat="44.26895" lon="3.73104">
        <ele>658.584</ele>
        <time>2011-09-18T06:38:05Z</time>
      </trkpt>
      <trkpt lat="44.26905" lon="3.73109">
        <ele>658.675</ele>
        <time>2011-09-18T06:38:15Z</time>
      </trkpt>
      <trkpt lat="44.26912" lon="3.73111">
        <ele>659.513</ele>
        <time>2011-09-18T06:38:25Z</time>
      </trkpt>
      <trkpt lat="44.26922" lon="3.73122">
        <ele>659.921</ele>
        <time>2011-09-18T06:38:35Z</time>
      </trkpt>
      <trkpt lat="44.26935" lon="3.73133">
        <ele>660.678</ele>
        <time>2011-09-18T06:38:45Z</time>
      </trkpt>
      <trkpt lat="44.26946" lon="3.73142">
        <ele>661.067</ele>
        <time>2011-09-18T06:38:55Z</time>
      </trkpt>
      <trkpt lat="44.26956" lon="3.73151">
        <ele>661.647</ele>
        <time>2011-09-18T06:39:05Z</time>
      </trkpt>
      <trkpt lat="44.26967" lon="3.73159">
        <ele>662.298</ele>
        <time>2011-09-18T06:39:15Z</time>
      </trkpt>
      <trkpt lat="44.26976" lon="3.73166">
        <ele>662.557</ele>
        <time>2011-09-18T06:39:25Z</time>
      </trkpt>
      <trkpt lat="44.26985" lon="3.73183">
        <ele>663.937</ele>
        <time>2011-09-18T06:39:35Z</time>
      </trkpt>
      <trkpt lat="44.26992" lon="3.73199">
        <ele>664.777</ele>
        <time>2011-09-18T06:39:45Z</time>
      </trkpt>
      <trkpt lat="44.26995" lon="3.73214">
        <ele>665.349</ele>
        <time>2011-09-18T06:39:55Z</time>
      </trkpt>
      <trkpt lat="44.26995" lon="3.73229">
        <ele>666.247</ele>
        <time>2011-09-18T06:40:05Z</time>
      </trkpt>
      <trkpt lat="44.27001" lon="3.73245">
        <ele>667.185</ele>
        <time>2011-09-18T06:40:15Z</time>
      </trkpt>
      <trkpt lat="44.27002" lon="3.73264">
        <ele>667.78</ele>
        <time>2011-09-18T06:40:25Z</time>
      </trkpt>
      <trkpt lat="44.27005" lon="3.73279">
        <ele>668.255</ele>
        <time>2011-09-18T06:40:35Z</time>
      </trkpt>
      <trkpt lat="44.27006" lon="3.73294">
        <ele>668.707</ele>
        <time>2011-09-18T06:40:45Z</time>
      </trkpt>
      <trkpt lat="44.27007" lon="3.73312">
        <ele>669.124</ele>
        <time>2011-09-18T06:40:55Z</time>
      </trkpt>
      <trkpt lat="44.27001" lon="3.73326">
        <ele>669.483</ele>
        <time>2011-09-18T06:41:05Z</time>
      </trkpt>
      <trkpt lat="44.26993" lon="3.73338">
        <ele>669.765</ele>
        <time>2011-09-18T06:41:15Z</time>
      </trkpt>
      <trkpt lat="44.26986" lon="3.7335">
        <ele>669.908</ele>
        <time>2011-09-18T06:41:25Z</time>
      </trkpt>
      <trkpt lat="44.26979" lon="3.73365">
        <ele>670.381</ele>
        <time>2011-09-18T06:41:35Z</time>
      </trkpt>
      <trkpt lat="44.26967" lon="3.73375">
        <ele>671.133</ele>
        <time>2011-09-18T06:41:45Z</time>
      </trkpt>
      <trkpt lat="44.26959" lon="3.73387">
        <ele>671.165</ele>
        <time>2011-09-18T06:41:55Z</time>
      </trkpt>
      <trkpt lat="44.26953" lon="3.73397">
        <ele>671.826</ele>
        <time>2011-09-18T06:42:05Z</time>
      </trkpt>
      <trkpt lat="44.26945" lon="3.73406">
        <ele>672.537</ele>
        <time>2011-09-18T06:42:15Z</time>
      </trkpt>
      <trkpt lat="44.26937" lon="3.73414">
        <ele>673.98</ele>
        <time>2011-09-18T06:42:25Z</time>
      </trkpt>
      <trkpt lat="44.26932" lon="3.73424">
        <ele>675.016</ele>
        <time>2011-09-18T06:42:35Z</time>
      </trkpt>
      <trkpt lat="44.26922" lon="3.73432">
        <ele>675.37</ele>
        <time>2011-09-18T06:42:45Z</time>
      </trkpt>
      <trkpt lat="44.26911" lon="3.73446">
        <ele>676.324</ele>
        <time>2011-09-18T06:42:55Z</time>
      </trkpt>
      <trkpt lat="44.26902" lon="3.7346">
        <ele>677.426</ele>
        <time>2011-09-18T06:43:05Z</time>
      </trkpt>
      <trkpt lat="44.26893" lon="3.73468">
        <ele>678.969</ele>
        <time>2011-09-18T06:43:15Z</time>
      </trkpt>
      <trkpt lat="44.26886" lon="3.73478">
        <ele>679.516</ele>
        <time>2011-09-18T06:43:25Z</time>
      </trkpt>
      <trkpt lat="44.26876" lon="3.73487">
        <ele>680.303</ele>
        <time>2011-09-18T06:43:35Z</time>
      </trkpt>
      <trkpt lat="44.26867" lon="3.73497">
        <ele>681.73</ele>
        <time>2011-09-18T06:43:45Z</time>
      </trkpt>
      <trkpt lat="44.26862" lon="3.73508">
        <ele>682.404</ele>
        <time>2011-09-18T06:43:55Z</time>
      </trkpt>
      <trkpt lat="44.26863" lon="3.73516">
        <ele>683.965</ele>
        <time>2011-09-18T06:44:05Z</time>
      </trkpt>
      <trkpt lat="44.26856" lon="3.73519">
        <ele>684.745</ele>
        <time>2011-09-18T06:44:15Z</time>
      </trkpt>
      <trkpt lat="44.26849" lon="3.73527">
        <ele>686.314</ele>
        <time>2011-09-18T06:44:25Z</time>
      </trkpt>
      <trkpt lat="44.26842" lon="3.73536">
        <ele>686.801</ele>
        <time>2011-09-18T06:44:35Z</time>
      </trkpt>
      <trkpt lat="44.26834" lon="3.73548">
        <ele>687.522</ele>
        <time>2011-09-18T06:44:45Z</time>
      </trkpt>
      <trkpt lat="44.26831" lon="3.73563">
        <ele>688.748</ele>
        <time>2011-09-18T06:44:55Z</time>
      </trkpt>
      <trkpt lat="44.26826" lon="3.73577">
        <ele>689.276</ele>
        <time>2011-09-18T06:45:05Z</time>
      </trkpt>
      <trkpt lat="44.26825" lon="3.73593">
        <ele>690.386</ele>
        <time>2011-09-18T06:45:15Z</time>
      </trkpt>
      <trkpt lat="44.26822" lon="3.73608">
        <ele>690.901</ele>
        <time>2011-09-18T06:45:25Z</time>
      </trkpt>
      <trkpt lat="44.26813" lon="3.73613">
        <ele>692.614</ele>
        <time>2011-09-18T06:45:35Z</time>
      </trkpt>
      <trkpt lat="44.26805" lon="3.73608">
        <ele>693.482</ele>
        <time>2011-09-18T06:45:45Z</time>
      </trkpt>
      <trkpt lat="44.26793" lon="3.73602">
        <ele>694.715</ele>
        <time>2011-09-18T06:45:55Z</time>
      </trkpt>
      <trkpt lat="44.26787" lon="3.73593">
        <ele>696.388</ele>
        <time>2011-09-18T06:46:05Z</time>
      </trkpt>
      <trkpt lat="44.26777" lon="3.73586">
        <ele>697.93</ele>
        <time>2011-09-18T06:46:15Z</time>
      </trkpt>
      <trkpt lat="44.26768" lon="3.73579">
        <ele>699.503</ele>
        <time>2011-09-18T06:46:25Z</time>
      </trkpt>
      <trkpt lat="44.26755" lon="3.73573">
        <ele>700.397</ele>
        <time>2011-09-18T06:46:35Z</time>
      </trkpt>
      <trkpt lat="44.26745" lon="3.7357">
        <ele>701.484</ele>
        <time>2011-09-18T06:46:45Z</time>
      </trkpt>
      <trkpt lat="44.26737" lon="3.73566">
        <ele>703.828</ele>
        <time>2011-09-18T06:46:55Z</time>
      </trkpt>
      <trkpt lat="44.26729" lon="3.73559">
        <ele>704.048</ele>
        <time>2011-09-18T06:47:05Z</time>
      </trkpt>
      <trkpt lat="44.26717" lon="3.73556">
        <ele>705.487</ele>
        <time>2011-09-18T06:47:15Z</time>
      </trkpt>
      <trkpt lat="44.26702" lon="3.73556">
        <ele>707.32</ele>
        <time>2011-09-18T06:47:25Z</time>
      </trkpt>
      <trkpt lat="44.26691" lon="3.73557">
        <ele>708.836</ele>
        <time>2011-09-18T06:47:35Z</time>
      </trkpt>
      <trkpt lat="44.26679" lon="3.73556">
        <ele>709.16</ele>
        <time>2011-09-18T06:47:45Z</time>
      </trkpt>
      <trkpt lat="44.26668" lon="3.73555">
        <ele>710.607</ele>
        <time>2011-09-18T06:47:55Z</time>
      </trkpt>
      <trkpt lat="44.26659" lon="3.7355">
        <ele>711.112</ele>
        <time>2011-09-18T06:48:05Z</time>
      </trkpt>
      <trkpt lat="44.26649" lon="3.73547">
        <ele>712.018</ele>
        <time>2011-09-18T06:48:15Z</time>
      </trkpt>
      <trkpt lat="44.26642" lon="3.73538">
        <ele>713.044</ele>
        <time>2011-09-18T06:48:25Z</time>
      </trkpt>
      <trkpt lat="44.26627" lon="3.73538">
        <ele>713.806</ele>
        <time>2011-09-18T06:48:35Z</time>
      </trkpt>
      <trkpt lat="44.26619" lon="3.73543">
        <ele>715.225</ele>
        <time>2011-09-18T06:48:45Z</time>
      </trkpt>
      <trkpt lat="44.26611" lon="3.73544">
        <ele>715.88</ele>
        <time>2011-09-18T06:48:55Z</time>
      </trkpt>
      <trkpt lat="44.266" lon="3.73549">
        <ele>716.24</ele>
        <time>2011-09-18T06:49:05Z</time>
      </trkpt>
      <trkpt lat="44.26584" lon="3.73559">
        <ele>716.781</ele>
        <time>2011-09-18T06:49:15Z</time>
      </trkpt>
      <trkpt lat="44.26571" lon="3.73569">
        <ele>718.747</ele>
        <time>2011-09-18T06:49:25Z</time>
      </trkpt>
      <trkpt lat="44.26561" lon="3.73573">
        <ele>719.561</ele>
        <time>2011-09-18T06:49:35Z</time>
      </trkpt>
      <trkpt lat="44.26549" lon="3.73582">
        <ele>719.553</ele>
        <time>2011-09-18T06:49:45Z</time>
      </trkpt>
      <trkpt lat="44.26539" lon="3.73586">
        <ele>719.712</ele>
        <time>2011-09-18T06:49:55Z</time>
      </trkpt>
      <trkpt lat="44.26532" lon="3.73588">
        <ele>720.771</ele>
        <time>2011-09-18T06:50:05Z</time>
      </trkpt>
      <trkpt lat="44.26525" lon="3.73579">
        <ele>721.913</ele>
        <time>2011-09-18T06:50:15Z</time>
      </trkpt>
      <trkpt lat="44.2652" lon="3.73564">
        <ele>722.93</ele>
        <time>2011-09-18T06:50:25Z</time>
      </trkpt>
      <trkpt lat="44.26526" lon="3.73556">
        <ele>725.652</ele>
        <time>2011-09-18T06:50:35Z</time>
      </trkpt>
      <trkpt lat="44.26535" lon="3.73549">
        <ele>726.59</ele>
        <time>2011-09-18T06:50:45Z</time>
      </trkpt>
      <trkpt lat="44.26544" lon="3.73544">
        <ele>727.652</ele>
        <time>2011-09-18T06:50:55Z</time>
      </trkpt>
      <trkpt lat="44.26552" lon="3.73533">
        <ele>728.075</ele>
        <time>2011-09-18T06:51:05Z</time>
      </trkpt>
      <trkpt lat="44.26558" lon="3.73522">
        <ele>728.986</ele>
        <time>2011-09-18T06:51:15Z</time>
      </trkpt>
      <trkpt lat="44.2657" lon="3.73509">
        <ele>730.265</ele>
        <time>2011-09-18T06:51:25Z</time>
      </trkpt>
      <trkpt lat="44.26576" lon="3.73499">
        <ele>731.436</ele>
        <time>2011-09-18T06:51:35Z</time>
      </trkpt>
      <trkpt lat="44.26582" lon="3.73493">
        <ele>732.885</ele>
        <time>2011-09-18T06:51:45Z</time>
      </trkpt>
      <trkpt lat="44.2659" lon="3.73479">
        <ele>733.915</ele>
        <time>2011-09-18T06:51:55Z</time>
      </trkpt>
      <trkpt lat="44.26599" lon="3.7347">
        <ele>734.36</ele>
        <time>2011-09-18T06:52:05Z</time>
      </trkpt>
      <trkpt lat="44.26605" lon="3.73458">
        <ele>736.093</ele>
        <time>2011-09-18T06:52:15Z</time>
      </trkpt>
      <trkpt lat="44.26618" lon="3.73461">
        <ele>738.159</ele>
        <time>2011-09-18T06:52:25Z</time>
      </trkpt>
      <trkpt lat="44.26631" lon="3.73468">
        <ele>739.549</ele>
        <time>2011-09-18T06:52:35Z</time>
      </trkpt>
      <trkpt lat="44.26642" lon="3.73469">
        <ele>740.324</ele>
        <time>2011-09-18T06:52:45Z</time>
      </trkpt>
      <trkpt lat="44.26655" lon="3.73464">
        <ele>741.271</ele>
        <time>2011-09-18T06:52:55Z</time>
      </trkpt>
      <trkpt lat="44.26673" lon="3.73461">
        <ele>743.139</ele>
        <time>2011-09-18T06:53:05Z</time>
      </trkpt>
      <trkpt lat="44.2668" lon="3.73461">
        <ele>743.617</ele>
        <time>2011-09-18T06:53:15Z</time>
      </trkpt>
      <trkpt lat="44.26688" lon="3.73465">
        <ele>745.18</ele>
        <time>2011-09-18T06:53:25Z</time>
      </trkpt>
      <trkpt lat="44.26698" lon="3.73467">
        <ele>746.158</ele>
        <time>2011-09-18T06:53:35Z</time>
      </trkpt>
      <trkpt lat="44.26709" lon="3.73467">
        <ele>747.126</ele>
        <time>2011-09-18T06:53:45Z</time>
      </trkpt>
      <trkpt lat="44.26722" lon="3.73467">
        <ele>748.839</ele>
        <time>2011-09-18T06:53:55Z</time>
      </trkpt>
      <trkpt lat="44.2673" lon="3.73468">
        <ele>749.653</ele>
        <time>2011-09-18T06:54:05Z</time>
      </trkpt>
      <trkpt lat="44.2674" lon="3.73465">
        <ele>749.982</ele>
        <time>2011-09-18T06:54:15Z</time>
      </trkpt>
      <trkpt lat="44.26753" lon="3.73456">
        <ele>751.709</ele>
        <time>2011-09-18T06:54:25Z</time>
      </trkpt>
      <trkpt lat="44.26764" lon="3.73447">
        <ele>753.124</ele>
        <time>2011-09-18T06:54:35Z</time>
      </trkpt>
      <trkpt lat="44.2677" lon="3.73433">
        <ele>754.022</ele>
        <time>2011-09-18T06:54:45Z</time>
      </trkpt>
      <trkpt lat="44.26774" lon="3.73421">
        <ele>755.357</ele>
        <time>2011-09-18T06:54:55Z</time>
      </trkpt>
      <trkpt lat="44.26779" lon="3.73411">
        <ele>756.891</ele>
        <time>2011-09-18T06:55:05Z</time>
      </trkpt>
      <trkpt lat="44.26781" lon="3.734">
        <ele>758.427</ele>
        <time>2011-09-18T06:55:15Z</time>
      </trkpt>
      <trkpt lat="44.26788" lon="3.73382">
        <ele>759.386</ele>
        <time>2011-09-18T06:55:25Z</time>
      </trkpt>
      <trkpt lat="44.26792" lon="3.73364">
        <ele>760.639</ele>
        <time>2011-09-18T06:55:35Z</time>
      </trkpt>
      <trkpt lat="44.268" lon="3.73352">
        <ele>761.86</ele>
        <time>2011-09-18T06:55:45Z</time>
      </trkpt>
      <trkpt lat="44.26805" lon="3.73337">
        <ele>763.282</ele>
        <time>2011-09-18T06:55:55Z</time>
      </trkpt>
      <trkpt lat="44.26807" lon="3.73328">
        <ele>764.235</ele>
        <time>2011-09-18T06:56:05Z</time>
      </trkpt>
      <trkpt lat="44.26816" lon="3.73318">
        <ele>765.057</ele>
        <time>2011-09-18T06:56:15Z</time>
      </trkpt>
      <trkpt lat="44.2682" lon="3.73305">
        <ele>767.182</ele>
        <time>2011-09-18T06:56:25Z</time>
      </trkpt>
      <trkpt lat="44.26826" lon="3.73293">
        <ele>768.861</ele>
        <time>2011-09-18T06:56:35Z</time>
      </trkpt>
      <trkpt lat="44.26826" lon="3.73278">
        <ele>769.508</ele>
        <time>2011-09-18T06:56:45Z</time>
      </trkpt>
      <trkpt lat="44.26817" lon="3.73268">
        <ele>770.057</ele>
        <time>2011-09-18T06:56:55Z</time>
      </trkpt>
      <trkpt lat="44.26808" lon="3.73258">
        <ele>770.675</ele>
        <time>2011-09-18T06:57:05Z</time>
      </trkpt>
      <trkpt lat="44.26794" lon="3.73253">
        <ele>771.133</ele>
        <time>2011-09-18T06:57:15Z</time>
      </trkpt>
      <trkpt lat="44.26787" lon="3.73253">
        <ele>772.904</ele>
        <time>2011-09-18T06:57:25Z</time>
      </trkpt>
      <trkpt lat="44.26778" lon="3.73256">
        <ele>772.79</ele>
        <time>2011-09-18T06:57:35Z</time>
      </trkpt>
      <trkpt lat="44.26767" lon="3.73258">
        <ele>775.062</ele>
        <time>2011-09-18T06:57:45Z</time>
      </trkpt>
      <trkpt lat="44.26757" lon="3.73259">
        <ele>776.587</ele>
        <time>2011-09-18T06:57:55Z</time>
      </trkpt>
      <trkpt lat="44.26748" lon="3.73259">
        <ele>777.27</ele>
        <time>2011-09-18T06:58:05Z</time>
      </trkpt>
      <trkpt lat="44.26738" lon="3.73257">
        <ele>779.775</ele>
        <time>2011-09-18T06:58:15Z</time>
      </trkpt>
      <trkpt lat="44.26724" lon="3.73257">
        <ele>781.93</ele>
        <time>2011-09-18T06:58:25Z</time>
      </trkpt>
      <trkpt lat="44.26715" lon="3.73259">
        <ele>783.027</ele>
        <time>2011-09-18T06:58:35Z</time>
      </trkpt>
      <trkpt lat="44.26704" lon="3.73262">
        <ele>784.297</ele>
        <time>2011-09-18T06:58:45Z</time>
      </trkpt>
      <trkpt lat="44.26692" lon="3.73264">
        <ele>786.572</ele>
        <time>2011-09-18T06:58:55Z</time>
      </trkpt>
      <trkpt lat="44.26681" lon="3.73268">
        <ele>787.573</ele>
        <time>2011-09-18T06:59:05Z</time>
      </trkpt>
      <trkpt lat="44.26669" lon="3.73271">
        <ele>788.916</ele>
        <time>2011-09-18T06:59:15Z</time>
      </trkpt>
      <trkpt lat="44.26655" lon="3.73272">
        <ele>789.132</ele>
        <time>2011-09-18T06:59:25Z</time>
      </trkpt>
      <trkpt lat="44.26639" lon="3.7327">
        <ele>789.929</ele>
        <time>2011-09-18T06:59:35Z</time>
      </trkpt>
      <trkpt lat="44.26629" lon="3.73267">
        <ele>791.948</ele>
        <time>2011-09-18T06:59:45Z</time>
      </trkpt>
      <trkpt lat="44.26616" lon="3.73266">
        <ele>793.589</ele>
        <time>2011-09-18T06:59:55Z</time>
      </trkpt>
      <trkpt lat="44.26604" lon="3.73268">
        <ele>792.846</ele>
        <time>2011-09-18T07:00:05Z</time>
      </trkpt>
      <trkpt lat="44.26594" lon="3.73266">
        <ele>794.734</ele>
        <time>2011-09-18T07:00:15Z</time>
      </trkpt>
      <trkpt lat="44.26584" lon="3.73265">
        <ele>795.067</ele>
        <time>2011-09-18T07:00:25Z</time>
      </trkpt>
      <trkpt lat="44.26569" lon="3.73265">
        <ele>795.766</ele>
        <time>2011-09-18T07:00:35Z</time>
      </trkpt>
      <trkpt lat="44.26555" lon="3.73265">
        <ele>796.432</ele>
        <time>2011-09-18T07:00:45Z</time>
      </trkpt>
      <trkpt lat="44.2654" lon="3.73265">
        <ele>797.743</ele>
        <time>2011-09-18T07:00:55Z</time>
      </trkpt>
      <trkpt lat="44.26526" lon="3.73262">
        <ele>798.078</ele>
        <time>2011-09-18T07:01:05Z</time>
      </trkpt>
      <trkpt lat="44.26513" lon="3.73261">
        <ele>798.821</ele>
        <time>2011-09-18T07:01:15Z</time>
      </trkpt>
      <trkpt lat="44.265" lon="3.7326">
        <ele>799.369</ele>
        <time>2011-09-18T07:01:25Z</time>
      </trkpt>
      <trkpt lat="44.26492" lon="3.7326">
        <ele>801.824</ele>
        <time>2011-09-18T07:01:35Z</time>
      </trkpt>
      <trkpt lat="44.26479" lon="3.7326">
        <ele>802.609</ele>
        <time>2011-09-18T07:01:45Z</time>
      </trkpt>
      <trkpt lat="44.26468" lon="3.73255">
        <ele>804.03</ele>
        <time>2011-09-18T07:01:55Z</time>
      </trkpt>
      <trkpt lat="44.26458" lon="3.73254">
        <ele>805.805</ele>
        <time>2011-09-18T07:02:05Z</time>
      </trkpt>
      <trkpt lat="44.26447" lon="3.73243">
        <ele>806.42</ele>
        <time>2011-09-18T07:02:15Z</time>
      </trkpt>
      <trkpt lat="44.26438" lon="3.73236">
        <ele>807.822</ele>
        <time>2011-09-18T07:02:25Z</time>
      </trkpt>
      <trkpt lat="44.26431" lon="3.73221">
        <ele>809.905</ele>
        <time>2011-09-18T07:02:35Z</time>
      </trkpt>
      <trkpt lat="44.26428" lon="3.73205">
        <ele>810.754</ele>
        <time>2011-09-18T07:02:45Z</time>
      </trkpt>
      <trkpt lat="44.26429" lon="3.73188">
        <ele>811.802</ele>
        <time>2011-09-18T07:02:55Z</time>
      </trkpt>
      <trkpt lat="44.26426" lon="3.73172">
        <ele>812.631</ele>
        <time>2011-09-18T07:03:05Z</time>
      </trkpt>
      <trkpt lat="44.26422" lon="3.73156">
        <ele>813.506</ele>
        <time>2011-09-18T07:03:15Z</time>
      </trkpt>
      <trkpt lat="44.26417" lon="3.73142">
        <ele>814.794</ele>
        <time>2011-09-18T07:03:25Z</time>
      </trkpt>
      <trkpt lat="44.26412" lon="3.73126">
        <ele>815.955</ele>
        <time>2011-09-18T07:03:35Z</time>
      </trkpt>
      <trkpt lat="44.26402" lon="3.73111">
        <ele>816.896</ele>
        <time>2011-09-18T07:03:45Z</time>
      </trkpt>
      <trkpt lat="44.26394" lon="3.73102">
        <ele>817.002</ele>
        <time>2011-09-18T07:03:55Z</time>
      </trkpt>
      <trkpt lat="44.26383" lon="3.73088">
        <ele>816.619</ele>
        <time>2011-09-18T07:04:05Z</time>
      </trkpt>
      <trkpt lat="44.26374" lon="3.73078">
        <ele>816.064</ele>
        <time>2011-09-18T07:04:15Z</time>
      </trkpt>
      <trkpt lat="44.26362" lon="3.73064">
        <ele>815.446</ele>
        <time>2011-09-18T07:04:25Z</time>
      </trkpt>
      <trkpt lat="44.26355" lon="3.7305">
        <ele>814.468</ele>
        <time>2011-09-18T07:04:35Z</time>
      </trkpt>
      <trkpt lat="44.26353" lon="3.73037">
        <ele>816.162</ele>
        <time>2011-09-18T07:04:45Z</time>
      </trkpt>
      <trkpt lat="44.26344" lon="3.73021">
        <ele>816.209</ele>
        <time>2011-09-18T07:04:55Z</time>
      </trkpt>
      <trkpt lat="44.26334" lon="3.73007">
        <ele>815.041</ele>
        <time>2011-09-18T07:05:05Z</time>
      </trkpt>
      <trkpt lat="44.26327" lon="3.72991">
        <ele>813.541</ele>
        <time>2011-09-18T07:05:15Z</time>
      </trkpt>
      <trkpt lat="44.26325" lon="3.72972">
        <ele>813.353</ele>
        <time>2011-09-18T07:05:25Z</time>
      </trkpt>
      <trkpt lat="44.26326" lon="3.72955">
        <ele>813.554</ele>
        <time>2011-09-18T07:05:35Z</time>
      </trkpt>
      <trkpt lat="44.26332" lon="3.72941">
        <ele>813.622</ele>
        <time>2011-09-18T07:05:45Z</time>
      </trkpt>
      <trkpt lat="44.26337" lon="3.72925">
        <ele>813.176</ele>
        <time>2011-09-18T07:05:55Z</time>
      </trkpt>
      <trkpt lat="44.26331" lon="3.72909">
        <ele>813.179</ele>
        <time>2011-09-18T07:06:05Z</time>
      </trkpt>
      <trkpt lat="44.26328" lon="3.72882">
        <ele>813.541</ele>
        <time>2011-09-18T07:06:15Z</time>
      </trkpt>
      <trkpt lat="44.26324" lon="3.72862">
        <ele>814.891</ele>
        <time>2011-09-18T07:06:25Z</time>
      </trkpt>
      <trkpt lat="44.26325" lon="3.72843">
        <ele>816.146</ele>
        <time>2011-09-18T07:06:35Z</time>
      </trkpt>
      <trkpt lat="44.26322" lon="3.72824">
        <ele>817.758</ele>
        <time>2011-09-18T07:06:45Z</time>
      </trkpt>
      <trkpt lat="44.26318" lon="3.72805">
        <ele>817.39</ele>
        <time>2011-09-18T07:06:55Z</time>
      </trkpt>
      <trkpt lat="44.26312" lon="3.72793">
        <ele>817.396</ele>
        <time>2011-09-18T07:07:05Z</time>
      </trkpt>
      <trkpt lat="44.26304" lon="3.72781">
        <ele>817.758</ele>
        <time>2011-09-18T07:07:15Z</time>
      </trkpt>
      <trkpt lat="44.26297" lon="3.72767">
        <ele>817.422</ele>
        <time>2011-09-18T07:07:25Z</time>
      </trkpt>
      <trkpt lat="44.26293" lon="3.72748">
        <ele>818.474</ele>
        <time>2011-09-18T07:07:35Z</time>
      </trkpt>
      <trkpt lat="44.26288" lon="3.72732">
        <ele>819.418</ele>
        <time>2011-09-18T07:07:45Z</time>
      </trkpt>
      <trkpt lat="44.26278" lon="3.72713">
        <ele>820.518</ele>
        <time>2011-09-18T07:07:55Z</time>
      </trkpt>
      <trkpt lat="44.26268" lon="3.72702">
        <ele>821.741</ele>
        <time>2011-09-18T07:08:05Z</time>
      </trkpt>
      <trkpt lat="44.2626" lon="3.72696">
        <ele>822.315</ele>
        <time>2011-09-18T07:08:15Z</time>
      </trkpt>
      <trkpt lat="44.26251" lon="3.72686">
        <ele>821.978</ele>
        <time>2011-09-18T07:08:25Z</time>
      </trkpt>
      <trkpt lat="44.2624" lon="3.72684">
        <ele>821.559</ele>
        <time>2011-09-18T07:08:35Z</time>
      </trkpt>
      <trkpt lat="44.26225" lon="3.72681">
        <ele>821.69</ele>
        <time>2011-09-18T07:08:45Z</time>
      </trkpt>
      <trkpt lat="44.26212" lon="3.72682">
        <ele>822.797</ele>
        <time>2011-09-18T07:08:55Z</time>
      </trkpt>
      <trkpt lat="44.26196" lon="3.72689">
        <ele>823.583</ele>
        <time>2011-09-18T07:09:05Z</time>
      </trkpt>
      <trkpt lat="44.26183" lon="3.72696">
        <ele>823.509</ele>
        <time>2011-09-18T07:09:15Z</time>
      </trkpt>
      <trkpt lat="44.26172" lon="3.72705">
        <ele>823.565</ele>
        <time>2011-09-18T07:09:25Z</time>
      </trkpt>
      <trkpt lat="44.26162" lon="3.72712">
        <ele>823.563</ele>
        <time>2011-09-18T07:09:35Z</time>
      </trkpt>
      <trkpt lat="44.26153" lon="3.72721">
        <ele>824.076</ele>
        <time>2011-09-18T07:09:45Z</time>
      </trkpt>
      <trkpt lat="44.26138" lon="3.72726">
        <ele>825.464</ele>
        <time>2011-09-18T07:09:55Z</time>
      </trkpt>
      <trkpt lat="44.26133" lon="3.72743">
        <ele>826.561</ele>
        <time>2011-09-18T07:10:05Z</time>
      </trkpt>
      <trkpt lat="44.26127" lon="3.72755">
        <ele>827.236</ele>
        <time>2011-09-18T07:10:15Z</time>
      </trkpt>
      <trkpt lat="44.26119" lon="3.72766">
        <ele>827.75</ele>
        <time>2011-09-18T07:10:25Z</time>
      </trkpt>
      <trkpt lat="44.26107" lon="3.72768">
        <ele>829.534</ele>
        <time>2011-09-18T07:10:35Z</time>
      </trkpt>
      <trkpt lat="44.26097" lon="3.72774">
        <ele>830.978</ele>
        <time>2011-09-18T07:10:45Z</time>
      </trkpt>
      <trkpt lat="44.26088" lon="3.72778">
        <ele>831.408</ele>
        <time>2011-09-18T07:10:55Z</time>
      </trkpt>
      <trkpt lat="44.2608" lon="3.72781">
        <ele>830.704</ele>
        <time>2011-09-18T07:11:05Z</time>
      </trkpt>
      <trkpt lat="44.26069" lon="3.7278">
        <ele>831.787</ele>
        <time>2011-09-18T07:11:15Z</time>
      </trkpt>
      <trkpt lat="44.26058" lon="3.72785">
        <ele>832.171</ele>
        <time>2011-09-18T07:11:25Z</time>
      </trkpt>
      <trkpt lat="44.26047" lon="3.72791">
        <ele>832.981</ele>
        <time>2011-09-18T07:11:35Z</time>
      </trkpt>
      <trkpt lat="44.26035" lon="3.72789">
        <ele>833.583</ele>
        <time>2011-09-18T07:11:45Z</time>
      </trkpt>
      <trkpt lat="44.26018" lon="3.7278">
        <ele>833.579</ele>
        <time>2011-09-18T07:11:55Z</time>
      </trkpt>
      <trkpt lat="44.26005" lon="3.72774">
        <ele>833.729</ele>
        <time>2011-09-18T07:12:05Z</time>
      </trkpt>
      <trkpt lat="44.25989" lon="3.72767">
        <ele>833.945</ele>
        <time>2011-09-18T07:12:15Z</time>
      </trkpt>
      <trkpt lat="44.25977" lon="3.72763">
        <ele>833.825</ele>
        <time>2011-09-18T07:12:25Z</time>
      </trkpt>
      <trkpt lat="44.25969" lon="3.72758">
        <ele>834.216</ele>
        <time>2011-09-18T07:12:35Z</time>
      </trkpt>
      <trkpt lat="44.25957" lon="3.72756">
        <ele>834.593</ele>
        <time>2011-09-18T07:12:45Z</time>
      </trkpt>
      <trkpt lat="44.25947" lon="3.72758">
        <ele>835.07</ele>
        <time>2011-09-18T07:12:55Z</time>
      </trkpt>
      <trkpt lat="44.25935" lon="3.72753">
        <ele>836.091</ele>
        <time>2011-09-18T07:13:05Z</time>
      </trkpt>
      <trkpt lat="44.25928" lon="3.72735">
        <ele>835.927</ele>
        <time>2011-09-18T07:13:15Z</time>
      </trkpt>
      <trkpt lat="44.25923" lon="3.72718">
        <ele>836.37</ele>
        <time>2011-09-18T07:13:25Z</time>
      </trkpt>
      <trkpt lat="44.2592" lon="3.72692">
        <ele>836.664</ele>
        <time>2011-09-18T07:13:35Z</time>
      </trkpt>
      <trkpt lat="44.25914" lon="3.7268">
        <ele>837.728</ele>
        <time>2011-09-18T07:13:45Z</time>
      </trkpt>
      <trkpt lat="44.25903" lon="3.7267">
        <ele>838.716</ele>
        <time>2011-09-18T07:13:55Z</time>
      </trkpt>
      <trkpt lat="44.25898" lon="3.72656">
        <ele>839.504</ele>
        <time>2011-09-18T07:14:05Z</time>
      </trkpt>
      <trkpt lat="44.25891" lon="3.72641">
        <ele>840.886</ele>
        <time>2011-09-18T07:14:15Z</time>
      </trkpt>
      <trkpt lat="44.25886" lon="3.72627">
        <ele>843.568</ele>
        <time>2011-09-18T07:14:25Z</time>
      </trkpt>
      <trkpt lat="44.25888" lon="3.72614">
        <ele>844.58</ele>
        <time>2011-09-18T07:14:35Z</time>
      </trkpt>
      <trkpt lat="44.25889" lon="3.72599">
        <ele>845.766</ele>
        <time>2011-09-18T07:14:45Z</time>
      </trkpt>
      <trkpt lat="44.25892" lon="3.72579">
        <ele>847.375</ele>
        <time>2011-09-18T07:14:55Z</time>
      </trkpt>
      <trkpt lat="44.25885" lon="3.72566">
        <ele>848.355</ele>
        <time>2011-09-18T07:15:05Z</time>
      </trkpt>
      <trkpt lat="44.25876" lon="3.72558">
        <ele>848.739</ele>
        <time>2011-09-18T07:15:15Z</time>
      </trkpt>
      <trkpt lat="44.25868" lon="3.72551">
        <ele>849.124</ele>
        <time>2011-09-18T07:15:25Z</time>
      </trkpt>
      <trkpt lat="44.25859" lon="3.72539">
        <ele>849.716</ele>
        <time>2011-09-18T07:15:35Z</time>
      </trkpt>
      <trkpt lat="44.25851" lon="3.7253">
        <ele>851.619</ele>
        <time>2011-09-18T07:15:45Z</time>
      </trkpt>
      <trkpt lat="44.25844" lon="3.72518">
        <ele>851.518</ele>
        <time>2011-09-18T07:15:55Z</time>
      </trkpt>
      <trkpt lat="44.25836" lon="3.72514">
        <ele>852.258</ele>
        <time>2011-09-18T07:16:05Z</time>
      </trkpt>
      <trkpt lat="44.2582" lon="3.72511">
        <ele>853.175</ele>
        <time>2011-09-18T07:16:15Z</time>
      </trkpt>
      <trkpt lat="44.25807" lon="3.72507">
        <ele>854.702</ele>
        <time>2011-09-18T07:16:25Z</time>
      </trkpt>
      <trkpt lat="44.25796" lon="3.725">
        <ele>855.342</ele>
        <time>2011-09-18T07:16:35Z</time>
      </trkpt>
      <trkpt lat="44.25782" lon="3.7249">
        <ele>857.725</ele>
        <time>2011-09-18T07:16:45Z</time>
      </trkpt>
      <trkpt lat="44.25771" lon="3.72483">
        <ele>858.224</ele>
        <time>2011-09-18T07:16:55Z</time>
      </trkpt>
      <trkpt lat="44.2576" lon="3.72472">
        <ele>859.871</ele>
        <time>2011-09-18T07:17:05Z</time>
      </trkpt>
      <trkpt lat="44.2575" lon="3.72461">
        <ele>860.55</ele>
        <time>2011-09-18T07:17:15Z</time>
      </trkpt>
      <trkpt lat="44.25738" lon="3.72454">
        <ele>862.748</ele>
        <time>2011-09-18T07:17:25Z</time>
      </trkpt>
      <trkpt lat="44.25729" lon="3.72446">
        <ele>863.773</ele>
        <time>2011-09-18T07:17:35Z</time>
      </trkpt>
      <trkpt lat="44.25723" lon="3.7244">
        <ele>863.924</ele>
        <time>2011-09-18T07:17:45Z</time>
      </trkpt>
      <trkpt lat="44.2571" lon="3.72444">
        <ele>864.415</ele>
        <time>2011-09-18T07:17:55Z</time>
      </trkpt>
      <trkpt lat="44.25702" lon="3.72445">
        <ele>864.491</ele>
        <time>2011-09-18T07:18:05Z</time>
      </trkpt>
      <trkpt lat="44.25691" lon="3.72447">
        <ele>864.929</ele>
        <time>2011-09-18T07:18:15Z</time>
      </trkpt>
      <trkpt lat="44.25684" lon="3.72451">
        <ele>864.721</ele>
        <time>2011-09-18T07:18:25Z</time>
      </trkpt>
      <trkpt lat="44.25672" lon="3.72451">
        <ele>865.754</ele>
        <time>2011-09-18T07:18:35Z</time>
      </trkpt>
      <trkpt lat="44.25664" lon="3.72453">
        <ele>867.5</ele>
        <time>2011-09-18T07:18:45Z</time>
      </trkpt>
      <trkpt lat="44.25653" lon="3.7245">
        <ele>868.898</ele>
        <time>2011-09-18T07:18:55Z</time>
      </trkpt>
      <trkpt lat="44.25644" lon="3.72448">
        <ele>870.544</ele>
        <time>2011-09-18T07:19:05Z</time>
      </trkpt>
      <trkpt lat="44.25629" lon="3.72446">
        <ele>871.443</ele>
        <time>2011-09-18T07:19:15Z</time>
      </trkpt>
      <trkpt lat="44.25615" lon="3.7243">
        <ele>874.078</ele>
        <time>2011-09-18T07:19:25Z</time>
      </trkpt>
      <trkpt lat="44.25595" lon="3.72419">
        <ele>875.172</ele>
        <time>2011-09-18T07:19:35Z</time>
      </trkpt>
      <trkpt lat="44.25583" lon="3.72409">
        <ele>876.717</ele>
        <time>2011-09-18T07:19:45Z</time>
      </trkpt>
      <trkpt lat="44.25568" lon="3.72397">
        <ele>879.639</ele>
        <time>2011-09-18T07:19:55Z</time>
      </trkpt>
      <trkpt lat="44.25552" lon="3.72397">
        <ele>880.538</ele>
        <time>2011-09-18T07:20:05Z</time>
      </trkpt>
      <trkpt lat="44.25542" lon="3.72393">
        <ele>882.69</ele>
        <time>2011-09-18T07:20:15Z</time>
      </trkpt>
      <trkpt lat="44.25532" lon="3.72389">
        <ele>883.873</ele>
        <time>2011-09-18T07:20:25Z</time>
      </trkpt>
      <trkpt lat="44.25519" lon="3.72388">
        <ele>886.468</ele>
        <time>2011-09-18T07:20:35Z</time>
      </trkpt>
      <trkpt lat="44.25505" lon="3.7239">
        <ele>886.847</ele>
        <time>2011-09-18T07:20:45Z</time>
      </trkpt>
      <trkpt lat="44.25494" lon="3.72391">
        <ele>888.604</ele>
        <time>2011-09-18T07:20:55Z</time>
      </trkpt>
      <trkpt lat="44.25484" lon="3.72395">
        <ele>889.623</ele>
        <time>2011-09-18T07:21:05Z</time>
      </trkpt>
      <trkpt lat="44.25474" lon="3.724">
        <ele>890.174</ele>
        <time>2011-09-18T07:21:15Z</time>
      </trkpt>
      <trkpt lat="44.25466" lon="3.72405">
        <ele>892.294</ele>
        <time>2011-09-18T07:21:25Z</time>
      </trkpt>
      <trkpt lat="44.25455" lon="3.72412">
        <ele>893.07</ele>
        <time>2011-09-18T07:21:35Z</time>
      </trkpt>
      <trkpt lat="44.25444" lon="3.72416">
        <ele>893.711</ele>
        <time>2011-09-18T07:21:45Z</time>
      </trkpt>
      <trkpt lat="44.25433" lon="3.72415">
        <ele>894.795</ele>
        <time>2011-09-18T07:21:55Z</time>
      </trkpt>
      <trkpt lat="44.25424" lon="3.72416">
        <ele>895.216</ele>
        <time>2011-09-18T07:22:05Z</time>
      </trkpt>
      <trkpt lat="44.25412" lon="3.72418">
        <ele>897.756</ele>
        <time>2011-09-18T07:22:15Z</time>
      </trkpt>
      <trkpt lat="44.25399" lon="3.72415">
        <ele>897.355</ele>
        <time>2011-09-18T07:22:25Z</time>
      </trkpt>
      <trkpt lat="44.25388" lon="3.72416">
        <ele>897.901</ele>
        <time>2011-09-18T07:22:35Z</time>
      </trkpt>
      <trkpt lat="44.25373" lon="3.72418">
        <ele>897.849</ele>
        <time>2011-09-18T07:22:45Z</time>
      </trkpt>
      <trkpt lat="44.25362" lon="3.72421">
        <ele>899.583</ele>
        <time>2011-09-18T07:22:55Z</time>
      </trkpt>
      <trkpt lat="44.25351" lon="3.72405">
        <ele>899.989</ele>
        <time>2011-09-18T07:23:05Z</time>
      </trkpt>
      <trkpt lat="44.25335" lon="3.72388">
        <ele>901.434</ele>
        <time>2011-09-18T07:23:15Z</time>
      </trkpt>
      <trkpt lat="44.25324" lon="3.72375">
        <ele>901.214</ele>
        <time>2011-09-18T07:23:25Z</time>
      </trkpt>
      <trkpt lat="44.25316" lon="3.72366">
        <ele>902.847</ele>
        <time>2011-09-18T07:23:35Z</time>
      </trkpt>
      <trkpt lat="44.25307" lon="3.72358">
        <ele>904.439</ele>
        <time>2011-09-18T07:23:45Z</time>
      </trkpt>
      <trkpt lat="44.25297" lon="3.72357">
        <ele>906.008</ele>
        <time>2011-09-18T07:23:55Z</time>
      </trkpt>
      <trkpt lat="44.25288" lon="3.72359">
        <ele>907.808</ele>
        <time>2011-09-18T07:24:05Z</time>
      </trkpt>
      <trkpt lat="44.25274" lon="3.72366">
        <ele>909.02</ele>
        <time>2011-09-18T07:24:15Z</time>
      </trkpt>
      <trkpt lat="44.25267" lon="3.72378">
        <ele>909.684</ele>
        <time>2011-09-18T07:24:25Z</time>
      </trkpt>
      <trkpt lat="44.25256" lon="3.72388">
        <ele>910.659</ele>
        <time>2011-09-18T07:24:35Z</time>
      </trkpt>
      <trkpt lat="44.25249" lon="3.72395">
        <ele>912.351</ele>
        <time>2011-09-18T07:24:45Z</time>
      </trkpt>
      <trkpt lat="44.25239" lon="3.72398">
        <ele>913.539</ele>
        <time>2011-09-18T07:24:55Z</time>
      </trkpt>
      <trkpt lat="44.25229" lon="3.724">
        <ele>914.763</ele>
        <time>2011-09-18T07:25:05Z</time>
      </trkpt>
      <trkpt lat="44.25212" lon="3.72402">
        <ele>916.455</ele>
        <time>2011-09-18T07:25:15Z</time>
      </trkpt>
      <trkpt lat="44.25199" lon="3.72405">
        <ele>917.689</ele>
        <time>2011-09-18T07:25:25Z</time>
      </trkpt>
      <trkpt lat="44.25189" lon="3.72407">
        <ele>918.506</ele>
        <time>2011-09-18T07:25:35Z</time>
      </trkpt>
      <trkpt lat="44.25179" lon="3.72405">
        <ele>921.245</ele>
        <time>2011-09-18T07:25:45Z</time>
      </trkpt>
      <trkpt lat="44.25167" lon="3.72404">
        <ele>921.506</ele>
        <time>2011-09-18T07:25:55Z</time>
      </trkpt>
      <trkpt lat="44.25152" lon="3.72393">
        <ele>922.533</ele>
        <time>2011-09-18T07:26:05Z</time>
      </trkpt>
      <trkpt lat="44.25139" lon="3.72386">
        <ele>922.552</ele>
        <time>2011-09-18T07:26:15Z</time>
      </trkpt>
      <trkpt lat="44.25128" lon="3.72384">
        <ele>923.778</ele>
        <time>2011-09-18T07:26:25Z</time>
      </trkpt>
      <trkpt lat="44.25118" lon="3.72384">
        <ele>924.81</ele>
        <time>2011-09-18T07:26:35Z</time>
      </trkpt>
      <trkpt lat="44.25103" lon="3.72386">
        <ele>925.933</ele>
        <time>2011-09-18T07:26:45Z</time>
      </trkpt>
      <trkpt lat="44.25094" lon="3.72392">
        <ele>926.034</ele>
        <time>2011-09-18T07:26:55Z</time>
      </trkpt>
      <trkpt lat="44.25079" lon="3.72395">
        <ele>926.464</ele>
        <time>2011-09-18T07:27:05Z</time>
      </trkpt>
      <trkpt lat="44.25066" lon="3.72396">
        <ele>926.916</ele>
        <time>2011-09-18T07:27:15Z</time>
      </trkpt>
      <trkpt lat="44.25048" lon="3.724">
        <ele>926.681</ele>
        <time>2011-09-18T07:27:25Z</time>
      </trkpt>
      <trkpt lat="44.25037" lon="3.7241">
        <ele>926.694</ele>
        <time>2011-09-18T07:27:35Z</time>
      </trkpt>
      <trkpt lat="44.25026" lon="3.72416">
        <ele>927.286</ele>
        <time>2011-09-18T07:27:45Z</time>
      </trkpt>
      <trkpt lat="44.25018" lon="3.72422">
        <ele>927.064</ele>
        <time>2011-09-18T07:27:55Z</time>
      </trkpt>
      <trkpt lat="44.25006" lon="3.7241">
        <ele>927.918</ele>
        <time>2011-09-18T07:28:05Z</time>
      </trkpt>
      <trkpt lat="44.24995" lon="3.724">
        <ele>928.289</ele>
        <time>2011-09-18T07:28:15Z</time>
      </trkpt>
      <trkpt lat="44.24977" lon="3.72395">
        <ele>928.471</ele>
        <time>2011-09-18T07:28:25Z</time>
      </trkpt>
      <trkpt lat="44.24963" lon="3.72387">
        <ele>928.697</ele>
        <time>2011-09-18T07:28:35Z</time>
      </trkpt>
      <trkpt lat="44.2495" lon="3.72385">
        <ele>930.032</ele>
        <time>2011-09-18T07:28:45Z</time>
      </trkpt>
      <trkpt lat="44.2494" lon="3.72381">
        <ele>930.041</ele>
        <time>2011-09-18T07:28:55Z</time>
      </trkpt>
      <trkpt lat="44.24928" lon="3.7238">
        <ele>930.299</ele>
        <time>2011-09-18T07:29:05Z</time>
      </trkpt>
      <trkpt lat="44.24911" lon="3.7238">
        <ele>931.864</ele>
        <time>2011-09-18T07:29:15Z</time>
      </trkpt>
      <trkpt lat="44.24897" lon="3.7238">
        <ele>932.689</ele>
        <time>2011-09-18T07:29:25Z</time>
      </trkpt>
      <trkpt lat="44.24885" lon="3.7238">
        <ele>933.211</ele>
        <time>2011-09-18T07:29:35Z</time>
      </trkpt>
      <trkpt lat="44.24875" lon="3.72383">
        <ele>935.23</ele>
        <time>2011-09-18T07:29:45Z</time>
      </trkpt>
      <trkpt lat="44.24867" lon="3.72387">
        <ele>936.709</ele>
        <time>2011-09-18T07:29:55Z</time>
      </trkpt>
      <trkpt lat="44.24854" lon="3.7239">
        <ele>937.228</ele>
        <time>2011-09-18T07:30:05Z</time>
      </trkpt>
      <trkpt lat="44.24845" lon="3.72397">
        <ele>939.498</ele>
        <time>2011-09-18T07:30:15Z</time>
      </trkpt>
      <trkpt lat="44.24835" lon="3.72406">
        <ele>940.114</ele>
        <time>2011-09-18T07:30:25Z</time>
      </trkpt>
      <trkpt lat="44.24823" lon="3.72408">
        <ele>941.482</ele>
        <time>2011-09-18T07:30:35Z</time>
      </trkpt>
      <trkpt lat="44.24813" lon="3.72411">
        <ele>942.331</ele>
        <time>2011-09-18T07:30:45Z</time>
      </trkpt>
      <trkpt lat="44.24802" lon="3.72414">
        <ele>943.041</ele>
        <time>2011-09-18T07:30:55Z</time>
      </trkpt>
      <trkpt lat="44.2479" lon="3.72417">
        <ele>945.596</ele>
        <time>2011-09-18T07:31:05Z</time>
      </trkpt>
      <trkpt lat="44.24778" lon="3.7242">
        <ele>945.244</ele>
        <time>2011-09-18T07:31:15Z</time>
      </trkpt>
      <trkpt lat="44.24768" lon="3.72431">
        <ele>946.331</ele>
        <time>2011-09-18T07:31:25Z</time>
      </trkpt>
      <trkpt lat="44.24759" lon="3.72437">
        <ele>947.719</ele>
        <time>2011-09-18T07:31:35Z</time>
      </trkpt>
      <trkpt lat="44.24756" lon="3.72452">
        <ele>948.906</ele>
        <time>2011-09-18T07:31:45Z</time>
      </trkpt>
      <trkpt lat="44.24749" lon="3.72461">
        <ele>950.576</ele>
        <time>2011-09-18T07:31:55Z</time>
      </trkpt>
      <trkpt lat="44.24741" lon="3.7247">
        <ele>950.998</ele>
        <time>2011-09-18T07:32:05Z</time>
      </trkpt>
      <trkpt lat="44.2473" lon="3.7248">
        <ele>949.989</ele>
        <time>2011-09-18T07:32:15Z</time>
      </trkpt>
      <trkpt lat="44.24721" lon="3.72481">
        <ele>950.485</ele>
        <time>2011-09-18T07:32:25Z</time>
      </trkpt>
      <trkpt lat="44.24706" lon="3.72482">
        <ele>950.03</ele>
        <time>2011-09-18T07:32:35Z</time>
      </trkpt>
      <trkpt lat="44.24695" lon="3.72485">
        <ele>950.327</ele>
        <time>2011-09-18T07:32:45Z</time>
      </trkpt>
      <trkpt lat="44.24685" lon="3.72488">
        <ele>949.299</ele>
        <time>2011-09-18T07:32:55Z</time>
      </trkpt>
      <trkpt lat="44.24673" lon="3.72495">
        <ele>949.292</ele>
        <time>2011-09-18T07:33:05Z</time>
      </trkpt>
      <trkpt lat="44.24659" lon="3.72501">
        <ele>948.854</ele>
        <time>2011-09-18T07:33:15Z</time>
      </trkpt>
      <trkpt lat="44.24647" lon="3.72505">
        <ele>949.11</ele>
        <time>2011-09-18T07:33:25Z</time>
      </trkpt>
      <trkpt lat="44.24635" lon="3.72509">
        <ele>949.379</ele>
        <time>2011-09-18T07:33:35Z</time>
      </trkpt>
      <trkpt lat="44.24625" lon="3.72516">
        <ele>948.448</ele>
        <time>2011-09-18T07:33:45Z</time>
      </trkpt>
      <trkpt lat="44.24612" lon="3.72516">
        <ele>948.693</ele>
        <time>2011-09-18T07:33:55Z</time>
      </trkpt>
      <trkpt lat="44.24602" lon="3.72517">
        <ele>949.129</ele>
        <time>2011-09-18T07:34:05Z</time>
      </trkpt>
      <trkpt lat="44.24594" lon="3.72522">
        <ele>949.278</ele>
        <time>2011-09-18T07:34:15Z</time>
      </trkpt>
      <trkpt lat="44.24585" lon="3.72524">
        <ele>949.553</ele>
        <time>2011-09-18T07:34:25Z</time>
      </trkpt>
      <trkpt lat="44.24577" lon="3.72531">
        <ele>950.298</ele>
        <time>2011-09-18T07:34:35Z</time>
      </trkpt>
      <trkpt lat="44.24564" lon="3.72566">
        <ele>950.642</ele>
        <time>2011-09-18T07:34:45Z</time>
      </trkpt>
      <trkpt lat="44.24542" lon="3.72573">
        <ele>951.582</ele>
        <time>2011-09-18T07:34:55Z</time>
      </trkpt>
      <trkpt lat="44.24525" lon="3.72567">
        <ele>951.62</ele>
        <time>2011-09-18T07:35:05Z</time>
      </trkpt>
      <trkpt lat="44.2449" lon="3.72554">
        <ele>951.73</ele>
        <time>2011-09-18T07:35:15Z</time>
      </trkpt>
      <trkpt lat="44.24474" lon="3.72555">
        <ele>951.87</ele>
        <time>2011-09-18T07:35:25Z</time>
      </trkpt>
      <trkpt lat="44.2446" lon="3.72556">
        <ele>952.137</ele>
        <time>2011-09-18T07:35:35Z</time>
      </trkpt>
      <trkpt lat="44.24447" lon="3.72561">
        <ele>953.683</ele>
        <time>2011-09-18T07:35:45Z</time>
      </trkpt>
      <trkpt lat="44.24435" lon="3.72574">
        <ele>953.946</ele>
        <time>2011-09-18T07:35:55Z</time>
      </trkpt>
      <trkpt lat="44.24428" lon="3.72584">
        <ele>953.185</ele>
        <time>2011-09-18T07:36:05Z</time>
      </trkpt>
      <trkpt lat="44.24422" lon="3.72591">
        <ele>951.354</ele>
        <time>2011-09-18T07:36:15Z</time>
      </trkpt>
      <trkpt lat="44.24418" lon="3.72603">
        <ele>950.892</ele>
        <time>2011-09-18T07:36:25Z</time>
      </trkpt>
      <trkpt lat="44.24412" lon="3.72621">
        <ele>948.214</ele>
        <time>2011-09-18T07:36:35Z</time>
      </trkpt>
      <trkpt lat="44.24403" lon="3.72629">
        <ele>947.239</ele>
        <time>2011-09-18T07:36:45Z</time>
      </trkpt>
      <trkpt lat="44.24391" lon="3.72636">
        <ele>945.159</ele>
        <time>2011-09-18T07:36:55Z</time>
      </trkpt>
      <trkpt lat="44.24377" lon="3.72649">
        <ele>944.135</ele>
        <time>2011-09-18T07:37:05Z</time>
      </trkpt>
      <trkpt lat="44.24362" lon="3.72654">
        <ele>944.798</ele>
        <time>2011-09-18T07:37:15Z</time>
      </trkpt>
      <trkpt lat="44.24353" lon="3.72641">
        <ele>943.905</ele>
        <time>2011-09-18T07:37:25Z</time>
      </trkpt>
      <trkpt lat="44.24345" lon="3.72625">
        <ele>943.332</ele>
        <time>2011-09-18T07:37:35Z</time>
      </trkpt>
      <trkpt lat="44.24343" lon="3.7263">
        <ele>944.152</ele>
        <time>2011-09-18T07:37:45Z</time>
      </trkpt>
      <trkpt lat="44.24346" lon="3.7264">
        <ele>941.021</ele>
        <time>2011-09-18T07:37:55Z</time>
      </trkpt>
      <trkpt lat="44.24351" lon="3.72656">
        <ele>940.763</ele>
        <time>2011-09-18T07:38:05Z</time>
      </trkpt>
      <trkpt lat="44.24358" lon="3.72673">
        <ele>939.074</ele>
        <time>2011-09-18T07:38:15Z</time>
      </trkpt>
      <trkpt lat="44.24368" lon="3.72681">
        <ele>937.923</ele>
        <time>2011-09-18T07:38:25Z</time>
      </trkpt>
      <trkpt lat="44.24378" lon="3.72695">
        <ele>936.343</ele>
        <time>2011-09-18T07:38:35Z</time>
      </trkpt>
      <trkpt lat="44.24382" lon="3.72713">
        <ele>935.444</ele>
        <time>2011-09-18T07:38:45Z</time>
      </trkpt>
      <trkpt lat="44.24385" lon="3.7273">
        <ele>934.326</ele>
        <time>2011-09-18T07:38:55Z</time>
      </trkpt>
      <trkpt lat="44.24384" lon="3.72748">
        <ele>932.67</ele>
        <time>2011-09-18T07:39:05Z</time>
      </trkpt>
      <trkpt lat="44.24385" lon="3.7276">
        <ele>932.487</ele>
        <time>2011-09-18T07:39:15Z</time>
      </trkpt>
      <trkpt lat="44.24387" lon="3.72777">
        <ele>931.188</ele>
        <time>2011-09-18T07:39:25Z</time>
      </trkpt>
      <trkpt lat="44.24388" lon="3.72793">
        <ele>929.846</ele>
        <time>2011-09-18T07:39:35Z</time>
      </trkpt>
      <trkpt lat="44.24388" lon="3.72816">
        <ele>929.079</ele>
        <time>2011-09-18T07:39:45Z</time>
      </trkpt>
      <trkpt lat="44.24382" lon="3.72829">
        <ele>928.502</ele>
        <time>2011-09-18T07:39:55Z</time>
      </trkpt>
      <trkpt lat="44.2438" lon="3.72846">
        <ele>928.078</ele>
        <time>2011-09-18T07:40:05Z</time>
      </trkpt>
      <trkpt lat="44.24382" lon="3.72863">
        <ele>926.829</ele>
        <time>2011-09-18T07:40:15Z</time>
      </trkpt>
      <trkpt lat="44.24383" lon="3.7288">
        <ele>925.22</ele>
        <time>2011-09-18T07:40:25Z</time>
      </trkpt>
      <trkpt lat="44.24384" lon="3.72899">
        <ele>924.653</ele>
        <time>2011-09-18T07:40:35Z</time>
      </trkpt>
      <trkpt lat="44.24378" lon="3.7292">
        <ele>923.638</ele>
        <time>2011-09-18T07:40:45Z</time>
      </trkpt>
      <trkpt lat="44.24374" lon="3.72936">
        <ele>922.11</ele>
        <time>2011-09-18T07:40:55Z</time>
      </trkpt>
      <trkpt lat="44.24372" lon="3.72953">
        <ele>921.094</ele>
        <time>2011-09-18T07:41:05Z</time>
      </trkpt>
      <trkpt lat="44.2437" lon="3.72976">
        <ele>920.92</ele>
        <time>2011-09-18T07:41:15Z</time>
      </trkpt>
      <trkpt lat="44.24365" lon="3.7299">
        <ele>919.921</ele>
        <time>2011-09-18T07:41:25Z</time>
      </trkpt>
      <trkpt lat="44.2436" lon="3.73005">
        <ele>920.414</ele>
        <time>2011-09-18T07:41:35Z</time>
      </trkpt>
      <trkpt lat="44.24356" lon="3.73023">
        <ele>920.538</ele>
        <time>2011-09-18T07:41:45Z</time>
      </trkpt>
      <trkpt lat="44.2436" lon="3.7304">
        <ele>921.676</ele>
        <time>2011-09-18T07:41:55Z</time>
      </trkpt>
      <trkpt lat="44.24355" lon="3.73054">
        <ele>922.157</ele>
        <time>2011-09-18T07:42:05Z</time>
      </trkpt>
      <trkpt lat="44.24345" lon="3.73061">
        <ele>923.165</ele>
        <time>2011-09-18T07:42:15Z</time>
      </trkpt>
      <trkpt lat="44.24338" lon="3.73065">
        <ele>923.225</ele>
        <time>2011-09-18T07:42:25Z</time>
      </trkpt>
      <trkpt lat="44.24331" lon="3.73078">
        <ele>924.406</ele>
        <time>2011-09-18T07:42:35Z</time>
      </trkpt>
      <trkpt lat="44.24324" lon="3.73086">
        <ele>925.201</ele>
        <time>2011-09-18T07:42:45Z</time>
      </trkpt>
      <trkpt lat="44.24318" lon="3.731">
        <ele>927.393</ele>
        <time>2011-09-18T07:42:55Z</time>
      </trkpt>
      <trkpt lat="44.24311" lon="3.7311">
        <ele>928.378</ele>
        <time>2011-09-18T07:43:05Z</time>
      </trkpt>
      <trkpt lat="44.24302" lon="3.73111">
        <ele>929.058</ele>
        <time>2011-09-18T07:43:15Z</time>
      </trkpt>
      <trkpt lat="44.24295" lon="3.73119">
        <ele>929.134</ele>
        <time>2011-09-18T07:43:25Z</time>
      </trkpt>
      <trkpt lat="44.24288" lon="3.73142">
        <ele>930.222</ele>
        <time>2011-09-18T07:43:35Z</time>
      </trkpt>
      <trkpt lat="44.24283" lon="3.73163">
        <ele>931.173</ele>
        <time>2011-09-18T07:43:45Z</time>
      </trkpt>
      <trkpt lat="44.24276" lon="3.73177">
        <ele>932.365</ele>
        <time>2011-09-18T07:43:55Z</time>
      </trkpt>
      <trkpt lat="44.24269" lon="3.73192">
        <ele>932.776</ele>
        <time>2011-09-18T07:44:05Z</time>
      </trkpt>
      <trkpt lat="44.2426" lon="3.73204">
        <ele>933.603</ele>
        <time>2011-09-18T07:44:15Z</time>
      </trkpt>
      <trkpt lat="44.24251" lon="3.73214">
        <ele>934.381</ele>
        <time>2011-09-18T07:44:25Z</time>
      </trkpt>
      <trkpt lat="44.24244" lon="3.73231">
        <ele>934.589</ele>
        <time>2011-09-18T07:44:35Z</time>
      </trkpt>
      <trkpt lat="44.24237" lon="3.73248">
        <ele>935.154</ele>
        <time>2011-09-18T07:44:45Z</time>
      </trkpt>
      <trkpt lat="44.24228" lon="3.73265">
        <ele>936.411</ele>
        <time>2011-09-18T07:44:55Z</time>
      </trkpt>
      <trkpt lat="44.24221" lon="3.73278">
        <ele>935.989</ele>
        <time>2011-09-18T07:45:05Z</time>
      </trkpt>
      <trkpt lat="44.24216" lon="3.73294">
        <ele>936.307</ele>
        <time>2011-09-18T07:45:15Z</time>
      </trkpt>
      <trkpt lat="44.24214" lon="3.73304">
        <ele>937.113</ele>
        <time>2011-09-18T07:45:25Z</time>
      </trkpt>
      <trkpt lat="44.24214" lon="3.73305">
        <ele>937.24</ele>
        <time>2011-09-18T07:45:35Z</time>
      </trkpt>
      <trkpt lat="44.24213" lon="3.73305">
        <ele>937.326</ele>
        <time>2011-09-18T07:45:45Z</time>
      </trkpt>
      <trkpt lat="44.24213" lon="3.73305">
        <ele>936.577</ele>
        <time>2011-09-18T07:45:55Z</time>
      </trkpt>
      <trkpt lat="44.24213" lon="3.73305">
        <ele>937.194</ele>
        <time>2011-09-18T07:46:05Z</time>
      </trkpt>
      <trkpt lat="44.24213" lon="3.73305">
        <ele>937.002</ele>
        <time>2011-09-18T07:46:15Z</time>
      </trkpt>
      <trkpt lat="44.24213" lon="3.73305">
        <ele>936.892</ele>
        <time>2011-09-18T07:46:25Z</time>
      </trkpt>
      <trkpt lat="44.24213" lon="3.73305">
        <ele>936.386</ele>
        <time>2011-09-18T07:46:35Z</time>
      </trkpt>
      <trkpt lat="44.24213" lon="3.73305">
        <ele>936.716</ele>
        <time>2011-09-18T07:46:45Z</time>
      </trkpt>
      <trkpt lat="44.24215" lon="3.73313">
        <ele>936.74</ele>
        <time>2011-09-18T07:46:55Z</time>
      </trkpt>
      <trkpt lat="44.24223" lon="3.73327">
        <ele>937.393</ele>
        <time>2011-09-18T07:47:05Z</time>
      </trkpt>
      <trkpt lat="44.24228" lon="3.73343">
        <ele>938.433</ele>
        <time>2011-09-18T07:47:15Z</time>
      </trkpt>
      <trkpt lat="44.24232" lon="3.73359">
        <ele>938.89</ele>
        <time>2011-09-18T07:47:25Z</time>
      </trkpt>
      <trkpt lat="44.24236" lon="3.73373">
        <ele>939.286</ele>
        <time>2011-09-18T07:47:35Z</time>
      </trkpt>
      <trkpt lat="44.24243" lon="3.73388">
        <ele>940.413</ele>
        <time>2011-09-18T07:47:45Z</time>
      </trkpt>
      <trkpt lat="44.24247" lon="3.73406">
        <ele>941.049</ele>
        <time>2011-09-18T07:47:55Z</time>
      </trkpt>
      <trkpt lat="44.24249" lon="3.73422">
        <ele>941.98</ele>
        <time>2011-09-18T07:48:05Z</time>
      </trkpt>
      <trkpt lat="44.24247" lon="3.73441">
        <ele>942.135</ele>
        <time>2011-09-18T07:48:15Z</time>
      </trkpt>
      <trkpt lat="44.24252" lon="3.73455">
        <ele>943.754</ele>
        <time>2011-09-18T07:48:25Z</time>
      </trkpt>
      <trkpt lat="44.24257" lon="3.73472">
        <ele>944.85</ele>
        <time>2011-09-18T07:48:35Z</time>
      </trkpt>
      <trkpt lat="44.24265" lon="3.73487">
        <ele>945.409</ele>
        <time>2011-09-18T07:48:45Z</time>
      </trkpt>
      <trkpt lat="44.24271" lon="3.73501">
        <ele>946.255</ele>
        <time>2011-09-18T07:48:55Z</time>
      </trkpt>
      <trkpt lat="44.24281" lon="3.7351">
        <ele>947.237</ele>
        <time>2011-09-18T07:49:05Z</time>
      </trkpt>
      <trkpt lat="44.24287" lon="3.73525">
        <ele>946.759</ele>
        <time>2011-09-18T07:49:15Z</time>
      </trkpt>
      <trkpt lat="44.24291" lon="3.73539">
        <ele>946.803</ele>
        <time>2011-09-18T07:49:25Z</time>
      </trkpt>
      <trkpt lat="44.24285" lon="3.73551">
        <ele>948.502</ele>
        <time>2011-09-18T07:49:35Z</time>
      </trkpt>
      <trkpt lat="44.24274" lon="3.73559">
        <ele>949.295</ele>
        <time>2011-09-18T07:49:45Z</time>
      </trkpt>
      <trkpt lat="44.24268" lon="3.73571">
        <ele>949.78</ele>
        <time>2011-09-18T07:49:55Z</time>
      </trkpt>
      <trkpt lat="44.24266" lon="3.73598">
        <ele>950.611</ele>
        <time>2011-09-18T07:50:05Z</time>
      </trkpt>
      <trkpt lat="44.24271" lon="3.73611">
        <ele>951.38</ele>
        <time>2011-09-18T07:50:15Z</time>
      </trkpt>
      <trkpt lat="44.24274" lon="3.73624">
        <ele>952.364</ele>
        <time>2011-09-18T07:50:25Z</time>
      </trkpt>
      <trkpt lat="44.24281" lon="3.73641">
        <ele>952.994</ele>
        <time>2011-09-18T07:50:35Z</time>
      </trkpt>
      <trkpt lat="44.24286" lon="3.73659">
        <ele>953.493</ele>
        <time>2011-09-18T07:50:45Z</time>
      </trkpt>
      <trkpt lat="44.24291" lon="3.73674">
        <ele>954.087</ele>
        <time>2011-09-18T07:50:55Z</time>
      </trkpt>
      <trkpt lat="44.24292" lon="3.73691">
        <ele>953.986</ele>
        <time>2011-09-18T07:51:05Z</time>
      </trkpt>
      <trkpt lat="44.24286" lon="3.73704">
        <ele>954.907</ele>
        <time>2011-09-18T07:51:15Z</time>
      </trkpt>
      <trkpt lat="44.24276" lon="3.73715">
        <ele>956.364</ele>
        <time>2011-09-18T07:51:25Z</time>
      </trkpt>
      <trkpt lat="44.2427" lon="3.73731">
        <ele>957.063</ele>
        <time>2011-09-18T07:51:35Z</time>
      </trkpt>
      <trkpt lat="44.24269" lon="3.73746">
        <ele>957.306</ele>
        <time>2011-09-18T07:51:45Z</time>
      </trkpt>
      <trkpt lat="44.24274" lon="3.7376">
        <ele>958.901</ele>
        <time>2011-09-18T07:51:55Z</time>
      </trkpt>
      <trkpt lat="44.24284" lon="3.73771">
        <ele>959.975</ele>
        <time>2011-09-18T07:52:05Z</time>
      </trkpt>
      <trkpt lat="44.24293" lon="3.73782">
        <ele>959.824</ele>
        <time>2011-09-18T07:52:15Z</time>
      </trkpt>
      <trkpt lat="44.24294" lon="3.73798">
        <ele>961.74</ele>
        <time>2011-09-18T07:52:25Z</time>
      </trkpt>
      <trkpt lat="44.24291" lon="3.73818">
        <ele>962.353</ele>
        <time>2011-09-18T07:52:35Z</time>
      </trkpt>
      <trkpt lat="44.2429" lon="3.73839">
        <ele>962.733</ele>
        <time>2011-09-18T07:52:45Z</time>
      </trkpt>
      <trkpt lat="44.2429" lon="3.73852">
        <ele>963.91</ele>
        <time>2011-09-18T07:52:55Z</time>
      </trkpt>
      <trkpt lat="44.24284" lon="3.73869">
        <ele>964.603</ele>
        <time>2011-09-18T07:53:05Z</time>
      </trkpt>
      <trkpt lat="44.24282" lon="3.73886">
        <ele>966.692</ele>
        <time>2011-09-18T07:53:15Z</time>
      </trkpt>
      <trkpt lat="44.24277" lon="3.739">
        <ele>967.601</ele>
        <time>2011-09-18T07:53:25Z</time>
      </trkpt>
      <trkpt lat="44.2427" lon="3.73911">
        <ele>968.051</ele>
        <time>2011-09-18T07:53:35Z</time>
      </trkpt>
      <trkpt lat="44.24265" lon="3.73933">
        <ele>969.96</ele>
        <time>2011-09-18T07:53:45Z</time>
      </trkpt>
      <trkpt lat="44.24266" lon="3.73953">
        <ele>970.57</ele>
        <time>2011-09-18T07:53:55Z</time>
      </trkpt>
      <trkpt lat="44.24265" lon="3.73973">
        <ele>971.849</ele>
        <time>2011-09-18T07:54:05Z</time>
      </trkpt>
      <trkpt lat="44.24262" lon="3.73988">
        <ele>972.483</ele>
        <time>2011-09-18T07:54:15Z</time>
      </trkpt>
      <trkpt lat="44.24261" lon="3.74005">
        <ele>973.491</ele>
        <time>2011-09-18T07:54:25Z</time>
      </trkpt>
      <trkpt lat="44.24256" lon="3.7402">
        <ele>976.509</ele>
        <time>2011-09-18T07:54:35Z</time>
      </trkpt>
      <trkpt lat="44.24253" lon="3.74039">
        <ele>975.813</ele>
        <time>2011-09-18T07:54:45Z</time>
      </trkpt>
      <trkpt lat="44.24247" lon="3.74053">
        <ele>976.501</ele>
        <time>2011-09-18T07:54:55Z</time>
      </trkpt>
      <trkpt lat="44.24246" lon="3.74072">
        <ele>977.323</ele>
        <time>2011-09-18T07:55:05Z</time>
      </trkpt>
      <trkpt lat="44.2425" lon="3.74097">
        <ele>976.813</ele>
        <time>2011-09-18T07:55:15Z</time>
      </trkpt>
      <trkpt lat="44.24249" lon="3.74114">
        <ele>978.13</ele>
        <time>2011-09-18T07:55:25Z</time>
      </trkpt>
      <trkpt lat="44.24252" lon="3.7413">
        <ele>978.391</ele>
        <time>2011-09-18T07:55:35Z</time>
      </trkpt>
      <trkpt lat="44.24252" lon="3.74154">
        <ele>978.32</ele>
        <time>2011-09-18T07:55:45Z</time>
      </trkpt>
      <trkpt lat="44.24252" lon="3.74172">
        <ele>978.81</ele>
        <time>2011-09-18T07:55:55Z</time>
      </trkpt>
      <trkpt lat="44.24244" lon="3.74189">
        <ele>979.545</ele>
        <time>2011-09-18T07:56:05Z</time>
      </trkpt>
      <trkpt lat="44.24239" lon="3.74202">
        <ele>980.137</ele>
        <time>2011-09-18T07:56:15Z</time>
      </trkpt>
      <trkpt lat="44.24237" lon="3.74221">
        <ele>981.06</ele>
        <time>2011-09-18T07:56:25Z</time>
      </trkpt>
      <trkpt lat="44.2424" lon="3.74236">
        <ele>982.325</ele>
        <time>2011-09-18T07:56:35Z</time>
      </trkpt>
      <trkpt lat="44.24246" lon="3.74251">
        <ele>983.135</ele>
        <time>2011-09-18T07:56:45Z</time>
      </trkpt>
      <trkpt lat="44.24256" lon="3.7426">
        <ele>983.599</ele>
        <time>2011-09-18T07:56:55Z</time>
      </trkpt>
      <trkpt lat="44.24256" lon="3.74272">
        <ele>983.754</ele>
        <time>2011-09-18T07:57:05Z</time>
      </trkpt>
      <trkpt lat="44.24245" lon="3.74285">
        <ele>984.788</ele>
        <time>2011-09-18T07:57:15Z</time>
      </trkpt>
      <trkpt lat="44.24239" lon="3.74284">
        <ele>985.243</ele>
        <time>2011-09-18T07:57:25Z</time>
      </trkpt>
      <trkpt lat="44.2423" lon="3.74295">
        <ele>985.458</ele>
        <time>2011-09-18T07:57:35Z</time>
      </trkpt>
      <trkpt lat="44.24222" lon="3.74312">
        <ele>987.189</ele>
        <time>2011-09-18T07:57:45Z</time>
      </trkpt>
      <trkpt lat="44.24214" lon="3.74323">
        <ele>989.095</ele>
        <time>2011-09-18T07:57:55Z</time>
      </trkpt>
      <trkpt lat="44.24207" lon="3.74349">
        <ele>989.855</ele>
        <time>2011-09-18T07:58:05Z</time>
      </trkpt>
      <trkpt lat="44.24198" lon="3.74359">
        <ele>990.883</ele>
        <time>2011-09-18T07:58:15Z</time>
      </trkpt>
      <trkpt lat="44.242" lon="3.74376">
        <ele>991.391</ele>
        <time>2011-09-18T07:58:25Z</time>
      </trkpt>
      <trkpt lat="44.24204" lon="3.74397">
        <ele>995.137</ele>
        <time>2011-09-18T07:58:35Z</time>
      </trkpt>
      <trkpt lat="44.24211" lon="3.74421">
        <ele>994.971</ele>
        <time>2011-09-18T07:58:45Z</time>
      </trkpt>
      <trkpt lat="44.24219" lon="3.74435">
        <ele>995.778</ele>
        <time>2011-09-18T07:58:55Z</time>
      </trkpt>
      <trkpt lat="44.24227" lon="3.74452">
        <ele>994.863</ele>
        <time>2011-09-18T07:59:05Z</time>
      </trkpt>
      <trkpt lat="44.24232" lon="3.74461">
        <ele>997.863</ele>
        <time>2011-09-18T07:59:15Z</time>
      </trkpt>
      <trkpt lat="44.24241" lon="3.74474">
        <ele>998.488</ele>
        <time>2011-09-18T07:59:25Z</time>
      </trkpt>
      <trkpt lat="44.24245" lon="3.74485">
        <ele>999.109</ele>
        <time>2011-09-18T07:59:35Z</time>
      </trkpt>
      <trkpt lat="44.24237" lon="3.74501">
        <ele>999.313</ele>
        <time>2011-09-18T07:59:45Z</time>
      </trkpt>
      <trkpt lat="44.24229" lon="3.74514">
        <ele>999.999</ele>
        <time>2011-09-18T07:59:55Z</time>
      </trkpt>
      <trkpt lat="44.24222" lon="3.74535">
        <ele>1000.427</ele>
        <time>2011-09-18T08:00:05Z</time>
      </trkpt>
      <trkpt lat="44.24219" lon="3.74549">
        <ele>1001.483</ele>
        <time>2011-09-18T08:00:15Z</time>
      </trkpt>
      <trkpt lat="44.24216" lon="3.74564">
        <ele>1002.304</ele>
        <time>2011-09-18T08:00:25Z</time>
      </trkpt>
      <trkpt lat="44.24215" lon="3.74581">
        <ele>1002.993</ele>
        <time>2011-09-18T08:00:35Z</time>
      </trkpt>
      <trkpt lat="44.2421" lon="3.74596">
        <ele>1004.201</ele>
        <time>2011-09-18T08:00:45Z</time>
      </trkpt>
      <trkpt lat="44.24205" lon="3.74613">
        <ele>1004.926</ele>
        <time>2011-09-18T08:00:55Z</time>
      </trkpt>
      <trkpt lat="44.24199" lon="3.74628">
        <ele>1006.27</ele>
        <time>2011-09-18T08:01:05Z</time>
      </trkpt>
      <trkpt lat="44.24194" lon="3.74647">
        <ele>1006.123</ele>
        <time>2011-09-18T08:01:15Z</time>
      </trkpt>
      <trkpt lat="44.24188" lon="3.74667">
        <ele>1007.639</ele>
        <time>2011-09-18T08:01:25Z</time>
      </trkpt>
      <trkpt lat="44.24182" lon="3.74683">
        <ele>1009.092</ele>
        <time>2011-09-18T08:01:35Z</time>
      </trkpt>
      <trkpt lat="44.24181" lon="3.74709">
        <ele>1010.514</ele>
        <time>2011-09-18T08:01:45Z</time>
      </trkpt>
      <trkpt lat="44.2418" lon="3.74732">
        <ele>1010.992</ele>
        <time>2011-09-18T08:01:55Z</time>
      </trkpt>
      <trkpt lat="44.24176" lon="3.74748">
        <ele>1010.95</ele>
        <time>2011-09-18T08:02:05Z</time>
      </trkpt>
      <trkpt lat="44.24178" lon="3.74758">
        <ele>1011.484</ele>
        <time>2011-09-18T08:02:15Z</time>
      </trkpt>
      <trkpt lat="44.24184" lon="3.74775">
        <ele>1010.724</ele>
        <time>2011-09-18T08:02:25Z</time>
      </trkpt>
      <trkpt lat="44.24194" lon="3.74793">
        <ele>1012.049</ele>
        <time>2011-09-18T08:02:35Z</time>
      </trkpt>
      <trkpt lat="44.242" lon="3.74808">
        <ele>1011.437</ele>
        <time>2011-09-18T08:02:45Z</time>
      </trkpt>
      <trkpt lat="44.24205" lon="3.74822">
        <ele>1013.399</ele>
        <time>2011-09-18T08:02:55Z</time>
      </trkpt>
      <trkpt lat="44.24214" lon="3.74834">
        <ele>1015.623</ele>
        <time>2011-09-18T08:03:05Z</time>
      </trkpt>
      <trkpt lat="44.24219" lon="3.74845">
        <ele>1015.111</ele>
        <time>2011-09-18T08:03:15Z</time>
      </trkpt>
      <trkpt lat="44.24229" lon="3.74855">
        <ele>1015.137</ele>
        <time>2011-09-18T08:03:25Z</time>
      </trkpt>
      <trkpt lat="44.24238" lon="3.74863">
        <ele>1015.075</ele>
        <time>2011-09-18T08:03:35Z</time>
      </trkpt>
      <trkpt lat="44.24248" lon="3.74872">
        <ele>1013.221</ele>
        <time>2011-09-18T08:03:45Z</time>
      </trkpt>
      <trkpt lat="44.24255" lon="3.74892">
        <ele>1012.785</ele>
        <time>2011-09-18T08:03:55Z</time>
      </trkpt>
      <trkpt lat="44.24258" lon="3.74912">
        <ele>1012.723</ele>
        <time>2011-09-18T08:04:05Z</time>
      </trkpt>
      <trkpt lat="44.2426" lon="3.7492">
        <ele>1014.401</ele>
        <time>2011-09-18T08:04:15Z</time>
      </trkpt>
      <trkpt lat="44.24257" lon="3.74931">
        <ele>1013.393</ele>
        <time>2011-09-18T08:04:25Z</time>
      </trkpt>
      <trkpt lat="44.24255" lon="3.74946">
        <ele>1013.782</ele>
        <time>2011-09-18T08:04:35Z</time>
      </trkpt>
      <trkpt lat="44.24249" lon="3.74953">
        <ele>1012.876</ele>
        <time>2011-09-18T08:04:45Z</time>
      </trkpt>
      <trkpt lat="44.2425" lon="3.74976">
        <ele>1012.078</ele>
        <time>2011-09-18T08:04:55Z</time>
      </trkpt>
      <trkpt lat="44.24253" lon="3.74996">
        <ele>1011.456</ele>
        <time>2011-09-18T08:05:05Z</time>
      </trkpt>
      <trkpt lat="44.2426" lon="3.7501">
        <ele>1010.235</ele>
        <time>2011-09-18T08:05:15Z</time>
      </trkpt>
      <trkpt lat="44.24265" lon="3.7502">
        <ele>1010.214</ele>
        <time>2011-09-18T08:05:25Z</time>
      </trkpt>
      <trkpt lat="44.24265" lon="3.75036">
        <ele>1010.465</ele>
        <time>2011-09-18T08:05:35Z</time>
      </trkpt>
      <trkpt lat="44.24257" lon="3.75056">
        <ele>1010.198</ele>
        <time>2011-09-18T08:05:45Z</time>
      </trkpt>
      <trkpt lat="44.24259" lon="3.75074">
        <ele>1010.052</ele>
        <time>2011-09-18T08:05:55Z</time>
      </trkpt>
      <trkpt lat="44.24263" lon="3.75089">
        <ele>1010.27</ele>
        <time>2011-09-18T08:06:05Z</time>
      </trkpt>
      <trkpt lat="44.24263" lon="3.75105">
        <ele>1010.042</ele>
        <time>2011-09-18T08:06:15Z</time>
      </trkpt>
      <trkpt lat="44.24268" lon="3.75114">
        <ele>1010.285</ele>
        <time>2011-09-18T08:06:25Z</time>
      </trkpt>
      <trkpt lat="44.24273" lon="3.75135">
        <ele>1010.291</ele>
        <time>2011-09-18T08:06:35Z</time>
      </trkpt>
      <trkpt lat="44.24272" lon="3.75149">
        <ele>1010.629</ele>
        <time>2011-09-18T08:06:45Z</time>
      </trkpt>
      <trkpt lat="44.24264" lon="3.7517">
        <ele>1010.718</ele>
        <time>2011-09-18T08:06:55Z</time>
      </trkpt>
      <trkpt lat="44.24254" lon="3.75183">
        <ele>1011.019</ele>
        <time>2011-09-18T08:07:05Z</time>
      </trkpt>
      <trkpt lat="44.24247" lon="3.75185">
        <ele>1011.405</ele>
        <time>2011-09-18T08:07:15Z</time>
      </trkpt>
      <trkpt lat="44.24241" lon="3.75212">
        <ele>1010.659</ele>
        <time>2011-09-18T08:07:25Z</time>
      </trkpt>
      <trkpt lat="44.24231" lon="3.75214">
        <ele>1008.744</ele>
        <time>2011-09-18T08:07:35Z</time>
      </trkpt>
      <trkpt lat="44.24221" lon="3.75223">
        <ele>1007.246</ele>
        <time>2011-09-18T08:07:45Z</time>
      </trkpt>
      <trkpt lat="44.24213" lon="3.75244">
        <ele>1006.252</ele>
        <time>2011-09-18T08:07:55Z</time>
      </trkpt>
      <trkpt lat="44.24203" lon="3.7526">
        <ele>1006.078</ele>
        <time>2011-09-18T08:08:05Z</time>
      </trkpt>
      <trkpt lat="44.24194" lon="3.75264">
        <ele>1005.333</ele>
        <time>2011-09-18T08:08:15Z</time>
      </trkpt>
      <trkpt lat="44.24187" lon="3.75268">
        <ele>1004.867</ele>
        <time>2011-09-18T08:08:25Z</time>
      </trkpt>
      <trkpt lat="44.24177" lon="3.75272">
        <ele>1004.426</ele>
        <time>2011-09-18T08:08:35Z</time>
      </trkpt>
      <trkpt lat="44.24175" lon="3.75291">
        <ele>1003.367</ele>
        <time>2011-09-18T08:08:45Z</time>
      </trkpt>
      <trkpt lat="44.24176" lon="3.75291">
        <ele>1001.944</ele>
        <time>2011-09-18T08:08:55Z</time>
      </trkpt>
      <trkpt lat="44.24176" lon="3.75292">
        <ele>1002.143</ele>
        <time>2011-09-18T08:09:05Z</time>
      </trkpt>
      <trkpt lat="44.24184" lon="3.75302">
        <ele>1003.363</ele>
        <time>2011-09-18T08:09:15Z</time>
      </trkpt>
      <trkpt lat="44.24184" lon="3.75302">
        <ele>1004.475</ele>
        <time>2011-09-18T08:09:25Z</time>
      </trkpt>
      <trkpt lat="44.24185" lon="3.75302">
        <ele>1004.229</ele>
        <time>2011-09-18T08:09:35Z</time>
      </trkpt>
      <trkpt lat="44.24186" lon="3.75302">
        <ele>1005.193</ele>
        <time>2011-09-18T08:09:45Z</time>
      </trkpt>
      <trkpt lat="44.24187" lon="3.75305">
        <ele>1004.477</ele>
        <time>2011-09-18T08:09:55Z</time>
      </trkpt>
      <trkpt lat="44.24188" lon="3.75305">
        <ele>1004.886</ele>
        <time>2011-09-18T08:10:05Z</time>
      </trkpt>
      <trkpt lat="44.24186" lon="3.75305">
        <ele>1004.002</ele>
        <time>2011-09-18T08:10:15Z</time>
      </trkpt>
      <trkpt lat="44.24186" lon="3.75304">
        <ele>1003.887</ele>
        <time>2011-09-18T08:10:25Z</time>
      </trkpt>
      <trkpt lat="44.24194" lon="3.75305">
        <ele>1005.557</ele>
        <time>2011-09-18T08:10:35Z</time>
      </trkpt>
      <trkpt lat="44.242" lon="3.75297">
        <ele>1006.98</ele>
        <time>2011-09-18T08:10:45Z</time>
      </trkpt>
      <trkpt lat="44.24208" lon="3.75293">
        <ele>1006.579</ele>
        <time>2011-09-18T08:10:55Z</time>
      </trkpt>
      <trkpt lat="44.24211" lon="3.75288">
        <ele>1007.104</ele>
        <time>2011-09-18T08:11:05Z</time>
      </trkpt>
      <trkpt lat="44.24217" lon="3.75281">
        <ele>1007.277</ele>
        <time>2011-09-18T08:11:15Z</time>
      </trkpt>
      <trkpt lat="44.24225" lon="3.75275">
        <ele>1007.638</ele>
        <time>2011-09-18T08:11:25Z</time>
      </trkpt>
      <trkpt lat="44.24226" lon="3.75272">
        <ele>1008.013</ele>
        <time>2011-09-18T08:11:35Z</time>
      </trkpt>
      <trkpt lat="44.24225" lon="3.75263">
        <ele>1008.839</ele>
        <time>2011-09-18T08:11:45Z</time>
      </trkpt>
      <trkpt lat="44.24229" lon="3.75263">
        <ele>1007.851</ele>
        <time>2011-09-18T08:11:55Z</time>
      </trkpt>
      <trkpt lat="44.24227" lon="3.7526">
        <ele>1008.645</ele>
        <time>2011-09-18T08:12:05Z</time>
      </trkpt>
      <trkpt lat="44.24227" lon="3.75261">
        <ele>1009.038</ele>
        <time>2011-09-18T08:12:15Z</time>
      </trkpt>
      <trkpt lat="44.24227" lon="3.75259">
        <ele>1010.232</ele>
        <time>2011-09-18T08:12:25Z</time>
      </trkpt>
      <trkpt lat="44.24233" lon="3.75249">
        <ele>1010.661</ele>
        <time>2011-09-18T08:12:35Z</time>
      </trkpt>
      <trkpt lat="44.24241" lon="3.75238">
        <ele>1010.53</ele>
        <time>2011-09-18T08:12:45Z</time>
      </trkpt>
      <trkpt lat="44.24249" lon="3.75231">
        <ele>1011.337</ele>
        <time>2011-09-18T08:12:55Z</time>
      </trkpt>
      <trkpt lat="44.24255" lon="3.75224">
        <ele>1013.081</ele>
        <time>2011-09-18T08:13:05Z</time>
      </trkpt>
      <trkpt lat="44.2426" lon="3.75213">
        <ele>1013.696</ele>
        <time>2011-09-18T08:13:15Z</time>
      </trkpt>
      <trkpt lat="44.24272" lon="3.75197">
        <ele>1013.914</ele>
        <time>2011-09-18T08:13:25Z</time>
      </trkpt>
      <trkpt lat="44.2428" lon="3.75193">
        <ele>1013.799</ele>
        <time>2011-09-18T08:13:35Z</time>
      </trkpt>
      <trkpt lat="44.24285" lon="3.75188">
        <ele>1014.381</ele>
        <time>2011-09-18T08:13:45Z</time>
      </trkpt>
      <trkpt lat="44.24289" lon="3.75177">
        <ele>1014.391</ele>
        <time>2011-09-18T08:13:55Z</time>
      </trkpt>
      <trkpt lat="44.24284" lon="3.75172">
        <ele>1013.917</ele>
        <time>2011-09-18T08:14:05Z</time>
      </trkpt>
      <trkpt lat="44.24279" lon="3.75171">
        <ele>1014.355</ele>
        <time>2011-09-18T08:14:15Z</time>
      </trkpt>
      <trkpt lat="44.24279" lon="3.7517">
        <ele>1015.214</ele>
        <time>2011-09-18T08:14:25Z</time>
      </trkpt>
      <trkpt lat="44.24277" lon="3.75171">
        <ele>1015.424</ele>
        <time>2011-09-18T08:14:35Z</time>
      </trkpt>
      <trkpt lat="44.24279" lon="3.75165">
        <ele>1014.888</ele>
        <time>2011-09-18T08:14:45Z</time>
      </trkpt>
      <trkpt lat="44.24286" lon="3.75163">
        <ele>1014.643</ele>
        <time>2011-09-18T08:14:55Z</time>
      </trkpt>
      <trkpt lat="44.24282" lon="3.75163">
        <ele>1013.963</ele>
        <time>2011-09-18T08:15:05Z</time>
      </trkpt>
      <trkpt lat="44.24281" lon="3.75165">
        <ele>1014.216</ele>
        <time>2011-09-18T08:15:15Z</time>
      </trkpt>
      <trkpt lat="44.24281" lon="3.75174">
        <ele>1014.581</ele>
        <time>2011-09-18T08:15:25Z</time>
      </trkpt>
      <trkpt lat="44.24283" lon="3.75169">
        <ele>1014.92</ele>
        <time>2011-09-18T08:15:35Z</time>
      </trkpt>
      <trkpt lat="44.24282" lon="3.75171">
        <ele>1014.873</ele>
        <time>2011-09-18T08:15:45Z</time>
      </trkpt>
      <trkpt lat="44.24285" lon="3.75172">
        <ele>1014.577</ele>
        <time>2011-09-18T08:15:55Z</time>
      </trkpt>
      <trkpt lat="44.24288" lon="3.75166">
        <ele>1016.051</ele>
        <time>2011-09-18T08:16:05Z</time>
      </trkpt>
      <trkpt lat="44.24286" lon="3.75165">
        <ele>1015.718</ele>
        <time>2011-09-18T08:16:15Z</time>
      </trkpt>
      <trkpt lat="44.24286" lon="3.75166">
        <ele>1016.271</ele>
        <time>2011-09-18T08:16:25Z</time>
      </trkpt>
      <trkpt lat="44.24288" lon="3.75167">
        <ele>1016.361</ele>
        <time>2011-09-18T08:16:35Z</time>
      </trkpt>
      <trkpt lat="44.2429" lon="3.75169">
        <ele>1016.638</ele>
        <time>2011-09-18T08:16:45Z</time>
      </trkpt>
      <trkpt lat="44.24293" lon="3.75176">
        <ele>1016.757</ele>
        <time>2011-09-18T08:16:55Z</time>
      </trkpt>
      <trkpt lat="44.24288" lon="3.75175">
        <ele>1015.94</ele>
        <time>2011-09-18T08:17:05Z</time>
      </trkpt>
      <trkpt lat="44.24286" lon="3.75177">
        <ele>1016.157</ele>
        <time>2011-09-18T08:17:15Z</time>
      </trkpt>
      <trkpt lat="44.2428" lon="3.75182">
        <ele>1015.927</ele>
        <time>2011-09-18T08:17:25Z</time>
      </trkpt>
      <trkpt lat="44.24284" lon="3.75178">
        <ele>1016.033</ele>
        <time>2011-09-18T08:17:35Z</time>
      </trkpt>
      <trkpt lat="44.24285" lon="3.75179">
        <ele>1016.398</ele>
        <time>2011-09-18T08:17:45Z</time>
      </trkpt>
      <trkpt lat="44.24282" lon="3.7518">
        <ele>1015.449</ele>
        <time>2011-09-18T08:17:55Z</time>
      </trkpt>
      <trkpt lat="44.24271" lon="3.75174">
        <ele>1015.021</ele>
        <time>2011-09-18T08:18:05Z</time>
      </trkpt>
      <trkpt lat="44.24272" lon="3.75175">
        <ele>1015.821</ele>
        <time>2011-09-18T08:18:15Z</time>
      </trkpt>
      <trkpt lat="44.24272" lon="3.75175">
        <ele>1016.878</ele>
        <time>2011-09-18T08:18:25Z</time>
      </trkpt>
      <trkpt lat="44.24272" lon="3.75174">
        <ele>1015.713</ele>
        <time>2011-09-18T08:18:35Z</time>
      </trkpt>
      <trkpt lat="44.24272" lon="3.75174">
        <ele>1014.823</ele>
        <time>2011-09-18T08:18:45Z</time>
      </trkpt>
      <trkpt lat="44.2427" lon="3.75171">
        <ele>1015.346</ele>
        <time>2011-09-18T08:18:55Z</time>
      </trkpt>
      <trkpt lat="44.24269" lon="3.7517">
        <ele>1016.559</ele>
        <time>2011-09-18T08:19:05Z</time>
      </trkpt>
      <trkpt lat="44.24269" lon="3.7517">
        <ele>1016.564</ele>
        <time>2011-09-18T08:19:15Z</time>
      </trkpt>
      <trkpt lat="44.24269" lon="3.7517">
        <ele>1016.962</ele>
        <time>2011-09-18T08:19:25Z</time>
      </trkpt>
      <trkpt lat="44.2427" lon="3.75168">
        <ele>1017.531</ele>
        <time>2011-09-18T08:19:35Z</time>
      </trkpt>
      <trkpt lat="44.24271" lon="3.75154">
        <ele>1017.853</ele>
        <time>2011-09-18T08:19:45Z</time>
      </trkpt>
      <trkpt lat="44.24274" lon="3.75138">
        <ele>1017.943</ele>
        <time>2011-09-18T08:19:55Z</time>
      </trkpt>
      <trkpt lat="44.24275" lon="3.75118">
        <ele>1018.297</ele>
        <time>2011-09-18T08:20:05Z</time>
      </trkpt>
      <trkpt lat="44.24276" lon="3.75105">
        <ele>1019.109</ele>
        <time>2011-09-18T08:20:15Z</time>
      </trkpt>
      <trkpt lat="44.24277" lon="3.75088">
        <ele>1019.254</ele>
        <time>2011-09-18T08:20:25Z</time>
      </trkpt>
      <trkpt lat="44.24277" lon="3.75071">
        <ele>1018.767</ele>
        <time>2011-09-18T08:20:35Z</time>
      </trkpt>
      <trkpt lat="44.24278" lon="3.75051">
        <ele>1019.324</ele>
        <time>2011-09-18T08:20:45Z</time>
      </trkpt>
      <trkpt lat="44.24273" lon="3.75034">
        <ele>1019.656</ele>
        <time>2011-09-18T08:20:55Z</time>
      </trkpt>
      <trkpt lat="44.2427" lon="3.75022">
        <ele>1019.067</ele>
        <time>2011-09-18T08:21:05Z</time>
      </trkpt>
      <trkpt lat="44.24255" lon="3.74994">
        <ele>1020.116</ele>
        <time>2011-09-18T08:21:15Z</time>
      </trkpt>
      <trkpt lat="44.24255" lon="3.74981">
        <ele>1020.883</ele>
        <time>2011-09-18T08:21:25Z</time>
      </trkpt>
      <trkpt lat="44.24254" lon="3.74964">
        <ele>1022.13</ele>
        <time>2011-09-18T08:21:35Z</time>
      </trkpt>
      <trkpt lat="44.24252" lon="3.74964">
        <ele>1023.107</ele>
        <time>2011-09-18T08:21:45Z</time>
      </trkpt>
      <trkpt lat="44.24252" lon="3.74964">
        <ele>1022.523</ele>
        <time>2011-09-18T08:21:55Z</time>
      </trkpt>
      <trkpt lat="44.24252" lon="3.74965">
        <ele>1022.531</ele>
        <time>2011-09-18T08:22:05Z</time>
      </trkpt>
      <trkpt lat="44.24252" lon="3.74965">
        <ele>1022.37</ele>
        <time>2011-09-18T08:22:15Z</time>
      </trkpt>
      <trkpt lat="44.24251" lon="3.74966">
        <ele>1022.489</ele>
        <time>2011-09-18T08:22:25Z</time>
      </trkpt>
      <trkpt lat="44.24251" lon="3.74966">
        <ele>1022.426</ele>
        <time>2011-09-18T08:22:35Z</time>
      </trkpt>
      <trkpt lat="44.24251" lon="3.74966">
        <ele>1022.814</ele>
        <time>2011-09-18T08:22:45Z</time>
      </trkpt>
      <trkpt lat="44.24252" lon="3.74963">
        <ele>1022.992</ele>
        <time>2011-09-18T08:22:55Z</time>
      </trkpt>
      <trkpt lat="44.24253" lon="3.7496">
        <ele>1022.717</ele>
        <time>2011-09-18T08:23:05Z</time>
      </trkpt>
      <trkpt lat="44.24254" lon="3.74962">
        <ele>1022.928</ele>
        <time>2011-09-18T08:23:15Z</time>
      </trkpt>
      <trkpt lat="44.24254" lon="3.74963">
        <ele>1021.846</ele>
        <time>2011-09-18T08:23:25Z</time>
      </trkpt>
      <trkpt lat="44.24254" lon="3.74964">
        <ele>1023.276</ele>
        <time>2011-09-18T08:23:35Z</time>
      </trkpt>
      <trkpt lat="44.24254" lon="3.74964">
        <ele>1024.833</ele>
        <time>2011-09-18T08:23:45Z</time>
      </trkpt>
      <trkpt lat="44.24254" lon="3.74964">
        <ele>1024.366</ele>
        <time>2011-09-18T08:23:55Z</time>
      </trkpt>
      <trkpt lat="44.24254" lon="3.74964">
        <ele>1023.873</ele>
        <time>2011-09-18T08:24:05Z</time>
      </trkpt>
      <trkpt lat="44.24254" lon="3.74964">
        <ele>1024.768</ele>
        <time>2011-09-18T08:24:15Z</time>
      </trkpt>
      <trkpt lat="44.24254" lon="3.74964">
        <ele>1024.022</ele>
        <time>2011-09-18T08:24:25Z</time>
      </trkpt>
      <trkpt lat="44.24254" lon="3.74964">
        <ele>1024.182</ele>
        <time>2011-09-18T08:24:35Z</time>
      </trkpt>
      <trkpt lat="44.24254" lon="3.74964">
        <ele>1024.658</ele>
        <time>2011-09-18T08:24:45Z</time>
      </trkpt>
      <trkpt lat="44.24254" lon="3.74964">
        <ele>1024.728</ele>
        <time>2011-09-18T08:24:55Z</time>
      </trkpt>
      <trkpt lat="44.24254" lon="3.74965">
        <ele>1025.305</ele>
        <time>2011-09-18T08:25:05Z</time>
      </trkpt>
      <trkpt lat="44.24254" lon="3.74965">
        <ele>1025.408</ele>
        <time>2011-09-18T08:25:15Z</time>
      </trkpt>
      <trkpt lat="44.24255" lon="3.74969">
        <ele>1025.878</ele>
        <time>2011-09-18T08:25:25Z</time>
      </trkpt>
      <trkpt lat="44.24258" lon="3.74979">
        <ele>1026.079</ele>
        <time>2011-09-18T08:25:35Z</time>
      </trkpt>
      <trkpt lat="44.24263" lon="3.74978">
        <ele>1026.134</ele>
        <time>2011-09-18T08:25:45Z</time>
      </trkpt>
      <trkpt lat="44.24266" lon="3.74978">
        <ele>1027.206</ele>
        <time>2011-09-18T08:25:55Z</time>
      </trkpt>
      <trkpt lat="44.24267" lon="3.74977">
        <ele>1027.689</ele>
        <time>2011-09-18T08:26:05Z</time>
      </trkpt>
      <trkpt lat="44.24269" lon="3.74979">
        <ele>1027.199</ele>
        <time>2011-09-18T08:26:15Z</time>
      </trkpt>
      <trkpt lat="44.24274" lon="3.74986">
        <ele>1028.248</ele>
        <time>2011-09-18T08:26:25Z</time>
      </trkpt>
      <trkpt lat="44.24272" lon="3.74986">
        <ele>1028.761</ele>
        <time>2011-09-18T08:26:35Z</time>
      </trkpt>
      <trkpt lat="44.24272" lon="3.74986">
        <ele>1028.997</ele>
        <time>2011-09-18T08:26:45Z</time>
      </trkpt>
      <trkpt lat="44.24272" lon="3.74986">
        <ele>1028.558</ele>
        <time>2011-09-18T08:26:55Z</time>
      </trkpt>
      <trkpt lat="44.24271" lon="3.74987">
        <ele>1030.022</ele>
        <time>2011-09-18T08:27:05Z</time>
      </trkpt>
      <trkpt lat="44.24269" lon="3.74988">
        <ele>1029.022</ele>
        <time>2011-09-18T08:27:15Z</time>
      </trkpt>
      <trkpt lat="44.24268" lon="3.74989">
        <ele>1028.639</ele>
        <time>2011-09-18T08:27:25Z</time>
      </trkpt>
      <trkpt lat="44.24268" lon="3.74989">
        <ele>1028.08</ele>
        <time>2011-09-18T08:27:35Z</time>
      </trkpt>
      <trkpt lat="44.24268" lon="3.7499">
        <ele>1028.612</ele>
        <time>2011-09-18T08:27:45Z</time>
      </trkpt>
      <trkpt lat="44.24267" lon="3.7499">
        <ele>1029.02</ele>
        <time>2011-09-18T08:27:55Z</time>
      </trkpt>
      <trkpt lat="44.24267" lon="3.74991">
        <ele>1028.353</ele>
        <time>2011-09-18T08:28:05Z</time>
      </trkpt>
      <trkpt lat="44.24267" lon="3.74991">
        <ele>1027.965</ele>
        <time>2011-09-18T08:28:15Z</time>
      </trkpt>
      <trkpt lat="44.24267" lon="3.74991">
        <ele>1028.608</ele>
        <time>2011-09-18T08:28:25Z</time>
      </trkpt>
      <trkpt lat="44.24268" lon="3.74999">
        <ele>1028.568</ele>
        <time>2011-09-18T08:28:35Z</time>
      </trkpt>
      <trkpt lat="44.24274" lon="3.75009">
        <ele>1029.595</ele>
        <time>2011-09-18T08:28:45Z</time>
      </trkpt>
      <trkpt lat="44.24278" lon="3.75023">
        <ele>1029.351</ele>
        <time>2011-09-18T08:28:55Z</time>
      </trkpt>
      <trkpt lat="44.24285" lon="3.75038">
        <ele>1030.044</ele>
        <time>2011-09-18T08:29:05Z</time>
      </trkpt>
      <trkpt lat="44.24292" lon="3.75048">
        <ele>1030.992</ele>
        <time>2011-09-18T08:29:15Z</time>
      </trkpt>
      <trkpt lat="44.24294" lon="3.75057">
        <ele>1032.977</ele>
        <time>2011-09-18T08:29:25Z</time>
      </trkpt>
      <trkpt lat="44.24297" lon="3.75072">
        <ele>1033.21</ele>
        <time>2011-09-18T08:29:35Z</time>
      </trkpt>
      <trkpt lat="44.24308" lon="3.75084">
        <ele>1033.999</ele>
        <time>2011-09-18T08:29:45Z</time>
      </trkpt>
      <trkpt lat="44.24308" lon="3.75095">
        <ele>1034.129</ele>
        <time>2011-09-18T08:29:55Z</time>
      </trkpt>
      <trkpt lat="44.2431" lon="3.75113">
        <ele>1034.956</ele>
        <time>2011-09-18T08:30:05Z</time>
      </trkpt>
      <trkpt lat="44.24317" lon="3.75124">
        <ele>1036.42</ele>
        <time>2011-09-18T08:30:15Z</time>
      </trkpt>
      <trkpt lat="44.24318" lon="3.75137">
        <ele>1037.045</ele>
        <time>2011-09-18T08:30:25Z</time>
      </trkpt>
      <trkpt lat="44.24322" lon="3.75153">
        <ele>1036.839</ele>
        <time>2011-09-18T08:30:35Z</time>
      </trkpt>
      <trkpt lat="44.24326" lon="3.75164">
        <ele>1037.502</ele>
        <time>2011-09-18T08:30:45Z</time>
      </trkpt>
      <trkpt lat="44.24326" lon="3.75177">
        <ele>1038.019</ele>
        <time>2011-09-18T08:30:55Z</time>
      </trkpt>
      <trkpt lat="44.24324" lon="3.75192">
        <ele>1039.188</ele>
        <time>2011-09-18T08:31:05Z</time>
      </trkpt>
      <trkpt lat="44.2432" lon="3.75208">
        <ele>1039.841</ele>
        <time>2011-09-18T08:31:15Z</time>
      </trkpt>
      <trkpt lat="44.24311" lon="3.75223">
        <ele>1040.698</ele>
        <time>2011-09-18T08:31:25Z</time>
      </trkpt>
      <trkpt lat="44.24309" lon="3.75237">
        <ele>1040.174</ele>
        <time>2011-09-18T08:31:35Z</time>
      </trkpt>
      <trkpt lat="44.24309" lon="3.75239">
        <ele>1039.345</ele>
        <time>2011-09-18T08:31:45Z</time>
      </trkpt>
      <trkpt lat="44.24308" lon="3.75239">
        <ele>1039.058</ele>
        <time>2011-09-18T08:31:55Z</time>
      </trkpt>
      <trkpt lat="44.24307" lon="3.75239">
        <ele>1039.696</ele>
        <time>2011-09-18T08:32:05Z</time>
      </trkpt>
      <trkpt lat="44.24307" lon="3.7524">
        <ele>1040.949</ele>
        <time>2011-09-18T08:32:15Z</time>
      </trkpt>
      <trkpt lat="44.24308" lon="3.75241">
        <ele>1040.878</ele>
        <time>2011-09-18T08:32:25Z</time>
      </trkpt>
      <trkpt lat="44.24309" lon="3.75241">
        <ele>1040.285</ele>
        <time>2011-09-18T08:32:35Z</time>
      </trkpt>
      <trkpt lat="44.24309" lon="3.75241">
        <ele>1040.04</ele>
        <time>2011-09-18T08:32:45Z</time>
      </trkpt>
      <trkpt lat="44.24308" lon="3.75242">
        <ele>1039.529</ele>
        <time>2011-09-18T08:32:55Z</time>
      </trkpt>
      <trkpt lat="44.2431" lon="3.75243">
        <ele>1040.288</ele>
        <time>2011-09-18T08:33:05Z</time>
      </trkpt>
      <trkpt lat="44.2431" lon="3.75244">
        <ele>1039.329</ele>
        <time>2011-09-18T08:33:15Z</time>
      </trkpt>
      <trkpt lat="44.24311" lon="3.75243">
        <ele>1039.065</ele>
        <time>2011-09-18T08:33:25Z</time>
      </trkpt>
      <trkpt lat="44.24311" lon="3.75243">
        <ele>1038.772</ele>
        <time>2011-09-18T08:33:35Z</time>
      </trkpt>
      <trkpt lat="44.2431" lon="3.75243">
        <ele>1039.077</ele>
        <time>2011-09-18T08:33:45Z</time>
      </trkpt>
      <trkpt lat="44.24309" lon="3.75243">
        <ele>1039.42</ele>
        <time>2011-09-18T08:33:55Z</time>
      </trkpt>
      <trkpt lat="44.2431" lon="3.75232">
        <ele>1039.773</ele>
        <time>2011-09-18T08:34:05Z</time>
      </trkpt>
      <trkpt lat="44.2431" lon="3.75227">
        <ele>1039.118</ele>
        <time>2011-09-18T08:34:15Z</time>
      </trkpt>
      <trkpt lat="44.2431" lon="3.75228">
        <ele>1038.464</ele>
        <time>2011-09-18T08:34:25Z</time>
      </trkpt>
      <trkpt lat="44.24312" lon="3.75229">
        <ele>1038.429</ele>
        <time>2011-09-18T08:34:35Z</time>
      </trkpt>
      <trkpt lat="44.24312" lon="3.75231">
        <ele>1038.767</ele>
        <time>2011-09-18T08:34:45Z</time>
      </trkpt>
      <trkpt lat="44.24311" lon="3.75231">
        <ele>1039.627</ele>
        <time>2011-09-18T08:34:55Z</time>
      </trkpt>
      <trkpt lat="44.24309" lon="3.75238">
        <ele>1039.755</ele>
        <time>2011-09-18T08:35:05Z</time>
      </trkpt>
      <trkpt lat="44.24311" lon="3.75251">
        <ele>1041.068</ele>
        <time>2011-09-18T08:35:15Z</time>
      </trkpt>
      <trkpt lat="44.2431" lon="3.75255">
        <ele>1040.102</ele>
        <time>2011-09-18T08:35:25Z</time>
      </trkpt>
      <trkpt lat="44.24317" lon="3.75255">
        <ele>1039.827</ele>
        <time>2011-09-18T08:35:35Z</time>
      </trkpt>
      <trkpt lat="44.24319" lon="3.75254">
        <ele>1040.47</ele>
        <time>2011-09-18T08:35:45Z</time>
      </trkpt>
      <trkpt lat="44.24318" lon="3.75254">
        <ele>1041.169</ele>
        <time>2011-09-18T08:35:55Z</time>
      </trkpt>
      <trkpt lat="44.24318" lon="3.75254">
        <ele>1040.091</ele>
        <time>2011-09-18T08:36:05Z</time>
      </trkpt>
      <trkpt lat="44.24316" lon="3.75255">
        <ele>1039.635</ele>
        <time>2011-09-18T08:36:15Z</time>
      </trkpt>
      <trkpt lat="44.24313" lon="3.75249">
        <ele>1040.651</ele>
        <time>2011-09-18T08:36:25Z</time>
      </trkpt>
      <trkpt lat="44.24313" lon="3.75249">
        <ele>1041.32</ele>
        <time>2011-09-18T08:36:35Z</time>
      </trkpt>
      <trkpt lat="44.24313" lon="3.75248">
        <ele>1040.829</ele>
        <time>2011-09-18T08:36:45Z</time>
      </trkpt>
      <trkpt lat="44.24313" lon="3.75245">
        <ele>1040.698</ele>
        <time>2011-09-18T08:36:55Z</time>
      </trkpt>
      <trkpt lat="44.24313" lon="3.75227">
        <ele>1040.279</ele>
        <time>2011-09-18T08:37:05Z</time>
      </trkpt>
      <trkpt lat="44.24316" lon="3.75211">
        <ele>1037.889</ele>
        <time>2011-09-18T08:37:15Z</time>
      </trkpt>
      <trkpt lat="44.24317" lon="3.75195">
        <ele>1035.962</ele>
        <time>2011-09-18T08:37:25Z</time>
      </trkpt>
      <trkpt lat="44.24318" lon="3.75177">
        <ele>1035.831</ele>
        <time>2011-09-18T08:37:35Z</time>
      </trkpt>
      <trkpt lat="44.24317" lon="3.7516">
        <ele>1035.515</ele>
        <time>2011-09-18T08:37:45Z</time>
      </trkpt>
      <trkpt lat="44.24313" lon="3.75143">
        <ele>1034.805</ele>
        <time>2011-09-18T08:37:55Z</time>
      </trkpt>
      <trkpt lat="44.2431" lon="3.75126">
        <ele>1033.897</ele>
        <time>2011-09-18T08:38:05Z</time>
      </trkpt>
      <trkpt lat="44.24305" lon="3.75113">
        <ele>1032.703</ele>
        <time>2011-09-18T08:38:15Z</time>
      </trkpt>
      <trkpt lat="44.243" lon="3.75097">
        <ele>1032.146</ele>
        <time>2011-09-18T08:38:25Z</time>
      </trkpt>
      <trkpt lat="44.24296" lon="3.75082">
        <ele>1031.393</ele>
        <time>2011-09-18T08:38:35Z</time>
      </trkpt>
      <trkpt lat="44.24296" lon="3.75071">
        <ele>1030.228</ele>
        <time>2011-09-18T08:38:45Z</time>
      </trkpt>
      <trkpt lat="44.24295" lon="3.75063">
        <ele>1029.305</ele>
        <time>2011-09-18T08:38:55Z</time>
      </trkpt>
      <trkpt lat="44.24294" lon="3.75049">
        <ele>1029.843</ele>
        <time>2011-09-18T08:39:05Z</time>
      </trkpt>
      <trkpt lat="44.24294" lon="3.75034">
        <ele>1027.004</ele>
        <time>2011-09-18T08:39:15Z</time>
      </trkpt>
      <trkpt lat="44.2429" lon="3.75023">
        <ele>1025.961</ele>
        <time>2011-09-18T08:39:25Z</time>
      </trkpt>
      <trkpt lat="44.24283" lon="3.75013">
        <ele>1025.805</ele>
        <time>2011-09-18T08:39:35Z</time>
      </trkpt>
      <trkpt lat="44.24279" lon="3.75003">
        <ele>1025.62</ele>
        <time>2011-09-18T08:39:45Z</time>
      </trkpt>
      <trkpt lat="44.24276" lon="3.74993">
        <ele>1025.335</ele>
        <time>2011-09-18T08:39:55Z</time>
      </trkpt>
      <trkpt lat="44.24274" lon="3.74985">
        <ele>1023.904</ele>
        <time>2011-09-18T08:40:05Z</time>
      </trkpt>
      <trkpt lat="44.24268" lon="3.74971">
        <ele>1023.251</ele>
        <time>2011-09-18T08:40:15Z</time>
      </trkpt>
      <trkpt lat="44.24262" lon="3.74959">
        <ele>1022.172</ele>
        <time>2011-09-18T08:40:25Z</time>
      </trkpt>
      <trkpt lat="44.24263" lon="3.74959">
        <ele>1021.84</ele>
        <time>2011-09-18T08:40:35Z</time>
      </trkpt>
      <trkpt lat="44.24263" lon="3.74959">
        <ele>1021.44</ele>
        <time>2011-09-18T08:40:45Z</time>
      </trkpt>
      <trkpt lat="44.24259" lon="3.74956">
        <ele>1021.856</ele>
        <time>2011-09-18T08:40:55Z</time>
      </trkpt>
      <trkpt lat="44.24259" lon="3.74959">
        <ele>1021.66</ele>
        <time>2011-09-18T08:41:05Z</time>
      </trkpt>
      <trkpt lat="44.24267" lon="3.74959">
        <ele>1020.61</ele>
        <time>2011-09-18T08:41:15Z</time>
      </trkpt>
      <trkpt lat="44.24269" lon="3.74959">
        <ele>1020.916</ele>
        <time>2011-09-18T08:41:25Z</time>
      </trkpt>
      <trkpt lat="44.24272" lon="3.7496">
        <ele>1021.555</ele>
        <time>2011-09-18T08:41:35Z</time>
      </trkpt>
      <trkpt lat="44.24273" lon="3.74972">
        <ele>1022.508</ele>
        <time>2011-09-18T08:41:45Z</time>
      </trkpt>
      <trkpt lat="44.24273" lon="3.74983">
        <ele>1022.876</ele>
        <time>2011-09-18T08:41:55Z</time>
      </trkpt>
      <trkpt lat="44.2428" lon="3.74992">
        <ele>1023.293</ele>
        <time>2011-09-18T08:42:05Z</time>
      </trkpt>
      <trkpt lat="44.24285" lon="3.75002">
        <ele>1023.558</ele>
        <time>2011-09-18T08:42:15Z</time>
      </trkpt>
      <trkpt lat="44.24287" lon="3.7501">
        <ele>1023.365</ele>
        <time>2011-09-18T08:42:25Z</time>
      </trkpt>
      <trkpt lat="44.24296" lon="3.75018">
        <ele>1023.9</ele>
        <time>2011-09-18T08:42:35Z</time>
      </trkpt>
      <trkpt lat="44.24301" lon="3.75031">
        <ele>1024.967</ele>
        <time>2011-09-18T08:42:45Z</time>
      </trkpt>
      <trkpt lat="44.24306" lon="3.75044">
        <ele>1024.954</ele>
        <time>2011-09-18T08:42:55Z</time>
      </trkpt>
      <trkpt lat="44.24307" lon="3.75054">
        <ele>1025.805</ele>
        <time>2011-09-18T08:43:05Z</time>
      </trkpt>
      <trkpt lat="44.24309" lon="3.75069">
        <ele>1026.884</ele>
        <time>2011-09-18T08:43:15Z</time>
      </trkpt>
      <trkpt lat="44.24315" lon="3.7508">
        <ele>1027.142</ele>
        <time>2011-09-18T08:43:25Z</time>
      </trkpt>
      <trkpt lat="44.2432" lon="3.75088">
        <ele>1027.303</ele>
        <time>2011-09-18T08:43:35Z</time>
      </trkpt>
      <trkpt lat="44.24323" lon="3.75098">
        <ele>1028.27</ele>
        <time>2011-09-18T08:43:45Z</time>
      </trkpt>
      <trkpt lat="44.2433" lon="3.75109">
        <ele>1028.605</ele>
        <time>2011-09-18T08:43:55Z</time>
      </trkpt>
      <trkpt lat="44.2433" lon="3.75117">
        <ele>1028.629</ele>
        <time>2011-09-18T08:44:05Z</time>
      </trkpt>
      <trkpt lat="44.24332" lon="3.75127">
        <ele>1029.854</ele>
        <time>2011-09-18T08:44:15Z</time>
      </trkpt>
      <trkpt lat="44.24332" lon="3.75139">
        <ele>1029.624</ele>
        <time>2011-09-18T08:44:25Z</time>
      </trkpt>
      <trkpt lat="44.2433" lon="3.7515">
        <ele>1029.949</ele>
        <time>2011-09-18T08:44:35Z</time>
      </trkpt>
      <trkpt lat="44.24332" lon="3.75162">
        <ele>1029.904</ele>
        <time>2011-09-18T08:44:45Z</time>
      </trkpt>
      <trkpt lat="44.24336" lon="3.75176">
        <ele>1030.559</ele>
        <time>2011-09-18T08:44:55Z</time>
      </trkpt>
      <trkpt lat="44.24334" lon="3.75191">
        <ele>1031.259</ele>
        <time>2011-09-18T08:45:05Z</time>
      </trkpt>
      <trkpt lat="44.24334" lon="3.75208">
        <ele>1032.602</ele>
        <time>2011-09-18T08:45:15Z</time>
      </trkpt>
      <trkpt lat="44.24325" lon="3.75219">
        <ele>1033.105</ele>
        <time>2011-09-18T08:45:25Z</time>
      </trkpt>
      <trkpt lat="44.24324" lon="3.7523">
        <ele>1033.262</ele>
        <time>2011-09-18T08:45:35Z</time>
      </trkpt>
      <trkpt lat="44.24322" lon="3.75236">
        <ele>1033.995</ele>
        <time>2011-09-18T08:45:45Z</time>
      </trkpt>
      <trkpt lat="44.24332" lon="3.75246">
        <ele>1033.977</ele>
        <time>2011-09-18T08:45:55Z</time>
      </trkpt>
      <trkpt lat="44.24333" lon="3.75247">
        <ele>1034.132</ele>
        <time>2011-09-18T08:46:05Z</time>
      </trkpt>
      <trkpt lat="44.24333" lon="3.75246">
        <ele>1035.016</ele>
        <time>2011-09-18T08:46:15Z</time>
      </trkpt>
      <trkpt lat="44.24332" lon="3.75246">
        <ele>1034.803</ele>
        <time>2011-09-18T08:46:25Z</time>
      </trkpt>
      <trkpt lat="44.24332" lon="3.75246">
        <ele>1034.21</ele>
        <time>2011-09-18T08:46:35Z</time>
      </trkpt>
      <trkpt lat="44.24332" lon="3.75246">
        <ele>1034.234</ele>
        <time>2011-09-18T08:46:45Z</time>
      </trkpt>
      <trkpt lat="44.24332" lon="3.75246">
        <ele>1034.306</ele>
        <time>2011-09-18T08:46:55Z</time>
      </trkpt>
      <trkpt lat="44.24332" lon="3.75246">
        <ele>1034.694</ele>
        <time>2011-09-18T08:47:05Z</time>
      </trkpt>
      <trkpt lat="44.24331" lon="3.75246">
        <ele>1034.519</ele>
        <time>2011-09-18T08:47:15Z</time>
      </trkpt>
      <trkpt lat="44.24331" lon="3.75246">
        <ele>1034.105</ele>
        <time>2011-09-18T08:47:25Z</time>
      </trkpt>
      <trkpt lat="44.24331" lon="3.75246">
        <ele>1033.803</ele>
        <time>2011-09-18T08:47:35Z</time>
      </trkpt>
      <trkpt lat="44.2433" lon="3.75245">
        <ele>1034.229</ele>
        <time>2011-09-18T08:47:45Z</time>
      </trkpt>
      <trkpt lat="44.2433" lon="3.75245">
        <ele>1034.149</ele>
        <time>2011-09-18T08:47:55Z</time>
      </trkpt>
      <trkpt lat="44.24328" lon="3.75244">
        <ele>1034.134</ele>
        <time>2011-09-18T08:48:05Z</time>
      </trkpt>
      <trkpt lat="44.24326" lon="3.75243">
        <ele>1033.427</ele>
        <time>2011-09-18T08:48:15Z</time>
      </trkpt>
      <trkpt lat="44.24325" lon="3.75242">
        <ele>1033.97</ele>
        <time>2011-09-18T08:48:25Z</time>
      </trkpt>
      <trkpt lat="44.24324" lon="3.75242">
        <ele>1034.781</ele>
        <time>2011-09-18T08:48:35Z</time>
      </trkpt>
      <trkpt lat="44.24322" lon="3.75242">
        <ele>1033.779</ele>
        <time>2011-09-18T08:48:45Z</time>
      </trkpt>
      <trkpt lat="44.24319" lon="3.75241">
        <ele>1034.006</ele>
        <time>2011-09-18T08:48:55Z</time>
      </trkpt>
      <trkpt lat="44.24316" lon="3.75241">
        <ele>1033.58</ele>
        <time>2011-09-18T08:49:05Z</time>
      </trkpt>
      <trkpt lat="44.24315" lon="3.7524">
        <ele>1034.453</ele>
        <time>2011-09-18T08:49:15Z</time>
      </trkpt>
      <trkpt lat="44.24315" lon="3.7524">
        <ele>1034.047</ele>
        <time>2011-09-18T08:49:25Z</time>
      </trkpt>
      <trkpt lat="44.24315" lon="3.7524">
        <ele>1033.384</ele>
        <time>2011-09-18T08:49:35Z</time>
      </trkpt>
      <trkpt lat="44.24315" lon="3.7524">
        <ele>1032.647</ele>
        <time>2011-09-18T08:49:45Z</time>
      </trkpt>
      <trkpt lat="44.24314" lon="3.7524">
        <ele>1035.192</ele>
        <time>2011-09-18T08:49:55Z</time>
      </trkpt>
      <trkpt lat="44.24314" lon="3.7524">
        <ele>1033.695</ele>
        <time>2011-09-18T08:50:05Z</time>
      </trkpt>
      <trkpt lat="44.24315" lon="3.7524">
        <ele>1033.819</ele>
        <time>2011-09-18T08:50:15Z</time>
      </trkpt>
      <trkpt lat="44.24315" lon="3.7524">
        <ele>1034.102</ele>
        <time>2011-09-18T08:50:25Z</time>
      </trkpt>
      <trkpt lat="44.24315" lon="3.7524">
        <ele>1033.004</ele>
        <time>2011-09-18T08:50:35Z</time>
      </trkpt>
      <trkpt lat="44.24315" lon="3.7524">
        <ele>1034.982</ele>
        <time>2011-09-18T08:50:45Z</time>
      </trkpt>
      <trkpt lat="44.24315" lon="3.7524">
        <ele>1033.058</ele>
        <time>2011-09-18T08:50:55Z</time>
      </trkpt>
      <trkpt lat="44.24315" lon="3.7524">
        <ele>1033.843</ele>
        <time>2011-09-18T08:51:05Z</time>
      </trkpt>
      <trkpt lat="44.24315" lon="3.75239">
        <ele>1034.12</ele>
        <time>2011-09-18T08:51:15Z</time>
      </trkpt>
      <trkpt lat="44.24315" lon="3.7524">
        <ele>1032.854</ele>
        <time>2011-09-18T08:51:25Z</time>
      </trkpt>
      <trkpt lat="44.24323" lon="3.75243">
        <ele>1033.524</ele>
        <time>2011-09-18T08:51:35Z</time>
      </trkpt>
      <trkpt lat="44.24324" lon="3.75243">
        <ele>1034.421</ele>
        <time>2011-09-18T08:51:45Z</time>
      </trkpt>
      <trkpt lat="44.24323" lon="3.75243">
        <ele>1033.459</ele>
        <time>2011-09-18T08:51:55Z</time>
      </trkpt>
      <trkpt lat="44.24323" lon="3.75242">
        <ele>1033.333</ele>
        <time>2011-09-18T08:52:05Z</time>
      </trkpt>
      <trkpt lat="44.24324" lon="3.75243">
        <ele>1034.817</ele>
        <time>2011-09-18T08:52:15Z</time>
      </trkpt>
      <trkpt lat="44.24324" lon="3.75243">
        <ele>1035.131</ele>
        <time>2011-09-18T08:52:25Z</time>
      </trkpt>
      <trkpt lat="44.24324" lon="3.75243">
        <ele>1033.585</ele>
        <time>2011-09-18T08:52:35Z</time>
      </trkpt>
      <trkpt lat="44.24324" lon="3.75244">
        <ele>1033.929</ele>
        <time>2011-09-18T08:52:45Z</time>
      </trkpt>
      <trkpt lat="44.24324" lon="3.75243">
        <ele>1033.936</ele>
        <time>2011-09-18T08:52:55Z</time>
      </trkpt>
      <trkpt lat="44.24324" lon="3.75243">
        <ele>1035.147</ele>
        <time>2011-09-18T08:53:05Z</time>
      </trkpt>
      <trkpt lat="44.24324" lon="3.75243">
        <ele>1035.501</ele>
        <time>2011-09-18T08:53:15Z</time>
      </trkpt>
      <trkpt lat="44.24322" lon="3.75239">
        <ele>1033.061</ele>
        <time>2011-09-18T08:53:25Z</time>
      </trkpt>
      <trkpt lat="44.24322" lon="3.75227">
        <ele>1031.991</ele>
        <time>2011-09-18T08:53:35Z</time>
      </trkpt>
      <trkpt lat="44.24324" lon="3.75207">
        <ele>1032.006</ele>
        <time>2011-09-18T08:53:45Z</time>
      </trkpt>
      <trkpt lat="44.24324" lon="3.7519">
        <ele>1032.762</ele>
        <time>2011-09-18T08:53:55Z</time>
      </trkpt>
      <trkpt lat="44.24323" lon="3.75177">
        <ele>1032.455</ele>
        <time>2011-09-18T08:54:05Z</time>
      </trkpt>
      <trkpt lat="44.2432" lon="3.75165">
        <ele>1030.367</ele>
        <time>2011-09-18T08:54:15Z</time>
      </trkpt>
      <trkpt lat="44.24314" lon="3.75146">
        <ele>1029.528</ele>
        <time>2011-09-18T08:54:25Z</time>
      </trkpt>
      <trkpt lat="44.2431" lon="3.75126">
        <ele>1029.421</ele>
        <time>2011-09-18T08:54:35Z</time>
      </trkpt>
      <trkpt lat="44.24306" lon="3.75113">
        <ele>1028.699</ele>
        <time>2011-09-18T08:54:45Z</time>
      </trkpt>
      <trkpt lat="44.24303" lon="3.751">
        <ele>1028.594</ele>
        <time>2011-09-18T08:54:55Z</time>
      </trkpt>
      <trkpt lat="44.24298" lon="3.75078">
        <ele>1027.495</ele>
        <time>2011-09-18T08:55:05Z</time>
      </trkpt>
      <trkpt lat="44.24295" lon="3.75066">
        <ele>1025.681</ele>
        <time>2011-09-18T08:55:15Z</time>
      </trkpt>
      <trkpt lat="44.24291" lon="3.75048">
        <ele>1024.594</ele>
        <time>2011-09-18T08:55:25Z</time>
      </trkpt>
      <trkpt lat="44.24293" lon="3.75036">
        <ele>1023.832</ele>
        <time>2011-09-18T08:55:35Z</time>
      </trkpt>
      <trkpt lat="44.24288" lon="3.75019">
        <ele>1023.653</ele>
        <time>2011-09-18T08:55:45Z</time>
      </trkpt>
      <trkpt lat="44.24278" lon="3.75007">
        <ele>1022.742</ele>
        <time>2011-09-18T08:55:55Z</time>
      </trkpt>
      <trkpt lat="44.24273" lon="3.74991">
        <ele>1022.374</ele>
        <time>2011-09-18T08:56:05Z</time>
      </trkpt>
      <trkpt lat="44.24266" lon="3.74974">
        <ele>1021.394</ele>
        <time>2011-09-18T08:56:15Z</time>
      </trkpt>
      <trkpt lat="44.24262" lon="3.74957">
        <ele>1019.96</ele>
        <time>2011-09-18T08:56:25Z</time>
      </trkpt>
      <trkpt lat="44.24261" lon="3.74959">
        <ele>1020.435</ele>
        <time>2011-09-18T08:56:35Z</time>
      </trkpt>
      <trkpt lat="44.24259" lon="3.7496">
        <ele>1020.364</ele>
        <time>2011-09-18T08:56:45Z</time>
      </trkpt>
      <trkpt lat="44.24259" lon="3.74973">
        <ele>1019.088</ele>
        <time>2011-09-18T08:56:55Z</time>
      </trkpt>
      <trkpt lat="44.24262" lon="3.74989">
        <ele>1018.71</ele>
        <time>2011-09-18T08:57:05Z</time>
      </trkpt>
      <trkpt lat="44.2427" lon="3.75">
        <ele>1017.722</ele>
        <time>2011-09-18T08:57:15Z</time>
      </trkpt>
      <trkpt lat="44.24274" lon="3.75013">
        <ele>1017.242</ele>
        <time>2011-09-18T08:57:25Z</time>
      </trkpt>
      <trkpt lat="44.2428" lon="3.75027">
        <ele>1015.263</ele>
        <time>2011-09-18T08:57:35Z</time>
      </trkpt>
      <trkpt lat="44.24289" lon="3.75044">
        <ele>1016.554</ele>
        <time>2011-09-18T08:57:45Z</time>
      </trkpt>
      <trkpt lat="44.24287" lon="3.75066">
        <ele>1016.373</ele>
        <time>2011-09-18T08:57:55Z</time>
      </trkpt>
      <trkpt lat="44.24291" lon="3.75082">
        <ele>1016.216</ele>
        <time>2011-09-18T08:58:05Z</time>
      </trkpt>
      <trkpt lat="44.24292" lon="3.75097">
        <ele>1015.633</ele>
        <time>2011-09-18T08:58:15Z</time>
      </trkpt>
      <trkpt lat="44.24289" lon="3.75116">
        <ele>1015.666</ele>
        <time>2011-09-18T08:58:25Z</time>
      </trkpt>
      <trkpt lat="44.24289" lon="3.75132">
        <ele>1016.884</ele>
        <time>2011-09-18T08:58:35Z</time>
      </trkpt>
      <trkpt lat="44.2429" lon="3.75149">
        <ele>1015.196</ele>
        <time>2011-09-18T08:58:45Z</time>
      </trkpt>
      <trkpt lat="44.2429" lon="3.75168">
        <ele>1015.197</ele>
        <time>2011-09-18T08:58:55Z</time>
      </trkpt>
      <trkpt lat="44.24292" lon="3.75184">
        <ele>1015.113</ele>
        <time>2011-09-18T08:59:05Z</time>
      </trkpt>
      <trkpt lat="44.24281" lon="3.75197">
        <ele>1014.77</ele>
        <time>2011-09-18T08:59:15Z</time>
      </trkpt>
      <trkpt lat="44.24269" lon="3.75213">
        <ele>1014.1</ele>
        <time>2011-09-18T08:59:25Z</time>
      </trkpt>
      <trkpt lat="44.24257" lon="3.75225">
        <ele>1014.669</ele>
        <time>2011-09-18T08:59:35Z</time>
      </trkpt>
      <trkpt lat="44.24248" lon="3.75242">
        <ele>1013.842</ele>
        <time>2011-09-18T08:59:45Z</time>
      </trkpt>
      <trkpt lat="44.2424" lon="3.75255">
        <ele>1013.205</ele>
        <time>2011-09-18T08:59:55Z</time>
      </trkpt>
      <trkpt lat="44.2423" lon="3.75267">
        <ele>1013.019</ele>
        <time>2011-09-18T09:00:05Z</time>
      </trkpt>
      <trkpt lat="44.2422" lon="3.75279">
        <ele>1012.108</ele>
        <time>2011-09-18T09:00:15Z</time>
      </trkpt>
      <trkpt lat="44.24209" lon="3.75289">
        <ele>1011.382</ele>
        <time>2011-09-18T09:00:25Z</time>
      </trkpt>
      <trkpt lat="44.24202" lon="3.75301">
        <ele>1011.375</ele>
        <time>2011-09-18T09:00:35Z</time>
      </trkpt>
      <trkpt lat="44.24192" lon="3.75309">
        <ele>1010.887</ele>
        <time>2011-09-18T09:00:45Z</time>
      </trkpt>
      <trkpt lat="44.24183" lon="3.75323">
        <ele>1009.918</ele>
        <time>2011-09-18T09:00:55Z</time>
      </trkpt>
      <trkpt lat="44.24168" lon="3.75334">
        <ele>1007.631</ele>
        <time>2011-09-18T09:01:05Z</time>
      </trkpt>
      <trkpt lat="44.24154" lon="3.75342">
        <ele>1006.444</ele>
        <time>2011-09-18T09:01:15Z</time>
      </trkpt>
      <trkpt lat="44.24142" lon="3.75355">
        <ele>1006.564</ele>
        <time>2011-09-18T09:01:25Z</time>
      </trkpt>
      <trkpt lat="44.24129" lon="3.75363">
        <ele>1005.697</ele>
        <time>2011-09-18T09:01:35Z</time>
      </trkpt>
      <trkpt lat="44.24121" lon="3.7538">
        <ele>1005.773</ele>
        <time>2011-09-18T09:01:45Z</time>
      </trkpt>
      <trkpt lat="44.24116" lon="3.75395">
        <ele>1004.796</ele>
        <time>2011-09-18T09:01:55Z</time>
      </trkpt>
      <trkpt lat="44.24112" lon="3.75406">
        <ele>1005.097</ele>
        <time>2011-09-18T09:02:05Z</time>
      </trkpt>
      <trkpt lat="44.24109" lon="3.75422">
        <ele>1004.181</ele>
        <time>2011-09-18T09:02:15Z</time>
      </trkpt>
      <trkpt lat="44.24104" lon="3.75435">
        <ele>1003.063</ele>
        <time>2011-09-18T09:02:25Z</time>
      </trkpt>
      <trkpt lat="44.24101" lon="3.75447">
        <ele>1002.837</ele>
        <time>2011-09-18T09:02:35Z</time>
      </trkpt>
      <trkpt lat="44.24092" lon="3.75459">
        <ele>1002.683</ele>
        <time>2011-09-18T09:02:45Z</time>
      </trkpt>
      <trkpt lat="44.24084" lon="3.75471">
        <ele>1001.263</ele>
        <time>2011-09-18T09:02:55Z</time>
      </trkpt>
      <trkpt lat="44.24071" lon="3.75479">
        <ele>1001.887</ele>
        <time>2011-09-18T09:03:05Z</time>
      </trkpt>
      <trkpt lat="44.24056" lon="3.75485">
        <ele>1001.195</ele>
        <time>2011-09-18T09:03:15Z</time>
      </trkpt>
      <trkpt lat="44.24043" lon="3.75493">
        <ele>1000.328</ele>
        <time>2011-09-18T09:03:25Z</time>
      </trkpt>
      <trkpt lat="44.2403" lon="3.75499">
        <ele>999.966</ele>
        <time>2011-09-18T09:03:35Z</time>
      </trkpt>
      <trkpt lat="44.24013" lon="3.75505">
        <ele>1000.653</ele>
        <time>2011-09-18T09:03:45Z</time>
      </trkpt>
      <trkpt lat="44.23999" lon="3.75506">
        <ele>999.168</ele>
        <time>2011-09-18T09:03:55Z</time>
      </trkpt>
      <trkpt lat="44.23982" lon="3.75503">
        <ele>999.374</ele>
        <time>2011-09-18T09:04:05Z</time>
      </trkpt>
      <trkpt lat="44.23968" lon="3.75504">
        <ele>999.403</ele>
        <time>2011-09-18T09:04:15Z</time>
      </trkpt>
      <trkpt lat="44.2395" lon="3.75504">
        <ele>998.634</ele>
        <time>2011-09-18T09:04:25Z</time>
      </trkpt>
      <trkpt lat="44.23933" lon="3.75504">
        <ele>998.388</ele>
        <time>2011-09-18T09:04:35Z</time>
      </trkpt>
      <trkpt lat="44.23918" lon="3.75503">
        <ele>996.927</ele>
        <time>2011-09-18T09:04:45Z</time>
      </trkpt>
      <trkpt lat="44.23904" lon="3.75503">
        <ele>997.181</ele>
        <time>2011-09-18T09:04:55Z</time>
      </trkpt>
      <trkpt lat="44.23891" lon="3.75503">
        <ele>996.681</ele>
        <time>2011-09-18T09:05:05Z</time>
      </trkpt>
      <trkpt lat="44.23877" lon="3.75506">
        <ele>995.846</ele>
        <time>2011-09-18T09:05:15Z</time>
      </trkpt>
      <trkpt lat="44.23865" lon="3.75507">
        <ele>993.228</ele>
        <time>2011-09-18T09:05:25Z</time>
      </trkpt>
      <trkpt lat="44.23852" lon="3.75508">
        <ele>996.1</ele>
        <time>2011-09-18T09:05:35Z</time>
      </trkpt>
      <trkpt lat="44.23837" lon="3.75511">
        <ele>994.945</ele>
        <time>2011-09-18T09:05:45Z</time>
      </trkpt>
      <trkpt lat="44.23823" lon="3.75513">
        <ele>994.525</ele>
        <time>2011-09-18T09:05:55Z</time>
      </trkpt>
      <trkpt lat="44.2381" lon="3.75519">
        <ele>993.923</ele>
        <time>2011-09-18T09:06:05Z</time>
      </trkpt>
      <trkpt lat="44.23796" lon="3.75526">
        <ele>994.29</ele>
        <time>2011-09-18T09:06:15Z</time>
      </trkpt>
      <trkpt lat="44.23783" lon="3.75533">
        <ele>993.616</ele>
        <time>2011-09-18T09:06:25Z</time>
      </trkpt>
      <trkpt lat="44.23768" lon="3.75535">
        <ele>993.672</ele>
        <time>2011-09-18T09:06:35Z</time>
      </trkpt>
      <trkpt lat="44.23753" lon="3.75536">
        <ele>992.316</ele>
        <time>2011-09-18T09:06:45Z</time>
      </trkpt>
      <trkpt lat="44.23739" lon="3.75541">
        <ele>992.329</ele>
        <time>2011-09-18T09:06:55Z</time>
      </trkpt>
      <trkpt lat="44.23728" lon="3.75542">
        <ele>991.505</ele>
        <time>2011-09-18T09:07:05Z</time>
      </trkpt>
      <trkpt lat="44.23716" lon="3.75547">
        <ele>991.893</ele>
        <time>2011-09-18T09:07:15Z</time>
      </trkpt>
      <trkpt lat="44.23705" lon="3.75552">
        <ele>990.844</ele>
        <time>2011-09-18T09:07:25Z</time>
      </trkpt>
      <trkpt lat="44.23693" lon="3.75557">
        <ele>991.177</ele>
        <time>2011-09-18T09:07:35Z</time>
      </trkpt>
      <trkpt lat="44.23677" lon="3.75565">
        <ele>990.078</ele>
        <time>2011-09-18T09:07:45Z</time>
      </trkpt>
      <trkpt lat="44.23664" lon="3.75572">
        <ele>990.913</ele>
        <time>2011-09-18T09:07:55Z</time>
      </trkpt>
      <trkpt lat="44.23651" lon="3.75577">
        <ele>989.938</ele>
        <time>2011-09-18T09:08:05Z</time>
      </trkpt>
      <trkpt lat="44.23637" lon="3.7558">
        <ele>990.424</ele>
        <time>2011-09-18T09:08:15Z</time>
      </trkpt>
      <trkpt lat="44.23626" lon="3.75584">
        <ele>989.698</ele>
        <time>2011-09-18T09:08:25Z</time>
      </trkpt>
      <trkpt lat="44.23611" lon="3.7559">
        <ele>989.732</ele>
        <time>2011-09-18T09:08:35Z</time>
      </trkpt>
      <trkpt lat="44.23597" lon="3.75598">
        <ele>989.743</ele>
        <time>2011-09-18T09:08:45Z</time>
      </trkpt>
      <trkpt lat="44.23583" lon="3.75598">
        <ele>990.665</ele>
        <time>2011-09-18T09:08:55Z</time>
      </trkpt>
      <trkpt lat="44.23572" lon="3.75596">
        <ele>989.557</ele>
        <time>2011-09-18T09:09:05Z</time>
      </trkpt>
      <trkpt lat="44.23559" lon="3.756">
        <ele>990.305</ele>
        <time>2011-09-18T09:09:15Z</time>
      </trkpt>
      <trkpt lat="44.23546" lon="3.756">
        <ele>990.305</ele>
        <time>2011-09-18T09:09:25Z</time>
      </trkpt>
      <trkpt lat="44.23534" lon="3.75607">
        <ele>989.003</ele>
        <time>2011-09-18T09:09:35Z</time>
      </trkpt>
      <trkpt lat="44.23522" lon="3.75614">
        <ele>988.833</ele>
        <time>2011-09-18T09:09:45Z</time>
      </trkpt>
      <trkpt lat="44.23513" lon="3.75628">
        <ele>988.379</ele>
        <time>2011-09-18T09:09:55Z</time>
      </trkpt>
      <trkpt lat="44.23504" lon="3.75643">
        <ele>985.533</ele>
        <time>2011-09-18T09:10:05Z</time>
      </trkpt>
      <trkpt lat="44.23497" lon="3.75655">
        <ele>985.399</ele>
        <time>2011-09-18T09:10:15Z</time>
      </trkpt>
      <trkpt lat="44.23489" lon="3.75668">
        <ele>984.199</ele>
        <time>2011-09-18T09:10:25Z</time>
      </trkpt>
      <trkpt lat="44.23483" lon="3.75683">
        <ele>985.776</ele>
        <time>2011-09-18T09:10:35Z</time>
      </trkpt>
      <trkpt lat="44.23476" lon="3.757">
        <ele>984.252</ele>
        <time>2011-09-18T09:10:45Z</time>
      </trkpt>
      <trkpt lat="44.23468" lon="3.75715">
        <ele>983.784</ele>
        <time>2011-09-18T09:10:55Z</time>
      </trkpt>
      <trkpt lat="44.23466" lon="3.75734">
        <ele>982.809</ele>
        <time>2011-09-18T09:11:05Z</time>
      </trkpt>
      <trkpt lat="44.23475" lon="3.75763">
        <ele>983.327</ele>
        <time>2011-09-18T09:11:15Z</time>
      </trkpt>
      <trkpt lat="44.23473" lon="3.75788">
        <ele>981.504</ele>
        <time>2011-09-18T09:11:25Z</time>
      </trkpt>
      <trkpt lat="44.23469" lon="3.75805">
        <ele>982.212</ele>
        <time>2011-09-18T09:11:35Z</time>
      </trkpt>
      <trkpt lat="44.23467" lon="3.75825">
        <ele>981.448</ele>
        <time>2011-09-18T09:11:45Z</time>
      </trkpt>
      <trkpt lat="44.23469" lon="3.75846">
        <ele>979.683</ele>
        <time>2011-09-18T09:11:55Z</time>
      </trkpt>
      <trkpt lat="44.23472" lon="3.75863">
        <ele>978.267</ele>
        <time>2011-09-18T09:12:05Z</time>
      </trkpt>
      <trkpt lat="44.23479" lon="3.75872">
        <ele>979.94</ele>
        <time>2011-09-18T09:12:15Z</time>
      </trkpt>
      <trkpt lat="44.23481" lon="3.75888">
        <ele>979.335</ele>
        <time>2011-09-18T09:12:25Z</time>
      </trkpt>
      <trkpt lat="44.23472" lon="3.75899">
        <ele>979.874</ele>
        <time>2011-09-18T09:12:35Z</time>
      </trkpt>
      <trkpt lat="44.23464" lon="3.75911">
        <ele>980.107</ele>
        <time>2011-09-18T09:12:45Z</time>
      </trkpt>
      <trkpt lat="44.2345" lon="3.75922">
        <ele>981.005</ele>
        <time>2011-09-18T09:12:55Z</time>
      </trkpt>
      <trkpt lat="44.23437" lon="3.75927">
        <ele>979.7</ele>
        <time>2011-09-18T09:13:05Z</time>
      </trkpt>
      <trkpt lat="44.23423" lon="3.75936">
        <ele>980.361</ele>
        <time>2011-09-18T09:13:15Z</time>
      </trkpt>
      <trkpt lat="44.2341" lon="3.75949">
        <ele>980.017</ele>
        <time>2011-09-18T09:13:25Z</time>
      </trkpt>
      <trkpt lat="44.23398" lon="3.75957">
        <ele>982.007</ele>
        <time>2011-09-18T09:13:35Z</time>
      </trkpt>
      <trkpt lat="44.23391" lon="3.75972">
        <ele>980.979</ele>
        <time>2011-09-18T09:13:45Z</time>
      </trkpt>
      <trkpt lat="44.23389" lon="3.75989">
        <ele>980.548</ele>
        <time>2011-09-18T09:13:55Z</time>
      </trkpt>
      <trkpt lat="44.23387" lon="3.76005">
        <ele>980.37</ele>
        <time>2011-09-18T09:14:05Z</time>
      </trkpt>
      <trkpt lat="44.23388" lon="3.76022">
        <ele>981.189</ele>
        <time>2011-09-18T09:14:15Z</time>
      </trkpt>
      <trkpt lat="44.23389" lon="3.7604">
        <ele>980.114</ele>
        <time>2011-09-18T09:14:25Z</time>
      </trkpt>
      <trkpt lat="44.23388" lon="3.76056">
        <ele>979.595</ele>
        <time>2011-09-18T09:14:35Z</time>
      </trkpt>
      <trkpt lat="44.23384" lon="3.76072">
        <ele>980.368</ele>
        <time>2011-09-18T09:14:45Z</time>
      </trkpt>
      <trkpt lat="44.23384" lon="3.76088">
        <ele>980.276</ele>
        <time>2011-09-18T09:14:55Z</time>
      </trkpt>
      <trkpt lat="44.23385" lon="3.76108">
        <ele>979.384</ele>
        <time>2011-09-18T09:15:05Z</time>
      </trkpt>
      <trkpt lat="44.23388" lon="3.76128">
        <ele>983.946</ele>
        <time>2011-09-18T09:15:15Z</time>
      </trkpt>
      <trkpt lat="44.23386" lon="3.76145">
        <ele>980.941</ele>
        <time>2011-09-18T09:15:25Z</time>
      </trkpt>
      <trkpt lat="44.2339" lon="3.76162">
        <ele>979.515</ele>
        <time>2011-09-18T09:15:35Z</time>
      </trkpt>
      <trkpt lat="44.23394" lon="3.76181">
        <ele>978.291</ele>
        <time>2011-09-18T09:15:45Z</time>
      </trkpt>
      <trkpt lat="44.23395" lon="3.76199">
        <ele>979.398</ele>
        <time>2011-09-18T09:15:55Z</time>
      </trkpt>
      <trkpt lat="44.23399" lon="3.76217">
        <ele>978.039</ele>
        <time>2011-09-18T09:16:05Z</time>
      </trkpt>
      <trkpt lat="44.23405" lon="3.76233">
        <ele>973.944</ele>
        <time>2011-09-18T09:16:15Z</time>
      </trkpt>
      <trkpt lat="44.23411" lon="3.76247">
        <ele>971.532</ele>
        <time>2011-09-18T09:16:25Z</time>
      </trkpt>
      <trkpt lat="44.23414" lon="3.76265">
        <ele>970.35</ele>
        <time>2011-09-18T09:16:35Z</time>
      </trkpt>
      <trkpt lat="44.23416" lon="3.76286">
        <ele>968.817</ele>
        <time>2011-09-18T09:16:45Z</time>
      </trkpt>
      <trkpt lat="44.2342" lon="3.76303">
        <ele>967.093</ele>
        <time>2011-09-18T09:16:55Z</time>
      </trkpt>
      <trkpt lat="44.23422" lon="3.76319">
        <ele>965.653</ele>
        <time>2011-09-18T09:17:05Z</time>
      </trkpt>
      <trkpt lat="44.23427" lon="3.76335">
        <ele>964.451</ele>
        <time>2011-09-18T09:17:15Z</time>
      </trkpt>
      <trkpt lat="44.23436" lon="3.76346">
        <ele>962.638</ele>
        <time>2011-09-18T09:17:25Z</time>
      </trkpt>
      <trkpt lat="44.23443" lon="3.76359">
        <ele>961.544</ele>
        <time>2011-09-18T09:17:35Z</time>
      </trkpt>
      <trkpt lat="44.23449" lon="3.76371">
        <ele>959.416</ele>
        <time>2011-09-18T09:17:45Z</time>
      </trkpt>
      <trkpt lat="44.23453" lon="3.76386">
        <ele>957.793</ele>
        <time>2011-09-18T09:17:55Z</time>
      </trkpt>
      <trkpt lat="44.23459" lon="3.76404">
        <ele>957.354</ele>
        <time>2011-09-18T09:18:05Z</time>
      </trkpt>
      <trkpt lat="44.23464" lon="3.76422">
        <ele>956.458</ele>
        <time>2011-09-18T09:18:15Z</time>
      </trkpt>
      <trkpt lat="44.23471" lon="3.76437">
        <ele>955.675</ele>
        <time>2011-09-18T09:18:25Z</time>
      </trkpt>
      <trkpt lat="44.23474" lon="3.76456">
        <ele>954.896</ele>
        <time>2011-09-18T09:18:35Z</time>
      </trkpt>
      <trkpt lat="44.2348" lon="3.76471">
        <ele>954.392</ele>
        <time>2011-09-18T09:18:45Z</time>
      </trkpt>
      <trkpt lat="44.23486" lon="3.76491">
        <ele>953.698</ele>
        <time>2011-09-18T09:18:55Z</time>
      </trkpt>
      <trkpt lat="44.23491" lon="3.76509">
        <ele>952.473</ele>
        <time>2011-09-18T09:19:05Z</time>
      </trkpt>
      <trkpt lat="44.23493" lon="3.76526">
        <ele>952.056</ele>
        <time>2011-09-18T09:19:15Z</time>
      </trkpt>
      <trkpt lat="44.23492" lon="3.76545">
        <ele>952.668</ele>
        <time>2011-09-18T09:19:25Z</time>
      </trkpt>
      <trkpt lat="44.23493" lon="3.76561">
        <ele>951.305</ele>
        <time>2011-09-18T09:19:35Z</time>
      </trkpt>
      <trkpt lat="44.23502" lon="3.76575">
        <ele>949.895</ele>
        <time>2011-09-18T09:19:45Z</time>
      </trkpt>
      <trkpt lat="44.23513" lon="3.76585">
        <ele>948.098</ele>
        <time>2011-09-18T09:19:55Z</time>
      </trkpt>
      <trkpt lat="44.23521" lon="3.7659">
        <ele>947.587</ele>
        <time>2011-09-18T09:20:05Z</time>
      </trkpt>
      <trkpt lat="44.23532" lon="3.76593">
        <ele>946.901</ele>
        <time>2011-09-18T09:20:15Z</time>
      </trkpt>
      <trkpt lat="44.23546" lon="3.76602">
        <ele>945.626</ele>
        <time>2011-09-18T09:20:25Z</time>
      </trkpt>
      <trkpt lat="44.23539" lon="3.76613">
        <ele>943.689</ele>
        <time>2011-09-18T09:20:35Z</time>
      </trkpt>
      <trkpt lat="44.23526" lon="3.76607">
        <ele>942.769</ele>
        <time>2011-09-18T09:20:45Z</time>
      </trkpt>
      <trkpt lat="44.23513" lon="3.76605">
        <ele>942.022</ele>
        <time>2011-09-18T09:20:55Z</time>
      </trkpt>
      <trkpt lat="44.23514" lon="3.76616">
        <ele>940.163</ele>
        <time>2011-09-18T09:21:05Z</time>
      </trkpt>
      <trkpt lat="44.23526" lon="3.76621">
        <ele>938.123</ele>
        <time>2011-09-18T09:21:15Z</time>
      </trkpt>
      <trkpt lat="44.23541" lon="3.76626">
        <ele>936.841</ele>
        <time>2011-09-18T09:21:25Z</time>
      </trkpt>
      <trkpt lat="44.23551" lon="3.76635">
        <ele>935.931</ele>
        <time>2011-09-18T09:21:35Z</time>
      </trkpt>
      <trkpt lat="44.2356" lon="3.7664">
        <ele>935.268</ele>
        <time>2011-09-18T09:21:45Z</time>
      </trkpt>
      <trkpt lat="44.23574" lon="3.76642">
        <ele>934.101</ele>
        <time>2011-09-18T09:21:55Z</time>
      </trkpt>
      <trkpt lat="44.23584" lon="3.76647">
        <ele>933.471</ele>
        <time>2011-09-18T09:22:05Z</time>
      </trkpt>
      <trkpt lat="44.2359" lon="3.76651">
        <ele>932.845</ele>
        <time>2011-09-18T09:22:15Z</time>
      </trkpt>
      <trkpt lat="44.236" lon="3.76657">
        <ele>932.776</ele>
        <time>2011-09-18T09:22:25Z</time>
      </trkpt>
      <trkpt lat="44.2361" lon="3.76673">
        <ele>932.249</ele>
        <time>2011-09-18T09:22:35Z</time>
      </trkpt>
      <trkpt lat="44.23612" lon="3.76688">
        <ele>931.807</ele>
        <time>2011-09-18T09:22:45Z</time>
      </trkpt>
      <trkpt lat="44.23619" lon="3.76704">
        <ele>930.735</ele>
        <time>2011-09-18T09:22:55Z</time>
      </trkpt>
      <trkpt lat="44.23618" lon="3.76725">
        <ele>930.098</ele>
        <time>2011-09-18T09:23:05Z</time>
      </trkpt>
      <trkpt lat="44.23612" lon="3.76742">
        <ele>929.531</ele>
        <time>2011-09-18T09:23:15Z</time>
      </trkpt>
      <trkpt lat="44.23609" lon="3.76757">
        <ele>927.785</ele>
        <time>2011-09-18T09:23:25Z</time>
      </trkpt>
      <trkpt lat="44.23607" lon="3.76765">
        <ele>927.476</ele>
        <time>2011-09-18T09:23:35Z</time>
      </trkpt>
      <trkpt lat="44.23604" lon="3.76782">
        <ele>927.029</ele>
        <time>2011-09-18T09:23:45Z</time>
      </trkpt>
      <trkpt lat="44.23601" lon="3.76799">
        <ele>926.398</ele>
        <time>2011-09-18T09:23:55Z</time>
      </trkpt>
      <trkpt lat="44.23598" lon="3.76816">
        <ele>926.151</ele>
        <time>2011-09-18T09:24:05Z</time>
      </trkpt>
      <trkpt lat="44.23597" lon="3.76835">
        <ele>925.609</ele>
        <time>2011-09-18T09:24:15Z</time>
      </trkpt>
      <trkpt lat="44.23593" lon="3.76854">
        <ele>925.07</ele>
        <time>2011-09-18T09:24:25Z</time>
      </trkpt>
      <trkpt lat="44.23592" lon="3.76873">
        <ele>923.894</ele>
        <time>2011-09-18T09:24:35Z</time>
      </trkpt>
      <trkpt lat="44.23592" lon="3.76892">
        <ele>922.639</ele>
        <time>2011-09-18T09:24:45Z</time>
      </trkpt>
      <trkpt lat="44.23593" lon="3.7691">
        <ele>921.196</ele>
        <time>2011-09-18T09:24:55Z</time>
      </trkpt>
      <trkpt lat="44.23593" lon="3.76927">
        <ele>919.323</ele>
        <time>2011-09-18T09:25:05Z</time>
      </trkpt>
      <trkpt lat="44.23599" lon="3.76946">
        <ele>918.601</ele>
        <time>2011-09-18T09:25:15Z</time>
      </trkpt>
      <trkpt lat="44.23606" lon="3.76964">
        <ele>917.568</ele>
        <time>2011-09-18T09:25:25Z</time>
      </trkpt>
      <trkpt lat="44.23607" lon="3.76978">
        <ele>916.987</ele>
        <time>2011-09-18T09:25:35Z</time>
      </trkpt>
      <trkpt lat="44.23606" lon="3.76995">
        <ele>916.738</ele>
        <time>2011-09-18T09:25:45Z</time>
      </trkpt>
      <trkpt lat="44.23609" lon="3.77011">
        <ele>915.948</ele>
        <time>2011-09-18T09:25:55Z</time>
      </trkpt>
      <trkpt lat="44.2361" lon="3.77029">
        <ele>915.092</ele>
        <time>2011-09-18T09:26:05Z</time>
      </trkpt>
      <trkpt lat="44.23616" lon="3.77046">
        <ele>913.795</ele>
        <time>2011-09-18T09:26:15Z</time>
      </trkpt>
      <trkpt lat="44.23622" lon="3.77065">
        <ele>913.145</ele>
        <time>2011-09-18T09:26:25Z</time>
      </trkpt>
      <trkpt lat="44.23631" lon="3.77082">
        <ele>912.306</ele>
        <time>2011-09-18T09:26:35Z</time>
      </trkpt>
      <trkpt lat="44.23636" lon="3.77101">
        <ele>911.427</ele>
        <time>2011-09-18T09:26:45Z</time>
      </trkpt>
      <trkpt lat="44.23643" lon="3.77121">
        <ele>909.855</ele>
        <time>2011-09-18T09:26:55Z</time>
      </trkpt>
      <trkpt lat="44.23642" lon="3.77142">
        <ele>908.385</ele>
        <time>2011-09-18T09:27:05Z</time>
      </trkpt>
      <trkpt lat="44.2364" lon="3.77158">
        <ele>907.288</ele>
        <time>2011-09-18T09:27:15Z</time>
      </trkpt>
      <trkpt lat="44.23642" lon="3.77176">
        <ele>906.44</ele>
        <time>2011-09-18T09:27:25Z</time>
      </trkpt>
      <trkpt lat="44.23649" lon="3.77192">
        <ele>904.887</ele>
        <time>2011-09-18T09:27:35Z</time>
      </trkpt>
      <trkpt lat="44.2365" lon="3.77209">
        <ele>903.859</ele>
        <time>2011-09-18T09:27:45Z</time>
      </trkpt>
      <trkpt lat="44.23644" lon="3.77228">
        <ele>903.046</ele>
        <time>2011-09-18T09:27:55Z</time>
      </trkpt>
      <trkpt lat="44.23639" lon="3.77231">
        <ele>901.077</ele>
        <time>2011-09-18T09:28:05Z</time>
      </trkpt>
      <trkpt lat="44.23634" lon="3.77243">
        <ele>898.321</ele>
        <time>2011-09-18T09:28:15Z</time>
      </trkpt>
      <trkpt lat="44.23628" lon="3.77254">
        <ele>895.417</ele>
        <time>2011-09-18T09:28:25Z</time>
      </trkpt>
      <trkpt lat="44.23631" lon="3.77262">
        <ele>895.155</ele>
        <time>2011-09-18T09:28:35Z</time>
      </trkpt>
      <trkpt lat="44.23631" lon="3.77265">
        <ele>895.477</ele>
        <time>2011-09-18T09:28:45Z</time>
      </trkpt>
      <trkpt lat="44.2363" lon="3.77264">
        <ele>895.698</ele>
        <time>2011-09-18T09:28:55Z</time>
      </trkpt>
      <trkpt lat="44.2363" lon="3.77264">
        <ele>896.658</ele>
        <time>2011-09-18T09:29:05Z</time>
      </trkpt>
      <trkpt lat="44.23627" lon="3.7726">
        <ele>897.076</ele>
        <time>2011-09-18T09:29:15Z</time>
      </trkpt>
      <trkpt lat="44.23627" lon="3.77258">
        <ele>896.56</ele>
        <time>2011-09-18T09:29:25Z</time>
      </trkpt>
      <trkpt lat="44.23629" lon="3.7726">
        <ele>895.966</ele>
        <time>2011-09-18T09:29:35Z</time>
      </trkpt>
      <trkpt lat="44.23639" lon="3.77268">
        <ele>894.802</ele>
        <time>2011-09-18T09:29:45Z</time>
      </trkpt>
      <trkpt lat="44.23648" lon="3.77277">
        <ele>894.004</ele>
        <time>2011-09-18T09:29:55Z</time>
      </trkpt>
      <trkpt lat="44.23655" lon="3.77295">
        <ele>892.86</ele>
        <time>2011-09-18T09:30:05Z</time>
      </trkpt>
      <trkpt lat="44.23652" lon="3.77305">
        <ele>893.162</ele>
        <time>2011-09-18T09:30:15Z</time>
      </trkpt>
      <trkpt lat="44.23647" lon="3.77312">
        <ele>893.34</ele>
        <time>2011-09-18T09:30:25Z</time>
      </trkpt>
      <trkpt lat="44.2364" lon="3.77324">
        <ele>893.097</ele>
        <time>2011-09-18T09:30:35Z</time>
      </trkpt>
      <trkpt lat="44.23632" lon="3.77334">
        <ele>892.893</ele>
        <time>2011-09-18T09:30:45Z</time>
      </trkpt>
      <trkpt lat="44.23625" lon="3.77336">
        <ele>893.397</ele>
        <time>2011-09-18T09:30:55Z</time>
      </trkpt>
      <trkpt lat="44.23617" lon="3.7734">
        <ele>892.68</ele>
        <time>2011-09-18T09:31:05Z</time>
      </trkpt>
      <trkpt lat="44.23607" lon="3.77346">
        <ele>892.386</ele>
        <time>2011-09-18T09:31:15Z</time>
      </trkpt>
      <trkpt lat="44.23599" lon="3.77349">
        <ele>892.429</ele>
        <time>2011-09-18T09:31:25Z</time>
      </trkpt>
      <trkpt lat="44.23586" lon="3.7735">
        <ele>892.738</ele>
        <time>2011-09-18T09:31:35Z</time>
      </trkpt>
      <trkpt lat="44.23576" lon="3.77345">
        <ele>892.685</ele>
        <time>2011-09-18T09:31:45Z</time>
      </trkpt>
      <trkpt lat="44.23564" lon="3.77344">
        <ele>892.191</ele>
        <time>2011-09-18T09:31:55Z</time>
      </trkpt>
      <trkpt lat="44.23553" lon="3.77346">
        <ele>890.909</ele>
        <time>2011-09-18T09:32:05Z</time>
      </trkpt>
      <trkpt lat="44.23539" lon="3.77349">
        <ele>890.175</ele>
        <time>2011-09-18T09:32:15Z</time>
      </trkpt>
      <trkpt lat="44.23526" lon="3.77352">
        <ele>889.871</ele>
        <time>2011-09-18T09:32:25Z</time>
      </trkpt>
      <trkpt lat="44.23513" lon="3.77353">
        <ele>889.068</ele>
        <time>2011-09-18T09:32:35Z</time>
      </trkpt>
      <trkpt lat="44.23503" lon="3.77363">
        <ele>888.183</ele>
        <time>2011-09-18T09:32:45Z</time>
      </trkpt>
      <trkpt lat="44.23494" lon="3.77373">
        <ele>887.723</ele>
        <time>2011-09-18T09:32:55Z</time>
      </trkpt>
      <trkpt lat="44.23487" lon="3.77385">
        <ele>887.25</ele>
        <time>2011-09-18T09:33:05Z</time>
      </trkpt>
      <trkpt lat="44.23481" lon="3.77398">
        <ele>886.518</ele>
        <time>2011-09-18T09:33:15Z</time>
      </trkpt>
      <trkpt lat="44.23474" lon="3.77416">
        <ele>887.073</ele>
        <time>2011-09-18T09:33:25Z</time>
      </trkpt>
      <trkpt lat="44.23468" lon="3.77427">
        <ele>888.484</ele>
        <time>2011-09-18T09:33:35Z</time>
      </trkpt>
      <trkpt lat="44.2346" lon="3.77439">
        <ele>889.919</ele>
        <time>2011-09-18T09:33:45Z</time>
      </trkpt>
      <trkpt lat="44.23453" lon="3.77452">
        <ele>889.287</ele>
        <time>2011-09-18T09:33:55Z</time>
      </trkpt>
      <trkpt lat="44.23441" lon="3.7746">
        <ele>888.238</ele>
        <time>2011-09-18T09:34:05Z</time>
      </trkpt>
      <trkpt lat="44.23432" lon="3.77471">
        <ele>888.172</ele>
        <time>2011-09-18T09:34:15Z</time>
      </trkpt>
      <trkpt lat="44.23422" lon="3.77482">
        <ele>888.082</ele>
        <time>2011-09-18T09:34:25Z</time>
      </trkpt>
      <trkpt lat="44.23414" lon="3.77495">
        <ele>888.204</ele>
        <time>2011-09-18T09:34:35Z</time>
      </trkpt>
      <trkpt lat="44.23408" lon="3.7751">
        <ele>888.428</ele>
        <time>2011-09-18T09:34:45Z</time>
      </trkpt>
      <trkpt lat="44.23404" lon="3.77525">
        <ele>888.888</ele>
        <time>2011-09-18T09:34:55Z</time>
      </trkpt>
      <trkpt lat="44.23395" lon="3.77537">
        <ele>888.294</ele>
        <time>2011-09-18T09:35:05Z</time>
      </trkpt>
      <trkpt lat="44.23387" lon="3.77547">
        <ele>887.752</ele>
        <time>2011-09-18T09:35:15Z</time>
      </trkpt>
      <trkpt lat="44.23378" lon="3.77556">
        <ele>886.89</ele>
        <time>2011-09-18T09:35:25Z</time>
      </trkpt>
      <trkpt lat="44.23366" lon="3.77564">
        <ele>886.28</ele>
        <time>2011-09-18T09:35:35Z</time>
      </trkpt>
      <trkpt lat="44.23355" lon="3.77575">
        <ele>886.264</ele>
        <time>2011-09-18T09:35:45Z</time>
      </trkpt>
      <trkpt lat="44.23344" lon="3.77586">
        <ele>886.557</ele>
        <time>2011-09-18T09:35:55Z</time>
      </trkpt>
      <trkpt lat="44.23335" lon="3.77599">
        <ele>886.999</ele>
        <time>2011-09-18T09:36:05Z</time>
      </trkpt>
      <trkpt lat="44.23326" lon="3.77609">
        <ele>888.198</ele>
        <time>2011-09-18T09:36:15Z</time>
      </trkpt>
      <trkpt lat="44.23318" lon="3.77619">
        <ele>888.13</ele>
        <time>2011-09-18T09:36:25Z</time>
      </trkpt>
      <trkpt lat="44.2331" lon="3.77629">
        <ele>888.576</ele>
        <time>2011-09-18T09:36:35Z</time>
      </trkpt>
      <trkpt lat="44.23299" lon="3.77642">
        <ele>889.62</ele>
        <time>2011-09-18T09:36:45Z</time>
      </trkpt>
      <trkpt lat="44.2329" lon="3.77651">
        <ele>889.514</ele>
        <time>2011-09-18T09:36:55Z</time>
      </trkpt>
      <trkpt lat="44.23282" lon="3.77661">
        <ele>890.111</ele>
        <time>2011-09-18T09:37:05Z</time>
      </trkpt>
      <trkpt lat="44.23273" lon="3.77669">
        <ele>890.759</ele>
        <time>2011-09-18T09:37:15Z</time>
      </trkpt>
      <trkpt lat="44.23264" lon="3.77679">
        <ele>891.3</ele>
        <time>2011-09-18T09:37:25Z</time>
      </trkpt>
      <trkpt lat="44.23255" lon="3.7769">
        <ele>891.802</ele>
        <time>2011-09-18T09:37:35Z</time>
      </trkpt>
      <trkpt lat="44.23247" lon="3.777">
        <ele>892.209</ele>
        <time>2011-09-18T09:37:45Z</time>
      </trkpt>
      <trkpt lat="44.23238" lon="3.77709">
        <ele>892.323</ele>
        <time>2011-09-18T09:37:55Z</time>
      </trkpt>
      <trkpt lat="44.2323" lon="3.77719">
        <ele>892.598</ele>
        <time>2011-09-18T09:38:05Z</time>
      </trkpt>
      <trkpt lat="44.23224" lon="3.77733">
        <ele>895.222</ele>
        <time>2011-09-18T09:38:15Z</time>
      </trkpt>
      <trkpt lat="44.23221" lon="3.77737">
        <ele>893.66</ele>
        <time>2011-09-18T09:38:25Z</time>
      </trkpt>
      <trkpt lat="44.23217" lon="3.77749">
        <ele>893.338</ele>
        <time>2011-09-18T09:38:35Z</time>
      </trkpt>
      <trkpt lat="44.23216" lon="3.77756">
        <ele>892.81</ele>
        <time>2011-09-18T09:38:45Z</time>
      </trkpt>
      <trkpt lat="44.23215" lon="3.77759">
        <ele>891.592</ele>
        <time>2011-09-18T09:38:55Z</time>
      </trkpt>
      <trkpt lat="44.23215" lon="3.77768">
        <ele>889.875</ele>
        <time>2011-09-18T09:39:05Z</time>
      </trkpt>
      <trkpt lat="44.23215" lon="3.77778">
        <ele>888.196</ele>
        <time>2011-09-18T09:39:15Z</time>
      </trkpt>
      <trkpt lat="44.23215" lon="3.77792">
        <ele>889.389</ele>
        <time>2011-09-18T09:39:25Z</time>
      </trkpt>
      <trkpt lat="44.23216" lon="3.77806">
        <ele>889.551</ele>
        <time>2011-09-18T09:39:35Z</time>
      </trkpt>
      <trkpt lat="44.23215" lon="3.77818">
        <ele>886.773</ele>
        <time>2011-09-18T09:39:45Z</time>
      </trkpt>
      <trkpt lat="44.2321" lon="3.77835">
        <ele>884.596</ele>
        <time>2011-09-18T09:39:55Z</time>
      </trkpt>
      <trkpt lat="44.23199" lon="3.77845">
        <ele>883.671</ele>
        <time>2011-09-18T09:40:05Z</time>
      </trkpt>
      <trkpt lat="44.23193" lon="3.77865">
        <ele>882.921</ele>
        <time>2011-09-18T09:40:15Z</time>
      </trkpt>
      <trkpt lat="44.23188" lon="3.77885">
        <ele>882.065</ele>
        <time>2011-09-18T09:40:25Z</time>
      </trkpt>
      <trkpt lat="44.2318" lon="3.77898">
        <ele>880.572</ele>
        <time>2011-09-18T09:40:35Z</time>
      </trkpt>
      <trkpt lat="44.23174" lon="3.7791">
        <ele>879.343</ele>
        <time>2011-09-18T09:40:45Z</time>
      </trkpt>
      <trkpt lat="44.23165" lon="3.77921">
        <ele>878.616</ele>
        <time>2011-09-18T09:40:55Z</time>
      </trkpt>
      <trkpt lat="44.23156" lon="3.77933">
        <ele>878.746</ele>
        <time>2011-09-18T09:41:05Z</time>
      </trkpt>
      <trkpt lat="44.2315" lon="3.77948">
        <ele>879.031</ele>
        <time>2011-09-18T09:41:15Z</time>
      </trkpt>
      <trkpt lat="44.23143" lon="3.77961">
        <ele>878.78</ele>
        <time>2011-09-18T09:41:25Z</time>
      </trkpt>
      <trkpt lat="44.23134" lon="3.77976">
        <ele>878.175</ele>
        <time>2011-09-18T09:41:35Z</time>
      </trkpt>
      <trkpt lat="44.23128" lon="3.77989">
        <ele>877.108</ele>
        <time>2011-09-18T09:41:45Z</time>
      </trkpt>
      <trkpt lat="44.23124" lon="3.78005">
        <ele>877.476</ele>
        <time>2011-09-18T09:41:55Z</time>
      </trkpt>
      <trkpt lat="44.23117" lon="3.78023">
        <ele>876.982</ele>
        <time>2011-09-18T09:42:05Z</time>
      </trkpt>
      <trkpt lat="44.23111" lon="3.78036">
        <ele>877.227</ele>
        <time>2011-09-18T09:42:15Z</time>
      </trkpt>
      <trkpt lat="44.23103" lon="3.78054">
        <ele>877.455</ele>
        <time>2011-09-18T09:42:25Z</time>
      </trkpt>
      <trkpt lat="44.23103" lon="3.78073">
        <ele>878.196</ele>
        <time>2011-09-18T09:42:35Z</time>
      </trkpt>
      <trkpt lat="44.23102" lon="3.78093">
        <ele>877.954</ele>
        <time>2011-09-18T09:42:45Z</time>
      </trkpt>
      <trkpt lat="44.23098" lon="3.78109">
        <ele>876.667</ele>
        <time>2011-09-18T09:42:55Z</time>
      </trkpt>
      <trkpt lat="44.23097" lon="3.78125">
        <ele>875.534</ele>
        <time>2011-09-18T09:43:05Z</time>
      </trkpt>
      <trkpt lat="44.23092" lon="3.7814">
        <ele>877.89</ele>
        <time>2011-09-18T09:43:15Z</time>
      </trkpt>
      <trkpt lat="44.23089" lon="3.78152">
        <ele>875.354</ele>
        <time>2011-09-18T09:43:25Z</time>
      </trkpt>
      <trkpt lat="44.23085" lon="3.78169">
        <ele>873.544</ele>
        <time>2011-09-18T09:43:35Z</time>
      </trkpt>
      <trkpt lat="44.2308" lon="3.78185">
        <ele>872.788</ele>
        <time>2011-09-18T09:43:45Z</time>
      </trkpt>
      <trkpt lat="44.23073" lon="3.78199">
        <ele>872.392</ele>
        <time>2011-09-18T09:43:55Z</time>
      </trkpt>
      <trkpt lat="44.23067" lon="3.78214">
        <ele>871.504</ele>
        <time>2011-09-18T09:44:05Z</time>
      </trkpt>
      <trkpt lat="44.2306" lon="3.78231">
        <ele>870.984</ele>
        <time>2011-09-18T09:44:15Z</time>
      </trkpt>
      <trkpt lat="44.23053" lon="3.78247">
        <ele>869.603</ele>
        <time>2011-09-18T09:44:25Z</time>
      </trkpt>
      <trkpt lat="44.23047" lon="3.78259">
        <ele>868.299</ele>
        <time>2011-09-18T09:44:35Z</time>
      </trkpt>
      <trkpt lat="44.23038" lon="3.7827">
        <ele>866.854</ele>
        <time>2011-09-18T09:44:45Z</time>
      </trkpt>
      <trkpt lat="44.2303" lon="3.78288">
        <ele>865.888</ele>
        <time>2011-09-18T09:44:55Z</time>
      </trkpt>
      <trkpt lat="44.23025" lon="3.78309">
        <ele>864.219</ele>
        <time>2011-09-18T09:45:05Z</time>
      </trkpt>
      <trkpt lat="44.23022" lon="3.78327">
        <ele>863.173</ele>
        <time>2011-09-18T09:45:15Z</time>
      </trkpt>
      <trkpt lat="44.23015" lon="3.78343">
        <ele>863.239</ele>
        <time>2011-09-18T09:45:25Z</time>
      </trkpt>
      <trkpt lat="44.23009" lon="3.78359">
        <ele>862.581</ele>
        <time>2011-09-18T09:45:35Z</time>
      </trkpt>
      <trkpt lat="44.23001" lon="3.7837">
        <ele>861.693</ele>
        <time>2011-09-18T09:45:45Z</time>
      </trkpt>
      <trkpt lat="44.22995" lon="3.78385">
        <ele>860.466</ele>
        <time>2011-09-18T09:45:55Z</time>
      </trkpt>
      <trkpt lat="44.22986" lon="3.78401">
        <ele>859.113</ele>
        <time>2011-09-18T09:46:05Z</time>
      </trkpt>
      <trkpt lat="44.22976" lon="3.78413">
        <ele>858.297</ele>
        <time>2011-09-18T09:46:15Z</time>
      </trkpt>
      <trkpt lat="44.22966" lon="3.7842">
        <ele>857.687</ele>
        <time>2011-09-18T09:46:25Z</time>
      </trkpt>
      <trkpt lat="44.22953" lon="3.78427">
        <ele>855.17</ele>
        <time>2011-09-18T09:46:35Z</time>
      </trkpt>
      <trkpt lat="44.22944" lon="3.78439">
        <ele>853.287</ele>
        <time>2011-09-18T09:46:45Z</time>
      </trkpt>
      <trkpt lat="44.22928" lon="3.78438">
        <ele>851.674</ele>
        <time>2011-09-18T09:46:55Z</time>
      </trkpt>
      <trkpt lat="44.22916" lon="3.78435">
        <ele>851.101</ele>
        <time>2011-09-18T09:47:05Z</time>
      </trkpt>
      <trkpt lat="44.22903" lon="3.78443">
        <ele>850.492</ele>
        <time>2011-09-18T09:47:15Z</time>
      </trkpt>
      <trkpt lat="44.22889" lon="3.7845">
        <ele>849.605</ele>
        <time>2011-09-18T09:47:25Z</time>
      </trkpt>
      <trkpt lat="44.22879" lon="3.78454">
        <ele>848.258</ele>
        <time>2011-09-18T09:47:35Z</time>
      </trkpt>
      <trkpt lat="44.22866" lon="3.78466">
        <ele>847.224</ele>
        <time>2011-09-18T09:47:45Z</time>
      </trkpt>
      <trkpt lat="44.22855" lon="3.78475">
        <ele>845.966</ele>
        <time>2011-09-18T09:47:55Z</time>
      </trkpt>
      <trkpt lat="44.22844" lon="3.78488">
        <ele>844.628</ele>
        <time>2011-09-18T09:48:05Z</time>
      </trkpt>
      <trkpt lat="44.22832" lon="3.78497">
        <ele>843.683</ele>
        <time>2011-09-18T09:48:15Z</time>
      </trkpt>
      <trkpt lat="44.22818" lon="3.78505">
        <ele>842.377</ele>
        <time>2011-09-18T09:48:25Z</time>
      </trkpt>
      <trkpt lat="44.2281" lon="3.78509">
        <ele>841.338</ele>
        <time>2011-09-18T09:48:35Z</time>
      </trkpt>
      <trkpt lat="44.228" lon="3.78521">
        <ele>841.389</ele>
        <time>2011-09-18T09:48:45Z</time>
      </trkpt>
      <trkpt lat="44.22789" lon="3.78531">
        <ele>840.477</ele>
        <time>2011-09-18T09:48:55Z</time>
      </trkpt>
      <trkpt lat="44.22777" lon="3.78541">
        <ele>839.796</ele>
        <time>2011-09-18T09:49:05Z</time>
      </trkpt>
      <trkpt lat="44.22768" lon="3.78552">
        <ele>838.595</ele>
        <time>2011-09-18T09:49:15Z</time>
      </trkpt>
      <trkpt lat="44.22754" lon="3.78562">
        <ele>836.928</ele>
        <time>2011-09-18T09:49:25Z</time>
      </trkpt>
      <trkpt lat="44.22743" lon="3.7857">
        <ele>835.629</ele>
        <time>2011-09-18T09:49:35Z</time>
      </trkpt>
      <trkpt lat="44.22733" lon="3.78576">
        <ele>834.667</ele>
        <time>2011-09-18T09:49:45Z</time>
      </trkpt>
      <trkpt lat="44.2272" lon="3.78588">
        <ele>834.154</ele>
        <time>2011-09-18T09:49:55Z</time>
      </trkpt>
      <trkpt lat="44.22711" lon="3.78601">
        <ele>834.09</ele>
        <time>2011-09-18T09:50:05Z</time>
      </trkpt>
      <trkpt lat="44.22702" lon="3.78612">
        <ele>834.444</ele>
        <time>2011-09-18T09:50:15Z</time>
      </trkpt>
      <trkpt lat="44.22695" lon="3.78623">
        <ele>834.315</ele>
        <time>2011-09-18T09:50:25Z</time>
      </trkpt>
      <trkpt lat="44.22685" lon="3.78634">
        <ele>833.669</ele>
        <time>2011-09-18T09:50:35Z</time>
      </trkpt>
      <trkpt lat="44.22672" lon="3.78646">
        <ele>833.287</ele>
        <time>2011-09-18T09:50:45Z</time>
      </trkpt>
      <trkpt lat="44.22662" lon="3.78656">
        <ele>832.714</ele>
        <time>2011-09-18T09:50:55Z</time>
      </trkpt>
      <trkpt lat="44.2265" lon="3.78672">
        <ele>831.957</ele>
        <time>2011-09-18T09:51:05Z</time>
      </trkpt>
      <trkpt lat="44.2264" lon="3.7869">
        <ele>830.409</ele>
        <time>2011-09-18T09:51:15Z</time>
      </trkpt>
      <trkpt lat="44.22635" lon="3.78708">
        <ele>830.293</ele>
        <time>2011-09-18T09:51:25Z</time>
      </trkpt>
      <trkpt lat="44.2263" lon="3.78727">
        <ele>829.05</ele>
        <time>2011-09-18T09:51:35Z</time>
      </trkpt>
      <trkpt lat="44.22625" lon="3.78746">
        <ele>828.65</ele>
        <time>2011-09-18T09:51:45Z</time>
      </trkpt>
      <trkpt lat="44.2262" lon="3.78763">
        <ele>827.801</ele>
        <time>2011-09-18T09:51:55Z</time>
      </trkpt>
      <trkpt lat="44.22616" lon="3.78777">
        <ele>826.876</ele>
        <time>2011-09-18T09:52:05Z</time>
      </trkpt>
      <trkpt lat="44.22609" lon="3.78794">
        <ele>826.429</ele>
        <time>2011-09-18T09:52:15Z</time>
      </trkpt>
      <trkpt lat="44.22606" lon="3.78809">
        <ele>825.583</ele>
        <time>2011-09-18T09:52:25Z</time>
      </trkpt>
      <trkpt lat="44.22601" lon="3.78824">
        <ele>825.208</ele>
        <time>2011-09-18T09:52:35Z</time>
      </trkpt>
      <trkpt lat="44.22593" lon="3.78846">
        <ele>824.975</ele>
        <time>2011-09-18T09:52:45Z</time>
      </trkpt>
      <trkpt lat="44.2259" lon="3.78862">
        <ele>824.412</ele>
        <time>2011-09-18T09:52:55Z</time>
      </trkpt>
      <trkpt lat="44.22584" lon="3.78881">
        <ele>824.055</ele>
        <time>2011-09-18T09:53:05Z</time>
      </trkpt>
      <trkpt lat="44.22586" lon="3.78895">
        <ele>823.788</ele>
        <time>2011-09-18T09:53:15Z</time>
      </trkpt>
      <trkpt lat="44.22579" lon="3.78912">
        <ele>823.022</ele>
        <time>2011-09-18T09:53:25Z</time>
      </trkpt>
      <trkpt lat="44.22575" lon="3.78928">
        <ele>822.583</ele>
        <time>2011-09-18T09:53:35Z</time>
      </trkpt>
      <trkpt lat="44.22574" lon="3.78944">
        <ele>822.314</ele>
        <time>2011-09-18T09:53:45Z</time>
      </trkpt>
      <trkpt lat="44.22571" lon="3.78963">
        <ele>822.54</ele>
        <time>2011-09-18T09:53:55Z</time>
      </trkpt>
      <trkpt lat="44.22565" lon="3.78979">
        <ele>822.609</ele>
        <time>2011-09-18T09:54:05Z</time>
      </trkpt>
      <trkpt lat="44.22553" lon="3.78985">
        <ele>822.665</ele>
        <time>2011-09-18T09:54:15Z</time>
      </trkpt>
      <trkpt lat="44.22541" lon="3.78986">
        <ele>821.988</ele>
        <time>2011-09-18T09:54:25Z</time>
      </trkpt>
      <trkpt lat="44.22528" lon="3.78998">
        <ele>821.047</ele>
        <time>2011-09-18T09:54:35Z</time>
      </trkpt>
      <trkpt lat="44.22517" lon="3.79014">
        <ele>819.669</ele>
        <time>2011-09-18T09:54:45Z</time>
      </trkpt>
      <trkpt lat="44.22513" lon="3.79032">
        <ele>818.861</ele>
        <time>2011-09-18T09:54:55Z</time>
      </trkpt>
      <trkpt lat="44.22509" lon="3.79042">
        <ele>818.822</ele>
        <time>2011-09-18T09:55:05Z</time>
      </trkpt>
      <trkpt lat="44.22503" lon="3.79065">
        <ele>817.519</ele>
        <time>2011-09-18T09:55:15Z</time>
      </trkpt>
      <trkpt lat="44.225" lon="3.79081">
        <ele>816.356</ele>
        <time>2011-09-18T09:55:25Z</time>
      </trkpt>
      <trkpt lat="44.22495" lon="3.791">
        <ele>815.101</ele>
        <time>2011-09-18T09:55:35Z</time>
      </trkpt>
      <trkpt lat="44.2249" lon="3.79112">
        <ele>814.792</ele>
        <time>2011-09-18T09:55:45Z</time>
      </trkpt>
      <trkpt lat="44.22489" lon="3.7911">
        <ele>815.339</ele>
        <time>2011-09-18T09:55:55Z</time>
      </trkpt>
      <trkpt lat="44.22489" lon="3.7911">
        <ele>815.55</ele>
        <time>2011-09-18T09:56:05Z</time>
      </trkpt>
      <trkpt lat="44.2249" lon="3.79109">
        <ele>815.991</ele>
        <time>2011-09-18T09:56:15Z</time>
      </trkpt>
      <trkpt lat="44.22488" lon="3.79117">
        <ele>816.869</ele>
        <time>2011-09-18T09:56:25Z</time>
      </trkpt>
      <trkpt lat="44.22484" lon="3.79131">
        <ele>814.911</ele>
        <time>2011-09-18T09:56:35Z</time>
      </trkpt>
      <trkpt lat="44.22478" lon="3.79146">
        <ele>813.01</ele>
        <time>2011-09-18T09:56:45Z</time>
      </trkpt>
      <trkpt lat="44.22473" lon="3.7916">
        <ele>812.304</ele>
        <time>2011-09-18T09:56:55Z</time>
      </trkpt>
      <trkpt lat="44.22466" lon="3.79172">
        <ele>811.01</ele>
        <time>2011-09-18T09:57:05Z</time>
      </trkpt>
      <trkpt lat="44.22458" lon="3.79187">
        <ele>809.869</ele>
        <time>2011-09-18T09:57:15Z</time>
      </trkpt>
      <trkpt lat="44.22448" lon="3.79203">
        <ele>808.601</ele>
        <time>2011-09-18T09:57:25Z</time>
      </trkpt>
      <trkpt lat="44.22442" lon="3.79218">
        <ele>807.53</ele>
        <time>2011-09-18T09:57:35Z</time>
      </trkpt>
      <trkpt lat="44.22434" lon="3.79232">
        <ele>807.207</ele>
        <time>2011-09-18T09:57:45Z</time>
      </trkpt>
      <trkpt lat="44.22428" lon="3.79251">
        <ele>806.502</ele>
        <time>2011-09-18T09:57:55Z</time>
      </trkpt>
      <trkpt lat="44.22421" lon="3.7927">
        <ele>805.175</ele>
        <time>2011-09-18T09:58:05Z</time>
      </trkpt>
      <trkpt lat="44.22414" lon="3.79288">
        <ele>804.15</ele>
        <time>2011-09-18T09:58:15Z</time>
      </trkpt>
      <trkpt lat="44.22409" lon="3.79299">
        <ele>803.48</ele>
        <time>2011-09-18T09:58:25Z</time>
      </trkpt>
      <trkpt lat="44.22404" lon="3.79315">
        <ele>802.572</ele>
        <time>2011-09-18T09:58:35Z</time>
      </trkpt>
      <trkpt lat="44.22403" lon="3.79331">
        <ele>801.955</ele>
        <time>2011-09-18T09:58:45Z</time>
      </trkpt>
      <trkpt lat="44.22409" lon="3.79349">
        <ele>801.577</ele>
        <time>2011-09-18T09:58:55Z</time>
      </trkpt>
      <trkpt lat="44.22417" lon="3.79364">
        <ele>801.316</ele>
        <time>2011-09-18T09:59:05Z</time>
      </trkpt>
      <trkpt lat="44.22423" lon="3.79382">
        <ele>800.937</ele>
        <time>2011-09-18T09:59:15Z</time>
      </trkpt>
      <trkpt lat="44.2243" lon="3.79396">
        <ele>800.274</ele>
        <time>2011-09-18T09:59:25Z</time>
      </trkpt>
      <trkpt lat="44.22439" lon="3.79408">
        <ele>799.964</ele>
        <time>2011-09-18T09:59:35Z</time>
      </trkpt>
      <trkpt lat="44.22444" lon="3.79426">
        <ele>799.917</ele>
        <time>2011-09-18T09:59:45Z</time>
      </trkpt>
      <trkpt lat="44.22451" lon="3.79439">
        <ele>799.602</ele>
        <time>2011-09-18T09:59:55Z</time>
      </trkpt>
      <trkpt lat="44.22462" lon="3.79449">
        <ele>798.794</ele>
        <time>2011-09-18T10:00:05Z</time>
      </trkpt>
      <trkpt lat="44.22467" lon="3.79467">
        <ele>797.84</ele>
        <time>2011-09-18T10:00:15Z</time>
      </trkpt>
      <trkpt lat="44.22467" lon="3.79488">
        <ele>797.626</ele>
        <time>2011-09-18T10:00:25Z</time>
      </trkpt>
      <trkpt lat="44.22473" lon="3.79507">
        <ele>797.382</ele>
        <time>2011-09-18T10:00:35Z</time>
      </trkpt>
      <trkpt lat="44.22475" lon="3.79525">
        <ele>797.16</ele>
        <time>2011-09-18T10:00:45Z</time>
      </trkpt>
      <trkpt lat="44.22476" lon="3.79543">
        <ele>796.493</ele>
        <time>2011-09-18T10:00:55Z</time>
      </trkpt>
      <trkpt lat="44.22478" lon="3.79562">
        <ele>796.084</ele>
        <time>2011-09-18T10:01:05Z</time>
      </trkpt>
      <trkpt lat="44.22477" lon="3.79579">
        <ele>794.942</ele>
        <time>2011-09-18T10:01:15Z</time>
      </trkpt>
      <trkpt lat="44.22476" lon="3.79594">
        <ele>793.73</ele>
        <time>2011-09-18T10:01:25Z</time>
      </trkpt>
      <trkpt lat="44.22474" lon="3.79612">
        <ele>792.858</ele>
        <time>2011-09-18T10:01:35Z</time>
      </trkpt>
      <trkpt lat="44.22472" lon="3.79629">
        <ele>791.554</ele>
        <time>2011-09-18T10:01:45Z</time>
      </trkpt>
      <trkpt lat="44.22472" lon="3.79648">
        <ele>790.788</ele>
        <time>2011-09-18T10:01:55Z</time>
      </trkpt>
      <trkpt lat="44.22473" lon="3.79667">
        <ele>789.937</ele>
        <time>2011-09-18T10:02:05Z</time>
      </trkpt>
      <trkpt lat="44.22464" lon="3.79684">
        <ele>789.489</ele>
        <time>2011-09-18T10:02:15Z</time>
      </trkpt>
      <trkpt lat="44.22456" lon="3.79693">
        <ele>788.941</ele>
        <time>2011-09-18T10:02:25Z</time>
      </trkpt>
      <trkpt lat="44.22454" lon="3.79692">
        <ele>789.091</ele>
        <time>2011-09-18T10:02:35Z</time>
      </trkpt>
      <trkpt lat="44.22455" lon="3.79691">
        <ele>788.964</ele>
        <time>2011-09-18T10:02:45Z</time>
      </trkpt>
      <trkpt lat="44.22456" lon="3.7969">
        <ele>788.925</ele>
        <time>2011-09-18T10:02:55Z</time>
      </trkpt>
      <trkpt lat="44.22456" lon="3.79689">
        <ele>789.428</ele>
        <time>2011-09-18T10:03:05Z</time>
      </trkpt>
      <trkpt lat="44.22465" lon="3.79684">
        <ele>789.128</ele>
        <time>2011-09-18T10:03:15Z</time>
      </trkpt>
      <trkpt lat="44.22476" lon="3.79678">
        <ele>788.511</ele>
        <time>2011-09-18T10:03:25Z</time>
      </trkpt>
      <trkpt lat="44.22483" lon="3.79672">
        <ele>787.886</ele>
        <time>2011-09-18T10:03:35Z</time>
      </trkpt>
      <trkpt lat="44.22484" lon="3.79655">
        <ele>787.026</ele>
        <time>2011-09-18T10:03:45Z</time>
      </trkpt>
      <trkpt lat="44.22492" lon="3.7963">
        <ele>785.839</ele>
        <time>2011-09-18T10:03:55Z</time>
      </trkpt>
      <trkpt lat="44.22495" lon="3.79614">
        <ele>786.112</ele>
        <time>2011-09-18T10:04:05Z</time>
      </trkpt>
      <trkpt lat="44.22505" lon="3.79604">
        <ele>784.856</ele>
        <time>2011-09-18T10:04:15Z</time>
      </trkpt>
      <trkpt lat="44.22518" lon="3.79616">
        <ele>780.477</ele>
        <time>2011-09-18T10:04:25Z</time>
      </trkpt>
      <trkpt lat="44.22522" lon="3.79634">
        <ele>779.465</ele>
        <time>2011-09-18T10:04:35Z</time>
      </trkpt>
      <trkpt lat="44.22522" lon="3.79651">
        <ele>778.755</ele>
        <time>2011-09-18T10:04:45Z</time>
      </trkpt>
      <trkpt lat="44.22525" lon="3.79668">
        <ele>777.646</ele>
        <time>2011-09-18T10:04:55Z</time>
      </trkpt>
      <trkpt lat="44.22528" lon="3.79686">
        <ele>776.5</ele>
        <time>2011-09-18T10:05:05Z</time>
      </trkpt>
      <trkpt lat="44.22536" lon="3.79705">
        <ele>775.372</ele>
        <time>2011-09-18T10:05:15Z</time>
      </trkpt>
      <trkpt lat="44.22537" lon="3.79722">
        <ele>774.44</ele>
        <time>2011-09-18T10:05:25Z</time>
      </trkpt>
      <trkpt lat="44.22537" lon="3.7974">
        <ele>773.552</ele>
        <time>2011-09-18T10:05:35Z</time>
      </trkpt>
      <trkpt lat="44.22542" lon="3.79755">
        <ele>772.504</ele>
        <time>2011-09-18T10:05:45Z</time>
      </trkpt>
      <trkpt lat="44.22547" lon="3.7977">
        <ele>771.177</ele>
        <time>2011-09-18T10:05:55Z</time>
      </trkpt>
      <trkpt lat="44.22549" lon="3.7979">
        <ele>770.321</ele>
        <time>2011-09-18T10:06:05Z</time>
      </trkpt>
      <trkpt lat="44.22544" lon="3.79804">
        <ele>768.434</ele>
        <time>2011-09-18T10:06:15Z</time>
      </trkpt>
      <trkpt lat="44.22544" lon="3.79818">
        <ele>767.618</ele>
        <time>2011-09-18T10:06:25Z</time>
      </trkpt>
      <trkpt lat="44.22542" lon="3.79834">
        <ele>766.554</ele>
        <time>2011-09-18T10:06:35Z</time>
      </trkpt>
      <trkpt lat="44.22538" lon="3.79851">
        <ele>765.859</ele>
        <time>2011-09-18T10:06:45Z</time>
      </trkpt>
      <trkpt lat="44.22531" lon="3.79867">
        <ele>765.082</ele>
        <time>2011-09-18T10:06:55Z</time>
      </trkpt>
      <trkpt lat="44.22522" lon="3.79878">
        <ele>763.673</ele>
        <time>2011-09-18T10:07:05Z</time>
      </trkpt>
      <trkpt lat="44.22513" lon="3.79887">
        <ele>762.268</ele>
        <time>2011-09-18T10:07:15Z</time>
      </trkpt>
      <trkpt lat="44.22503" lon="3.79892">
        <ele>760.747</ele>
        <time>2011-09-18T10:07:25Z</time>
      </trkpt>
      <trkpt lat="44.22489" lon="3.79898">
        <ele>759.891</ele>
        <time>2011-09-18T10:07:35Z</time>
      </trkpt>
      <trkpt lat="44.22485" lon="3.79903">
        <ele>759.159</ele>
        <time>2011-09-18T10:07:45Z</time>
      </trkpt>
      <trkpt lat="44.22472" lon="3.79907">
        <ele>757.743</ele>
        <time>2011-09-18T10:07:55Z</time>
      </trkpt>
      <trkpt lat="44.22458" lon="3.79912">
        <ele>756.237</ele>
        <time>2011-09-18T10:08:05Z</time>
      </trkpt>
      <trkpt lat="44.22444" lon="3.79914">
        <ele>755.71</ele>
        <time>2011-09-18T10:08:15Z</time>
      </trkpt>
      <trkpt lat="44.22435" lon="3.79913">
        <ele>754.667</ele>
        <time>2011-09-18T10:08:25Z</time>
      </trkpt>
      <trkpt lat="44.22423" lon="3.79917">
        <ele>753.028</ele>
        <time>2011-09-18T10:08:35Z</time>
      </trkpt>
      <trkpt lat="44.22422" lon="3.79917">
        <ele>753.002</ele>
        <time>2011-09-18T10:08:45Z</time>
      </trkpt>
      <trkpt lat="44.22415" lon="3.79912">
        <ele>752.946</ele>
        <time>2011-09-18T10:08:55Z</time>
      </trkpt>
      <trkpt lat="44.22408" lon="3.79913">
        <ele>751.552</ele>
        <time>2011-09-18T10:09:05Z</time>
      </trkpt>
      <trkpt lat="44.22399" lon="3.79914">
        <ele>750.74</ele>
        <time>2011-09-18T10:09:15Z</time>
      </trkpt>
      <trkpt lat="44.22395" lon="3.79913">
        <ele>749.727</ele>
        <time>2011-09-18T10:09:25Z</time>
      </trkpt>
      <trkpt lat="44.22388" lon="3.79906">
        <ele>748.718</ele>
        <time>2011-09-18T10:09:35Z</time>
      </trkpt>
      <trkpt lat="44.2238" lon="3.79904">
        <ele>747.111</ele>
        <time>2011-09-18T10:09:45Z</time>
      </trkpt>
      <trkpt lat="44.22377" lon="3.79896">
        <ele>745.618</ele>
        <time>2011-09-18T10:09:55Z</time>
      </trkpt>
      <trkpt lat="44.22371" lon="3.799">
        <ele>745.963</ele>
        <time>2011-09-18T10:10:05Z</time>
      </trkpt>
      <trkpt lat="44.2237" lon="3.79898">
        <ele>746.087</ele>
        <time>2011-09-18T10:10:15Z</time>
      </trkpt>
      <trkpt lat="44.22369" lon="3.79898">
        <ele>745.785</ele>
        <time>2011-09-18T10:10:25Z</time>
      </trkpt>
      <trkpt lat="44.2237" lon="3.79898">
        <ele>746.039</ele>
        <time>2011-09-18T10:10:35Z</time>
      </trkpt>
      <trkpt lat="44.22367" lon="3.79897">
        <ele>745.912</ele>
        <time>2011-09-18T10:10:45Z</time>
      </trkpt>
      <trkpt lat="44.22359" lon="3.79889">
        <ele>744.49</ele>
        <time>2011-09-18T10:10:55Z</time>
      </trkpt>
      <trkpt lat="44.22352" lon="3.79878">
        <ele>743.495</ele>
        <time>2011-09-18T10:11:05Z</time>
      </trkpt>
      <trkpt lat="44.22345" lon="3.79866">
        <ele>742.131</ele>
        <time>2011-09-18T10:11:15Z</time>
      </trkpt>
      <trkpt lat="44.22339" lon="3.79853">
        <ele>740.682</ele>
        <time>2011-09-18T10:11:25Z</time>
      </trkpt>
      <trkpt lat="44.22331" lon="3.79838">
        <ele>739.123</ele>
        <time>2011-09-18T10:11:35Z</time>
      </trkpt>
      <trkpt lat="44.22326" lon="3.79823">
        <ele>738.346</ele>
        <time>2011-09-18T10:11:45Z</time>
      </trkpt>
      <trkpt lat="44.22315" lon="3.7982">
        <ele>737.283</ele>
        <time>2011-09-18T10:11:55Z</time>
      </trkpt>
      <trkpt lat="44.22303" lon="3.79823">
        <ele>736.726</ele>
        <time>2011-09-18T10:12:05Z</time>
      </trkpt>
      <trkpt lat="44.22292" lon="3.79833">
        <ele>735.621</ele>
        <time>2011-09-18T10:12:15Z</time>
      </trkpt>
      <trkpt lat="44.22281" lon="3.79841">
        <ele>734.12</ele>
        <time>2011-09-18T10:12:25Z</time>
      </trkpt>
      <trkpt lat="44.22271" lon="3.7985">
        <ele>732.329</ele>
        <time>2011-09-18T10:12:35Z</time>
      </trkpt>
      <trkpt lat="44.22262" lon="3.79854">
        <ele>730.827</ele>
        <time>2011-09-18T10:12:45Z</time>
      </trkpt>
      <trkpt lat="44.22251" lon="3.79857">
        <ele>729.949</ele>
        <time>2011-09-18T10:12:55Z</time>
      </trkpt>
      <trkpt lat="44.22249" lon="3.79862">
        <ele>727.922</ele>
        <time>2011-09-18T10:13:05Z</time>
      </trkpt>
      <trkpt lat="44.2226" lon="3.79856">
        <ele>727.473</ele>
        <time>2011-09-18T10:13:15Z</time>
      </trkpt>
      <trkpt lat="44.2227" lon="3.79853">
        <ele>726.744</ele>
        <time>2011-09-18T10:13:25Z</time>
      </trkpt>
      <trkpt lat="44.22282" lon="3.79864">
        <ele>725.495</ele>
        <time>2011-09-18T10:13:35Z</time>
      </trkpt>
      <trkpt lat="44.22272" lon="3.79872">
        <ele>724.338</ele>
        <time>2011-09-18T10:13:45Z</time>
      </trkpt>
      <trkpt lat="44.22262" lon="3.79874">
        <ele>722.618</ele>
        <time>2011-09-18T10:13:55Z</time>
      </trkpt>
      <trkpt lat="44.22252" lon="3.79877">
        <ele>721.148</ele>
        <time>2011-09-18T10:14:05Z</time>
      </trkpt>
      <trkpt lat="44.2224" lon="3.79881">
        <ele>719.597</ele>
        <time>2011-09-18T10:14:15Z</time>
      </trkpt>
      <trkpt lat="44.22232" lon="3.79886">
        <ele>718.714</ele>
        <time>2011-09-18T10:14:25Z</time>
      </trkpt>
      <trkpt lat="44.2223" lon="3.79888">
        <ele>718.538</ele>
        <time>2011-09-18T10:14:35Z</time>
      </trkpt>
      <trkpt lat="44.22218" lon="3.79894">
        <ele>716.99</ele>
        <time>2011-09-18T10:14:45Z</time>
      </trkpt>
      <trkpt lat="44.22207" lon="3.799">
        <ele>714.975</ele>
        <time>2011-09-18T10:14:55Z</time>
      </trkpt>
      <trkpt lat="44.22195" lon="3.7991">
        <ele>713.727</ele>
        <time>2011-09-18T10:15:05Z</time>
      </trkpt>
      <trkpt lat="44.22183" lon="3.7992">
        <ele>713.279</ele>
        <time>2011-09-18T10:15:15Z</time>
      </trkpt>
      <trkpt lat="44.22171" lon="3.79925">
        <ele>711.914</ele>
        <time>2011-09-18T10:15:25Z</time>
      </trkpt>
      <trkpt lat="44.22159" lon="3.79926">
        <ele>710.08</ele>
        <time>2011-09-18T10:15:35Z</time>
      </trkpt>
      <trkpt lat="44.22147" lon="3.79926">
        <ele>708.379</ele>
        <time>2011-09-18T10:15:45Z</time>
      </trkpt>
      <trkpt lat="44.22134" lon="3.79926">
        <ele>706.856</ele>
        <time>2011-09-18T10:15:55Z</time>
      </trkpt>
      <trkpt lat="44.22124" lon="3.79918">
        <ele>705.946</ele>
        <time>2011-09-18T10:16:05Z</time>
      </trkpt>
      <trkpt lat="44.22114" lon="3.7991">
        <ele>704.175</ele>
        <time>2011-09-18T10:16:15Z</time>
      </trkpt>
      <trkpt lat="44.22102" lon="3.79903">
        <ele>702.266</ele>
        <time>2011-09-18T10:16:25Z</time>
      </trkpt>
      <trkpt lat="44.22087" lon="3.799">
        <ele>700.036</ele>
        <time>2011-09-18T10:16:35Z</time>
      </trkpt>
      <trkpt lat="44.22077" lon="3.79891">
        <ele>698.404</ele>
        <time>2011-09-18T10:16:45Z</time>
      </trkpt>
      <trkpt lat="44.22067" lon="3.79883">
        <ele>697.124</ele>
        <time>2011-09-18T10:16:55Z</time>
      </trkpt>
      <trkpt lat="44.22057" lon="3.79872">
        <ele>695.003</ele>
        <time>2011-09-18T10:17:05Z</time>
      </trkpt>
      <trkpt lat="44.22044" lon="3.79863">
        <ele>694.258</ele>
        <time>2011-09-18T10:17:15Z</time>
      </trkpt>
      <trkpt lat="44.22033" lon="3.79858">
        <ele>692.231</ele>
        <time>2011-09-18T10:17:25Z</time>
      </trkpt>
      <trkpt lat="44.2202" lon="3.79856">
        <ele>690.25</ele>
        <time>2011-09-18T10:17:35Z</time>
      </trkpt>
      <trkpt lat="44.22008" lon="3.79852">
        <ele>688.713</ele>
        <time>2011-09-18T10:17:45Z</time>
      </trkpt>
      <trkpt lat="44.22001" lon="3.79856">
        <ele>686.339</ele>
        <time>2011-09-18T10:17:55Z</time>
      </trkpt>
      <trkpt lat="44.21996" lon="3.79867">
        <ele>684.882</ele>
        <time>2011-09-18T10:18:05Z</time>
      </trkpt>
      <trkpt lat="44.2199" lon="3.79879">
        <ele>681.725</ele>
        <time>2011-09-18T10:18:15Z</time>
      </trkpt>
      <trkpt lat="44.21984" lon="3.79889">
        <ele>679.18</ele>
        <time>2011-09-18T10:18:25Z</time>
      </trkpt>
      <trkpt lat="44.21984" lon="3.79907">
        <ele>676.672</ele>
        <time>2011-09-18T10:18:35Z</time>
      </trkpt>
      <trkpt lat="44.2198" lon="3.79924">
        <ele>674.026</ele>
        <time>2011-09-18T10:18:45Z</time>
      </trkpt>
      <trkpt lat="44.21975" lon="3.79937">
        <ele>671.257</ele>
        <time>2011-09-18T10:18:55Z</time>
      </trkpt>
      <trkpt lat="44.2197" lon="3.79939">
        <ele>669.039</ele>
        <time>2011-09-18T10:19:05Z</time>
      </trkpt>
      <trkpt lat="44.21964" lon="3.79952">
        <ele>666.578</ele>
        <time>2011-09-18T10:19:15Z</time>
      </trkpt>
      <trkpt lat="44.21959" lon="3.79972">
        <ele>664.229</ele>
        <time>2011-09-18T10:19:25Z</time>
      </trkpt>
      <trkpt lat="44.2195" lon="3.79977">
        <ele>661.146</ele>
        <time>2011-09-18T10:19:35Z</time>
      </trkpt>
      <trkpt lat="44.21942" lon="3.79985">
        <ele>658.794</ele>
        <time>2011-09-18T10:19:45Z</time>
      </trkpt>
      <trkpt lat="44.21936" lon="3.79998">
        <ele>656.598</ele>
        <time>2011-09-18T10:19:55Z</time>
      </trkpt>
      <trkpt lat="44.21933" lon="3.80015">
        <ele>654.953</ele>
        <time>2011-09-18T10:20:05Z</time>
      </trkpt>
      <trkpt lat="44.21931" lon="3.80027">
        <ele>652.536</ele>
        <time>2011-09-18T10:20:15Z</time>
      </trkpt>
      <trkpt lat="44.21931" lon="3.80046">
        <ele>650.054</ele>
        <time>2011-09-18T10:20:25Z</time>
      </trkpt>
      <trkpt lat="44.21931" lon="3.80064">
        <ele>648.803</ele>
        <time>2011-09-18T10:20:35Z</time>
      </trkpt>
      <trkpt lat="44.21929" lon="3.80078">
        <ele>646.277</ele>
        <time>2011-09-18T10:20:45Z</time>
      </trkpt>
      <trkpt lat="44.21933" lon="3.80092">
        <ele>644.229</ele>
        <time>2011-09-18T10:20:55Z</time>
      </trkpt>
      <trkpt lat="44.21939" lon="3.80105">
        <ele>643.234</ele>
        <time>2011-09-18T10:21:05Z</time>
      </trkpt>
      <trkpt lat="44.21945" lon="3.80116">
        <ele>642.07</ele>
        <time>2011-09-18T10:21:15Z</time>
      </trkpt>
      <trkpt lat="44.21944" lon="3.80134">
        <ele>640.947</ele>
        <time>2011-09-18T10:21:25Z</time>
      </trkpt>
      <trkpt lat="44.21943" lon="3.80149">
        <ele>639.777</ele>
        <time>2011-09-18T10:21:35Z</time>
      </trkpt>
      <trkpt lat="44.21943" lon="3.80168">
        <ele>639.548</ele>
        <time>2011-09-18T10:21:45Z</time>
      </trkpt>
      <trkpt lat="44.21944" lon="3.80186">
        <ele>639.119</ele>
        <time>2011-09-18T10:21:55Z</time>
      </trkpt>
      <trkpt lat="44.21945" lon="3.80206">
        <ele>638.298</ele>
        <time>2011-09-18T10:22:05Z</time>
      </trkpt>
      <trkpt lat="44.21942" lon="3.80221">
        <ele>637.591</ele>
        <time>2011-09-18T10:22:15Z</time>
      </trkpt>
      <trkpt lat="44.21936" lon="3.8023">
        <ele>636.443</ele>
        <time>2011-09-18T10:22:25Z</time>
      </trkpt>
      <trkpt lat="44.21931" lon="3.80239">
        <ele>635.696</ele>
        <time>2011-09-18T10:22:35Z</time>
      </trkpt>
      <trkpt lat="44.21928" lon="3.80254">
        <ele>634.097</ele>
        <time>2011-09-18T10:22:45Z</time>
      </trkpt>
      <trkpt lat="44.21925" lon="3.80269">
        <ele>632.982</ele>
        <time>2011-09-18T10:22:55Z</time>
      </trkpt>
      <trkpt lat="44.21924" lon="3.80278">
        <ele>631.489</ele>
        <time>2011-09-18T10:23:05Z</time>
      </trkpt>
      <trkpt lat="44.21921" lon="3.80287">
        <ele>631.442</ele>
        <time>2011-09-18T10:23:15Z</time>
      </trkpt>
      <trkpt lat="44.21914" lon="3.803">
        <ele>630.186</ele>
        <time>2011-09-18T10:23:25Z</time>
      </trkpt>
      <trkpt lat="44.2191" lon="3.80314">
        <ele>630.202</ele>
        <time>2011-09-18T10:23:35Z</time>
      </trkpt>
      <trkpt lat="44.21909" lon="3.80323">
        <ele>629.939</ele>
        <time>2011-09-18T10:23:45Z</time>
      </trkpt>
      <trkpt lat="44.21908" lon="3.80324">
        <ele>629.969</ele>
        <time>2011-09-18T10:23:55Z</time>
      </trkpt>
      <trkpt lat="44.21908" lon="3.80325">
        <ele>630.113</ele>
        <time>2011-09-18T10:24:05Z</time>
      </trkpt>
      <trkpt lat="44.21907" lon="3.80324">
        <ele>630.129</ele>
        <time>2011-09-18T10:24:15Z</time>
      </trkpt>
      <trkpt lat="44.21907" lon="3.80324">
        <ele>630.315</ele>
        <time>2011-09-18T10:24:25Z</time>
      </trkpt>
      <trkpt lat="44.21907" lon="3.80324">
        <ele>630.203</ele>
        <time>2011-09-18T10:24:35Z</time>
      </trkpt>
      <trkpt lat="44.21907" lon="3.80325">
        <ele>630.234</ele>
        <time>2011-09-18T10:24:45Z</time>
      </trkpt>
      <trkpt lat="44.21907" lon="3.80326">
        <ele>630.444</ele>
        <time>2011-09-18T10:24:55Z</time>
      </trkpt>
      <trkpt lat="44.21898" lon="3.80347">
        <ele>630.064</ele>
        <time>2011-09-18T10:25:05Z</time>
      </trkpt>
      <trkpt lat="44.21897" lon="3.80361">
        <ele>628.638</ele>
        <time>2011-09-18T10:25:15Z</time>
      </trkpt>
      <trkpt lat="44.21891" lon="3.80374">
        <ele>627.251</ele>
        <time>2011-09-18T10:25:25Z</time>
      </trkpt>
      <trkpt lat="44.21884" lon="3.80386">
        <ele>625.53</ele>
        <time>2011-09-18T10:25:35Z</time>
      </trkpt>
      <trkpt lat="44.21877" lon="3.80399">
        <ele>623.519</ele>
        <time>2011-09-18T10:25:45Z</time>
      </trkpt>
      <trkpt lat="44.21865" lon="3.80402">
        <ele>621.747</ele>
        <time>2011-09-18T10:25:55Z</time>
      </trkpt>
      <trkpt lat="44.21865" lon="3.80402">
        <ele>620.684</ele>
        <time>2011-09-18T10:26:05Z</time>
      </trkpt>
      <trkpt lat="44.21852" lon="3.80409">
        <ele>620.251</ele>
        <time>2011-09-18T10:26:15Z</time>
      </trkpt>
      <trkpt lat="44.21842" lon="3.80414">
        <ele>618.016</ele>
        <time>2011-09-18T10:26:25Z</time>
      </trkpt>
      <trkpt lat="44.21831" lon="3.80407">
        <ele>616.353</ele>
        <time>2011-09-18T10:26:35Z</time>
      </trkpt>
      <trkpt lat="44.21826" lon="3.80394">
        <ele>615.177</ele>
        <time>2011-09-18T10:26:45Z</time>
      </trkpt>
      <trkpt lat="44.21818" lon="3.80398">
        <ele>613.873</ele>
        <time>2011-09-18T10:26:55Z</time>
      </trkpt>
      <trkpt lat="44.21821" lon="3.80413">
        <ele>611.954</ele>
        <time>2011-09-18T10:27:05Z</time>
      </trkpt>
      <trkpt lat="44.21824" lon="3.8043">
        <ele>610.411</ele>
        <time>2011-09-18T10:27:15Z</time>
      </trkpt>
      <trkpt lat="44.21829" lon="3.80446">
        <ele>608.93</ele>
        <time>2011-09-18T10:27:25Z</time>
      </trkpt>
      <trkpt lat="44.2184" lon="3.80454">
        <ele>607.61</ele>
        <time>2011-09-18T10:27:35Z</time>
      </trkpt>
      <trkpt lat="44.21847" lon="3.80468">
        <ele>605.565</ele>
        <time>2011-09-18T10:27:45Z</time>
      </trkpt>
      <trkpt lat="44.21853" lon="3.80479">
        <ele>604.281</ele>
        <time>2011-09-18T10:27:55Z</time>
      </trkpt>
      <trkpt lat="44.21862" lon="3.80482">
        <ele>602.103</ele>
        <time>2011-09-18T10:28:05Z</time>
      </trkpt>
      <trkpt lat="44.21882" lon="3.80487">
        <ele>600.708</ele>
        <time>2011-09-18T10:28:15Z</time>
      </trkpt>
      <trkpt lat="44.21894" lon="3.80487">
        <ele>599.233</ele>
        <time>2011-09-18T10:28:25Z</time>
      </trkpt>
      <trkpt lat="44.21906" lon="3.80491">
        <ele>597.177</ele>
        <time>2011-09-18T10:28:35Z</time>
      </trkpt>
      <trkpt lat="44.21917" lon="3.80493">
        <ele>595.326</ele>
        <time>2011-09-18T10:28:45Z</time>
      </trkpt>
      <trkpt lat="44.21926" lon="3.8049">
        <ele>593.568</ele>
        <time>2011-09-18T10:28:55Z</time>
      </trkpt>
      <trkpt lat="44.21935" lon="3.80478">
        <ele>592.392</ele>
        <time>2011-09-18T10:29:05Z</time>
      </trkpt>
      <trkpt lat="44.21943" lon="3.80467">
        <ele>591.5</ele>
        <time>2011-09-18T10:29:15Z</time>
      </trkpt>
      <trkpt lat="44.21949" lon="3.80453">
        <ele>590.092</ele>
        <time>2011-09-18T10:29:25Z</time>
      </trkpt>
      <trkpt lat="44.21954" lon="3.8044">
        <ele>588.77</ele>
        <time>2011-09-18T10:29:35Z</time>
      </trkpt>
      <trkpt lat="44.21963" lon="3.80428">
        <ele>586.988</ele>
        <time>2011-09-18T10:29:45Z</time>
      </trkpt>
      <trkpt lat="44.21973" lon="3.80419">
        <ele>585.06</ele>
        <time>2011-09-18T10:29:55Z</time>
      </trkpt>
      <trkpt lat="44.21982" lon="3.80409">
        <ele>583.049</ele>
        <time>2011-09-18T10:30:05Z</time>
      </trkpt>
      <trkpt lat="44.21993" lon="3.80402">
        <ele>581.906</ele>
        <time>2011-09-18T10:30:15Z</time>
      </trkpt>
      <trkpt lat="44.21993" lon="3.80421">
        <ele>577.809</ele>
        <time>2011-09-18T10:30:25Z</time>
      </trkpt>
      <trkpt lat="44.21995" lon="3.80434">
        <ele>574.989</ele>
        <time>2011-09-18T10:30:35Z</time>
      </trkpt>
      <trkpt lat="44.22008" lon="3.80437">
        <ele>571.527</ele>
        <time>2011-09-18T10:30:45Z</time>
      </trkpt>
      <trkpt lat="44.22015" lon="3.80426">
        <ele>569.099</ele>
        <time>2011-09-18T10:30:55Z</time>
      </trkpt>
      <trkpt lat="44.2202" lon="3.80417">
        <ele>568.053</ele>
        <time>2011-09-18T10:31:05Z</time>
      </trkpt>
      <trkpt lat="44.22025" lon="3.8041">
        <ele>566.255</ele>
        <time>2011-09-18T10:31:15Z</time>
      </trkpt>
      <trkpt lat="44.22031" lon="3.80399">
        <ele>563.892</ele>
        <time>2011-09-18T10:31:25Z</time>
      </trkpt>
      <trkpt lat="44.22039" lon="3.80387">
        <ele>563.202</ele>
        <time>2011-09-18T10:31:35Z</time>
      </trkpt>
      <trkpt lat="44.2204" lon="3.80376">
        <ele>561.664</ele>
        <time>2011-09-18T10:31:45Z</time>
      </trkpt>
      <trkpt lat="44.22046" lon="3.80379">
        <ele>557.977</ele>
        <time>2011-09-18T10:31:55Z</time>
      </trkpt>
      <trkpt lat="44.22058" lon="3.80401">
        <ele>555.357</ele>
        <time>2011-09-18T10:32:05Z</time>
      </trkpt>
      <trkpt lat="44.22062" lon="3.80417">
        <ele>553.287</ele>
        <time>2011-09-18T10:32:15Z</time>
      </trkpt>
      <trkpt lat="44.22071" lon="3.80423">
        <ele>551.99</ele>
        <time>2011-09-18T10:32:25Z</time>
      </trkpt>
      <trkpt lat="44.2207" lon="3.8042">
        <ele>552.783</ele>
        <time>2011-09-18T10:32:35Z</time>
      </trkpt>
      <trkpt lat="44.22071" lon="3.80424">
        <ele>552.131</ele>
        <time>2011-09-18T10:32:45Z</time>
      </trkpt>
      <trkpt lat="44.22071" lon="3.80437">
        <ele>550.616</ele>
        <time>2011-09-18T10:32:55Z</time>
      </trkpt>
      <trkpt lat="44.22063" lon="3.80446">
        <ele>549.897</ele>
        <time>2011-09-18T10:33:05Z</time>
      </trkpt>
      <trkpt lat="44.22063" lon="3.80445">
        <ele>550.341</ele>
        <time>2011-09-18T10:33:15Z</time>
      </trkpt>
      <trkpt lat="44.22061" lon="3.80445">
        <ele>549.793</ele>
        <time>2011-09-18T10:33:25Z</time>
      </trkpt>
      <trkpt lat="44.2206" lon="3.80445">
        <ele>549.613</ele>
        <time>2011-09-18T10:33:35Z</time>
      </trkpt>
      <trkpt lat="44.2206" lon="3.80453">
        <ele>548.693</ele>
        <time>2011-09-18T10:33:45Z</time>
      </trkpt>
      <trkpt lat="44.2206" lon="3.80466">
        <ele>547.024</ele>
        <time>2011-09-18T10:33:55Z</time>
      </trkpt>
      <trkpt lat="44.22057" lon="3.80483">
        <ele>545.453</ele>
        <time>2011-09-18T10:34:05Z</time>
      </trkpt>
      <trkpt lat="44.22043" lon="3.80497">
        <ele>544.016</ele>
        <time>2011-09-18T10:34:15Z</time>
      </trkpt>
      <trkpt lat="44.22041" lon="3.80516">
        <ele>542.91</ele>
        <time>2011-09-18T10:34:25Z</time>
      </trkpt>
      <trkpt lat="44.22032" lon="3.8053">
        <ele>540.941</ele>
        <time>2011-09-18T10:34:35Z</time>
      </trkpt>
      <trkpt lat="44.22026" lon="3.80545">
        <ele>539.61</ele>
        <time>2011-09-18T10:34:45Z</time>
      </trkpt>
      <trkpt lat="44.22033" lon="3.80537">
        <ele>537.61</ele>
        <time>2011-09-18T10:34:55Z</time>
      </trkpt>
      <trkpt lat="44.2204" lon="3.80525">
        <ele>536.177</ele>
        <time>2011-09-18T10:35:05Z</time>
      </trkpt>
      <trkpt lat="44.22042" lon="3.80511">
        <ele>534.134</ele>
        <time>2011-09-18T10:35:15Z</time>
      </trkpt>
      <trkpt lat="44.22047" lon="3.80501">
        <ele>532.446</ele>
        <time>2011-09-18T10:35:25Z</time>
      </trkpt>
      <trkpt lat="44.22063" lon="3.80496">
        <ele>530.935</ele>
        <time>2011-09-18T10:35:35Z</time>
      </trkpt>
      <trkpt lat="44.22067" lon="3.80507">
        <ele>528.898</ele>
        <time>2011-09-18T10:35:45Z</time>
      </trkpt>
      <trkpt lat="44.22055" lon="3.80515">
        <ele>526.636</ele>
        <time>2011-09-18T10:35:55Z</time>
      </trkpt>
      <trkpt lat="44.22053" lon="3.80528">
        <ele>524.833</ele>
        <time>2011-09-18T10:36:05Z</time>
      </trkpt>
      <trkpt lat="44.22047" lon="3.80538">
        <ele>523.434</ele>
        <time>2011-09-18T10:36:15Z</time>
      </trkpt>
      <trkpt lat="44.22047" lon="3.80538">
        <ele>523.455</ele>
        <time>2011-09-18T10:36:25Z</time>
      </trkpt>
      <trkpt lat="44.22045" lon="3.80544">
        <ele>522.927</ele>
        <time>2011-09-18T10:36:35Z</time>
      </trkpt>
      <trkpt lat="44.22046" lon="3.8055">
        <ele>522.314</ele>
        <time>2011-09-18T10:36:45Z</time>
      </trkpt>
      <trkpt lat="44.22046" lon="3.8055">
        <ele>522.415</ele>
        <time>2011-09-18T10:36:55Z</time>
      </trkpt>
      <trkpt lat="44.22044" lon="3.80554">
        <ele>522.379</ele>
        <time>2011-09-18T10:37:05Z</time>
      </trkpt>
      <trkpt lat="44.22039" lon="3.80568">
        <ele>520.419</ele>
        <time>2011-09-18T10:37:15Z</time>
      </trkpt>
      <trkpt lat="44.22035" lon="3.8058">
        <ele>518.648</ele>
        <time>2011-09-18T10:37:25Z</time>
      </trkpt>
      <trkpt lat="44.22034" lon="3.80585">
        <ele>517.669</ele>
        <time>2011-09-18T10:37:35Z</time>
      </trkpt>
      <trkpt lat="44.22031" lon="3.8059">
        <ele>518.044</ele>
        <time>2011-09-18T10:37:45Z</time>
      </trkpt>
      <trkpt lat="44.22027" lon="3.80606">
        <ele>516.244</ele>
        <time>2011-09-18T10:37:55Z</time>
      </trkpt>
      <trkpt lat="44.22025" lon="3.80622">
        <ele>514.646</ele>
        <time>2011-09-18T10:38:05Z</time>
      </trkpt>
      <trkpt lat="44.22021" lon="3.8063">
        <ele>514.737</ele>
        <time>2011-09-18T10:38:15Z</time>
      </trkpt>
      <trkpt lat="44.22019" lon="3.80637">
        <ele>514.988</ele>
        <time>2011-09-18T10:38:25Z</time>
      </trkpt>
      <trkpt lat="44.22018" lon="3.80637">
        <ele>515.012</ele>
        <time>2011-09-18T10:38:35Z</time>
      </trkpt>
      <trkpt lat="44.22014" lon="3.80638">
        <ele>514.22</ele>
        <time>2011-09-18T10:38:45Z</time>
      </trkpt>
      <trkpt lat="44.22013" lon="3.80636">
        <ele>515.054</ele>
        <time>2011-09-18T10:38:55Z</time>
      </trkpt>
      <trkpt lat="44.22012" lon="3.80636">
        <ele>514.91</ele>
        <time>2011-09-18T10:39:05Z</time>
      </trkpt>
      <trkpt lat="44.22012" lon="3.80636">
        <ele>515.018</ele>
        <time>2011-09-18T10:39:15Z</time>
      </trkpt>
      <trkpt lat="44.22012" lon="3.80636">
        <ele>514.529</ele>
        <time>2011-09-18T10:39:25Z</time>
      </trkpt>
      <trkpt lat="44.22013" lon="3.80636">
        <ele>512.792</ele>
        <time>2011-09-18T10:39:35Z</time>
      </trkpt>
      <trkpt lat="44.22012" lon="3.80635">
        <ele>513.316</ele>
        <time>2011-09-18T10:39:45Z</time>
      </trkpt>
      <trkpt lat="44.22012" lon="3.80635">
        <ele>512.751</ele>
        <time>2011-09-18T10:39:55Z</time>
      </trkpt>
      <trkpt lat="44.22012" lon="3.80635">
        <ele>512.678</ele>
        <time>2011-09-18T10:40:05Z</time>
      </trkpt>
      <trkpt lat="44.22012" lon="3.80635">
        <ele>512.889</ele>
        <time>2011-09-18T10:40:15Z</time>
      </trkpt>
      <trkpt lat="44.22012" lon="3.80635">
        <ele>513.008</ele>
        <time>2011-09-18T10:40:25Z</time>
      </trkpt>
      <trkpt lat="44.22012" lon="3.80635">
        <ele>513.055</ele>
        <time>2011-09-18T10:40:35Z</time>
      </trkpt>
      <trkpt lat="44.22012" lon="3.80635">
        <ele>512.717</ele>
        <time>2011-09-18T10:40:45Z</time>
      </trkpt>
      <trkpt lat="44.22012" lon="3.80635">
        <ele>513.301</ele>
        <time>2011-09-18T10:40:55Z</time>
      </trkpt>
      <trkpt lat="44.22012" lon="3.80635">
        <ele>514.017</ele>
        <time>2011-09-18T10:41:05Z</time>
      </trkpt>
      <trkpt lat="44.22012" lon="3.80635">
        <ele>513.079</ele>
        <time>2011-09-18T10:41:15Z</time>
      </trkpt>
      <trkpt lat="44.22012" lon="3.80635">
        <ele>513.904</ele>
        <time>2011-09-18T10:41:25Z</time>
      </trkpt>
      <trkpt lat="44.22013" lon="3.80635">
        <ele>513.782</ele>
        <time>2011-09-18T10:41:35Z</time>
      </trkpt>
      <trkpt lat="44.22012" lon="3.80635">
        <ele>512.701</ele>
        <time>2011-09-18T10:41:45Z</time>
      </trkpt>
      <trkpt lat="44.22012" lon="3.80635">
        <ele>513.585</ele>
        <time>2011-09-18T10:41:55Z</time>
      </trkpt>
      <trkpt lat="44.22012" lon="3.80637">
        <ele>512.819</ele>
        <time>2011-09-18T10:42:05Z</time>
      </trkpt>
      <trkpt lat="44.22012" lon="3.80637">
        <ele>512.497</ele>
        <time>2011-09-18T10:42:15Z</time>
      </trkpt>
      <trkpt lat="44.22011" lon="3.80637">
        <ele>513.164</ele>
        <time>2011-09-18T10:42:25Z</time>
      </trkpt>
      <trkpt lat="44.22011" lon="3.80637">
        <ele>512.137</ele>
        <time>2011-09-18T10:42:35Z</time>
      </trkpt>
      <trkpt lat="44.22011" lon="3.80637">
        <ele>512.184</ele>
        <time>2011-09-18T10:42:45Z</time>
      </trkpt>
      <trkpt lat="44.22011" lon="3.80637">
        <ele>512.839</ele>
        <time>2011-09-18T10:43:21Z</time>
      </trkpt>
      <trkpt lat="44.22011" lon="3.80637">
        <ele>514.111</ele>
        <time>2011-09-18T10:43:42Z</time>
      </trkpt>
      <trkpt lat="44.22011" lon="3.80637">
        <ele>512.913</ele>
        <time>2011-09-18T10:43:53Z</time>
      </trkpt>
      <trkpt lat="44.22011" lon="3.80637">
        <ele>512.719</ele>
        <time>2011-09-18T10:44:03Z</time>
      </trkpt>
      <trkpt lat="44.22011" lon="3.80637">
        <ele>513.041</ele>
        <time>2011-09-18T10:44:13Z</time>
      </trkpt>
      <trkpt lat="44.22011" lon="3.80637">
        <ele>513.409</ele>
        <time>2011-09-18T10:44:23Z</time>
      </trkpt>
      <trkpt lat="44.22011" lon="3.80637">
        <ele>512.519</ele>
        <time>2011-09-18T10:44:33Z</time>
      </trkpt>
      <trkpt lat="44.22011" lon="3.80637">
        <ele>513.469</ele>
        <time>2011-09-18T10:44:47Z</time>
      </trkpt>
      <trkpt lat="44.22011" lon="3.80637">
        <ele>513.287</ele>
        <time>2011-09-18T10:44:57Z</time>
      </trkpt>
      <trkpt lat="44.22011" lon="3.80637">
        <ele>512.899</ele>
        <time>2011-09-18T10:45:07Z</time>
      </trkpt>
      <trkpt lat="44.22011" lon="3.80637">
        <ele>512.812</ele>
        <time>2011-09-18T10:45:17Z</time>
      </trkpt>
      <trkpt lat="44.22011" lon="3.80637">
        <ele>512.816</ele>
        <time>2011-09-18T10:45:27Z</time>
      </trkpt>
      <trkpt lat="44.22011" lon="3.80637">
        <ele>512.26</ele>
        <time>2011-09-18T10:45:37Z</time>
      </trkpt>
      <trkpt lat="44.22011" lon="3.80637">
        <ele>512.54</ele>
        <time>2011-09-18T10:45:47Z</time>
      </trkpt>
      <trkpt lat="44.22011" lon="3.80636">
        <ele>512.652</ele>
        <time>2011-09-18T10:45:57Z</time>
      </trkpt>
      <trkpt lat="44.22011" lon="3.80636">
        <ele>512.162</ele>
        <time>2011-09-18T10:46:22Z</time>
      </trkpt>
      <trkpt lat="44.22011" lon="3.80636">
        <ele>512.818</ele>
        <time>2011-09-18T10:46:37Z</time>
      </trkpt>
      <trkpt lat="44.22011" lon="3.80636">
        <ele>514.073</ele>
        <time>2011-09-18T10:46:47Z</time>
      </trkpt>
      <trkpt lat="44.22011" lon="3.80636">
        <ele>513.761</ele>
        <time>2011-09-18T10:46:57Z</time>
      </trkpt>
      <trkpt lat="44.22011" lon="3.80636">
        <ele>513.038</ele>
        <time>2011-09-18T10:47:07Z</time>
      </trkpt>
      <trkpt lat="44.22011" lon="3.80635">
        <ele>513.491</ele>
        <time>2011-09-18T10:47:17Z</time>
      </trkpt>
      <trkpt lat="44.2201" lon="3.80634">
        <ele>512.749</ele>
        <time>2011-09-18T10:47:27Z</time>
      </trkpt>
      <trkpt lat="44.2201" lon="3.80635">
        <ele>514.037</ele>
        <time>2011-09-18T10:47:37Z</time>
      </trkpt>
      <trkpt lat="44.22012" lon="3.80635">
        <ele>512.857</ele>
        <time>2011-09-18T10:47:47Z</time>
      </trkpt>
      <trkpt lat="44.22013" lon="3.80635">
        <ele>513.576</ele>
        <time>2011-09-18T10:47:57Z</time>
      </trkpt>
      <trkpt lat="44.22012" lon="3.80634">
        <ele>513.5</ele>
        <time>2011-09-18T10:48:07Z</time>
      </trkpt>
      <trkpt lat="44.22012" lon="3.80634">
        <ele>513.759</ele>
        <time>2011-09-18T10:48:17Z</time>
      </trkpt>
      <trkpt lat="44.22012" lon="3.80633">
        <ele>512.294</ele>
        <time>2011-09-18T10:48:27Z</time>
      </trkpt>
      <trkpt lat="44.22012" lon="3.80634">
        <ele>512.438</ele>
        <time>2011-09-18T10:48:37Z</time>
      </trkpt>
      <trkpt lat="44.22012" lon="3.80634">
        <ele>512.834</ele>
        <time>2011-09-18T10:48:47Z</time>
      </trkpt>
      <trkpt lat="44.22012" lon="3.80634">
        <ele>512.445</ele>
        <time>2011-09-18T10:48:57Z</time>
      </trkpt>
      <trkpt lat="44.22013" lon="3.80635">
        <ele>512.647</ele>
        <time>2011-09-18T10:49:07Z</time>
      </trkpt>
      <trkpt lat="44.22013" lon="3.80635">
        <ele>512.339</ele>
        <time>2011-09-18T10:49:17Z</time>
      </trkpt>
      <trkpt lat="44.22013" lon="3.80635">
        <ele>512.174</ele>
        <time>2011-09-18T10:49:27Z</time>
      </trkpt>
      <trkpt lat="44.22013" lon="3.80635">
        <ele>511.145</ele>
        <time>2011-09-18T10:49:37Z</time>
      </trkpt>
      <trkpt lat="44.22014" lon="3.80635">
        <ele>512.417</ele>
        <time>2011-09-18T10:49:47Z</time>
      </trkpt>
      <trkpt lat="44.22014" lon="3.80635">
        <ele>511.668</ele>
        <time>2011-09-18T10:49:57Z</time>
      </trkpt>
      <trkpt lat="44.22014" lon="3.80636">
        <ele>511.86</ele>
        <time>2011-09-18T10:50:07Z</time>
      </trkpt>
      <trkpt lat="44.22014" lon="3.80636">
        <ele>511.284</ele>
        <time>2011-09-18T10:50:17Z</time>
      </trkpt>
      <trkpt lat="44.22013" lon="3.80635">
        <ele>511.146</ele>
        <time>2011-09-18T10:50:27Z</time>
      </trkpt>
      <trkpt lat="44.22013" lon="3.80635">
        <ele>511.563</ele>
        <time>2011-09-18T10:50:37Z</time>
      </trkpt>
      <trkpt lat="44.22013" lon="3.80635">
        <ele>512.323</ele>
        <time>2011-09-18T10:50:47Z</time>
      </trkpt>
      <trkpt lat="44.22013" lon="3.80635">
        <ele>512.39</ele>
        <time>2011-09-18T10:50:57Z</time>
      </trkpt>
      <trkpt lat="44.22013" lon="3.80635">
        <ele>512.385</ele>
        <time>2011-09-18T10:51:07Z</time>
      </trkpt>
      <trkpt lat="44.22013" lon="3.80635">
        <ele>511.352</ele>
        <time>2011-09-18T10:51:17Z</time>
      </trkpt>
      <trkpt lat="44.22013" lon="3.80635">
        <ele>511.94</ele>
        <time>2011-09-18T10:51:27Z</time>
      </trkpt>
      <trkpt lat="44.22013" lon="3.80634">
        <ele>511.476</ele>
        <time>2011-09-18T10:51:37Z</time>
      </trkpt>
      <trkpt lat="44.22013" lon="3.80634">
        <ele>511.267</ele>
        <time>2011-09-18T10:51:47Z</time>
      </trkpt>
      <trkpt lat="44.22013" lon="3.80634">
        <ele>511.078</ele>
        <time>2011-09-18T10:51:57Z</time>
      </trkpt>
      <trkpt lat="44.22013" lon="3.80634">
        <ele>511.357</ele>
        <time>2011-09-18T10:52:07Z</time>
      </trkpt>
      <trkpt lat="44.22013" lon="3.80634">
        <ele>511.126</ele>
        <time>2011-09-18T10:52:17Z</time>
      </trkpt>
      <trkpt lat="44.22013" lon="3.80634">
        <ele>511.032</ele>
        <time>2011-09-18T10:52:27Z</time>
      </trkpt>
      <trkpt lat="44.22013" lon="3.80634">
        <ele>510.84</ele>
        <time>2011-09-18T10:52:37Z</time>
      </trkpt>
      <trkpt lat="44.22013" lon="3.80634">
        <ele>511.271</ele>
        <time>2011-09-18T10:52:47Z</time>
      </trkpt>
      <trkpt lat="44.22013" lon="3.80634">
        <ele>511.151</ele>
        <time>2011-09-18T10:52:57Z</time>
      </trkpt>
      <trkpt lat="44.22013" lon="3.80634">
        <ele>511.113</ele>
        <time>2011-09-18T10:53:07Z</time>
      </trkpt>
      <trkpt lat="44.22013" lon="3.80634">
        <ele>510.885</ele>
        <time>2011-09-18T10:53:17Z</time>
      </trkpt>
      <trkpt lat="44.22013" lon="3.80634">
        <ele>511.077</ele>
        <time>2011-09-18T10:53:27Z</time>
      </trkpt>
      <trkpt lat="44.22013" lon="3.80634">
        <ele>511.386</ele>
        <time>2011-09-18T10:53:37Z</time>
      </trkpt>
      <trkpt lat="44.22013" lon="3.80634">
        <ele>510.707</ele>
        <time>2011-09-18T10:53:47Z</time>
      </trkpt>
      <trkpt lat="44.22013" lon="3.80634">
        <ele>510.737</ele>
        <time>2011-09-18T10:53:57Z</time>
      </trkpt>
      <trkpt lat="44.22013" lon="3.80634">
        <ele>510.742</ele>
        <time>2011-09-18T10:54:07Z</time>
      </trkpt>
      <trkpt lat="44.22013" lon="3.80634">
        <ele>510.931</ele>
        <time>2011-09-18T10:54:17Z</time>
      </trkpt>
      <trkpt lat="44.22013" lon="3.80634">
        <ele>510.977</ele>
        <time>2011-09-18T10:54:27Z</time>
      </trkpt>
      <trkpt lat="44.22013" lon="3.80634">
        <ele>510.709</ele>
        <time>2011-09-18T10:54:37Z</time>
      </trkpt>
      <trkpt lat="44.22013" lon="3.80634">
        <ele>510.751</ele>
        <time>2011-09-18T10:54:47Z</time>
      </trkpt>
      <trkpt lat="44.22013" lon="3.80634">
        <ele>510.64</ele>
        <time>2011-09-18T10:54:57Z</time>
      </trkpt>
      <trkpt lat="44.22013" lon="3.80634">
        <ele>510.689</ele>
        <time>2011-09-18T10:55:07Z</time>
      </trkpt>
      <trkpt lat="44.22013" lon="3.80634">
        <ele>510.701</ele>
        <time>2011-09-18T10:55:17Z</time>
      </trkpt>
      <trkpt lat="44.22013" lon="3.80634">
        <ele>511.043</ele>
        <time>2011-09-18T10:55:27Z</time>
      </trkpt>
      <trkpt lat="44.22013" lon="3.80634">
        <ele>511.116</ele>
        <time>2011-09-18T10:55:37Z</time>
      </trkpt>
      <trkpt lat="44.22013" lon="3.80634">
        <ele>511.146</ele>
        <time>2011-09-18T10:55:47Z</time>
      </trkpt>
      <trkpt lat="44.22013" lon="3.80634">
        <ele>510.787</ele>
        <time>2011-09-18T10:55:57Z</time>
      </trkpt>
      <trkpt lat="44.22013" lon="3.80634">
        <ele>510.972</ele>
        <time>2011-09-18T10:56:07Z</time>
      </trkpt>
      <trkpt lat="44.22013" lon="3.80634">
        <ele>511.008</ele>
        <time>2011-09-18T10:56:17Z</time>
      </trkpt>
      <trkpt lat="44.22013" lon="3.80634">
        <ele>511.003</ele>
        <time>2011-09-18T10:56:27Z</time>
      </trkpt>
      <trkpt lat="44.22013" lon="3.80634">
        <ele>510.835</ele>
        <time>2011-09-18T10:56:37Z</time>
      </trkpt>
      <trkpt lat="44.22013" lon="3.80634">
        <ele>510.815</ele>
        <time>2011-09-18T10:56:47Z</time>
      </trkpt>
      <trkpt lat="44.22013" lon="3.80634">
        <ele>510.964</ele>
        <time>2011-09-18T10:56:57Z</time>
      </trkpt>
      <trkpt lat="44.22013" lon="3.80634">
        <ele>510.648</ele>
        <time>2011-09-18T10:57:07Z</time>
      </trkpt>
      <trkpt lat="44.22013" lon="3.80634">
        <ele>510.78</ele>
        <time>2011-09-18T10:57:17Z</time>
      </trkpt>
      <trkpt lat="44.22013" lon="3.80634">
        <ele>510.587</ele>
        <time>2011-09-18T10:57:27Z</time>
      </trkpt>
      <trkpt lat="44.22013" lon="3.80634">
        <ele>510.476</ele>
        <time>2011-09-18T10:57:37Z</time>
      </trkpt>
      <trkpt lat="44.22013" lon="3.80634">
        <ele>510.478</ele>
        <time>2011-09-18T10:57:47Z</time>
      </trkpt>
      <trkpt lat="44.22013" lon="3.80634">
        <ele>510.613</ele>
        <time>2011-09-18T10:57:57Z</time>
      </trkpt>
      <trkpt lat="44.22013" lon="3.80634">
        <ele>510.689</ele>
        <time>2011-09-18T10:58:07Z</time>
      </trkpt>
      <trkpt lat="44.22013" lon="3.80634">
        <ele>510.456</ele>
        <time>2011-09-18T10:58:17Z</time>
      </trkpt>
      <trkpt lat="44.22013" lon="3.80634">
        <ele>510.234</ele>
        <time>2011-09-18T10:58:27Z</time>
      </trkpt>
      <trkpt lat="44.22013" lon="3.80634">
        <ele>510.605</ele>
        <time>2011-09-18T10:58:37Z</time>
      </trkpt>
      <trkpt lat="44.22013" lon="3.80634">
        <ele>510.288</ele>
        <time>2011-09-18T10:58:47Z</time>
      </trkpt>
      <trkpt lat="44.22013" lon="3.80634">
        <ele>510.428</ele>
        <time>2011-09-18T10:58:57Z</time>
      </trkpt>
      <trkpt lat="44.22013" lon="3.80634">
        <ele>510.26</ele>
        <time>2011-09-18T10:59:07Z</time>
      </trkpt>
      <trkpt lat="44.22013" lon="3.80633">
        <ele>510.549</ele>
        <time>2011-09-18T10:59:17Z</time>
      </trkpt>
      <trkpt lat="44.22013" lon="3.80633">
        <ele>510.23</ele>
        <time>2011-09-18T10:59:27Z</time>
      </trkpt>
      <trkpt lat="44.22013" lon="3.80633">
        <ele>510.139</ele>
        <time>2011-09-18T10:59:37Z</time>
      </trkpt>
      <trkpt lat="44.22013" lon="3.80633">
        <ele>510.204</ele>
        <time>2011-09-18T10:59:47Z</time>
      </trkpt>
      <trkpt lat="44.22013" lon="3.80633">
        <ele>509.821</ele>
        <time>2011-09-18T10:59:57Z</time>
      </trkpt>
      <trkpt lat="44.22013" lon="3.80633">
        <ele>509.93</ele>
        <time>2011-09-18T11:00:07Z</time>
      </trkpt>
      <trkpt lat="44.22013" lon="3.80633">
        <ele>509.793</ele>
        <time>2011-09-18T11:00:17Z</time>
      </trkpt>
      <trkpt lat="44.22013" lon="3.80633">
        <ele>510.045</ele>
        <time>2011-09-18T11:00:27Z</time>
      </trkpt>
      <trkpt lat="44.22013" lon="3.80633">
        <ele>509.809</ele>
        <time>2011-09-18T11:00:37Z</time>
      </trkpt>
      <trkpt lat="44.22013" lon="3.80633">
        <ele>509.976</ele>
        <time>2011-09-18T11:00:47Z</time>
      </trkpt>
      <trkpt lat="44.22013" lon="3.80633">
        <ele>509.91</ele>
        <time>2011-09-18T11:00:57Z</time>
      </trkpt>
      <trkpt lat="44.22013" lon="3.80633">
        <ele>509.878</ele>
        <time>2011-09-18T11:01:07Z</time>
      </trkpt>
      <trkpt lat="44.22013" lon="3.80633">
        <ele>509.945</ele>
        <time>2011-09-18T11:01:17Z</time>
      </trkpt>
      <trkpt lat="44.22013" lon="3.80633">
        <ele>509.63</ele>
        <time>2011-09-18T11:01:27Z</time>
      </trkpt>
      <trkpt lat="44.22013" lon="3.80633">
        <ele>509.837</ele>
        <time>2011-09-18T11:01:37Z</time>
      </trkpt>
      <trkpt lat="44.22013" lon="3.80633">
        <ele>510.187</ele>
        <time>2011-09-18T11:01:47Z</time>
      </trkpt>
      <trkpt lat="44.22013" lon="3.80633">
        <ele>510.365</ele>
        <time>2011-09-18T11:01:57Z</time>
      </trkpt>
      <trkpt lat="44.22013" lon="3.80633">
        <ele>510.206</ele>
        <time>2011-09-18T11:02:07Z</time>
      </trkpt>
      <trkpt lat="44.22013" lon="3.80633">
        <ele>510.262</ele>
        <time>2011-09-18T11:02:17Z</time>
      </trkpt>
      <trkpt lat="44.22013" lon="3.80633">
        <ele>510.366</ele>
        <time>2011-09-18T11:02:27Z</time>
      </trkpt>
      <trkpt lat="44.22013" lon="3.80633">
        <ele>510.513</ele>
        <time>2011-09-18T11:02:37Z</time>
      </trkpt>
      <trkpt lat="44.22013" lon="3.80633">
        <ele>510.467</ele>
        <time>2011-09-18T11:02:47Z</time>
      </trkpt>
      <trkpt lat="44.22013" lon="3.80633">
        <ele>510.785</ele>
        <time>2011-09-18T11:02:57Z</time>
      </trkpt>
      <trkpt lat="44.22013" lon="3.80633">
        <ele>510.533</ele>
        <time>2011-09-18T11:03:07Z</time>
      </trkpt>
      <trkpt lat="44.22013" lon="3.80633">
        <ele>510.945</ele>
        <time>2011-09-18T11:03:17Z</time>
      </trkpt>
      <trkpt lat="44.22013" lon="3.80633">
        <ele>510.604</ele>
        <time>2011-09-18T11:03:27Z</time>
      </trkpt>
      <trkpt lat="44.22013" lon="3.80633">
        <ele>510.519</ele>
        <time>2011-09-18T11:03:37Z</time>
      </trkpt>
      <trkpt lat="44.22013" lon="3.80633">
        <ele>510.698</ele>
        <time>2011-09-18T11:03:47Z</time>
      </trkpt>
      <trkpt lat="44.22013" lon="3.80633">
        <ele>510.666</ele>
        <time>2011-09-18T11:03:57Z</time>
      </trkpt>
      <trkpt lat="44.22013" lon="3.80633">
        <ele>510.165</ele>
        <time>2011-09-18T11:04:07Z</time>
      </trkpt>
      <trkpt lat="44.22013" lon="3.80633">
        <ele>510.143</ele>
        <time>2011-09-18T11:04:17Z</time>
      </trkpt>
      <trkpt lat="44.22013" lon="3.80633">
        <ele>509.884</ele>
        <time>2011-09-18T11:04:27Z</time>
      </trkpt>
      <trkpt lat="44.22013" lon="3.80633">
        <ele>509.684</ele>
        <time>2011-09-18T11:04:37Z</time>
      </trkpt>
      <trkpt lat="44.22013" lon="3.80633">
        <ele>509.47</ele>
        <time>2011-09-18T11:04:47Z</time>
      </trkpt>
      <trkpt lat="44.22013" lon="3.80633">
        <ele>509.735</ele>
        <time>2011-09-18T11:04:57Z</time>
      </trkpt>
      <trkpt lat="44.22013" lon="3.80633">
        <ele>509.536</ele>
        <time>2011-09-18T11:05:07Z</time>
      </trkpt>
      <trkpt lat="44.22013" lon="3.80633">
        <ele>509.129</ele>
        <time>2011-09-18T11:05:17Z</time>
      </trkpt>
      <trkpt lat="44.22013" lon="3.80633">
        <ele>509.476</ele>
        <time>2011-09-18T11:05:27Z</time>
      </trkpt>
      <trkpt lat="44.22013" lon="3.80633">
        <ele>509.271</ele>
        <time>2011-09-18T11:05:37Z</time>
      </trkpt>
      <trkpt lat="44.22013" lon="3.80633">
        <ele>508.873</ele>
        <time>2011-09-18T11:05:47Z</time>
      </trkpt>
      <trkpt lat="44.22013" lon="3.80633">
        <ele>509.002</ele>
        <time>2011-09-18T11:05:57Z</time>
      </trkpt>
      <trkpt lat="44.22013" lon="3.80633">
        <ele>508.682</ele>
        <time>2011-09-18T11:06:07Z</time>
      </trkpt>
      <trkpt lat="44.22013" lon="3.80632">
        <ele>509.305</ele>
        <time>2011-09-18T11:06:17Z</time>
      </trkpt>
      <trkpt lat="44.22011" lon="3.80633">
        <ele>508.869</ele>
        <time>2011-09-18T11:06:27Z</time>
      </trkpt>
      <trkpt lat="44.22011" lon="3.80635">
        <ele>508.287</ele>
        <time>2011-09-18T11:06:37Z</time>
      </trkpt>
      <trkpt lat="44.2201" lon="3.80636">
        <ele>509.074</ele>
        <time>2011-09-18T11:06:47Z</time>
      </trkpt>
      <trkpt lat="44.22016" lon="3.8063">
        <ele>508.757</ele>
        <time>2011-09-18T11:06:57Z</time>
      </trkpt>
      <trkpt lat="44.22022" lon="3.80624">
        <ele>508.067</ele>
        <time>2011-09-18T11:07:07Z</time>
      </trkpt>
      <trkpt lat="44.22024" lon="3.80634">
        <ele>506.954</ele>
        <time>2011-09-18T11:07:17Z</time>
      </trkpt>
      <trkpt lat="44.22021" lon="3.80647">
        <ele>505.644</ele>
        <time>2011-09-18T11:07:27Z</time>
      </trkpt>
      <trkpt lat="44.22018" lon="3.80661">
        <ele>503.813</ele>
        <time>2011-09-18T11:07:37Z</time>
      </trkpt>
      <trkpt lat="44.22019" lon="3.80656">
        <ele>503.807</ele>
        <time>2011-09-18T11:07:47Z</time>
      </trkpt>
      <trkpt lat="44.22019" lon="3.80645">
        <ele>505.101</ele>
        <time>2011-09-18T11:07:57Z</time>
      </trkpt>
      <trkpt lat="44.22017" lon="3.80653">
        <ele>504.252</ele>
        <time>2011-09-18T11:08:07Z</time>
      </trkpt>
      <trkpt lat="44.22015" lon="3.80664">
        <ele>502.859</ele>
        <time>2011-09-18T11:08:17Z</time>
      </trkpt>
      <trkpt lat="44.22014" lon="3.80664">
        <ele>502.397</ele>
        <time>2011-09-18T11:08:27Z</time>
      </trkpt>
      <trkpt lat="44.22014" lon="3.80675">
        <ele>501.851</ele>
        <time>2011-09-18T11:08:37Z</time>
      </trkpt>
      <trkpt lat="44.22016" lon="3.8069">
        <ele>499.84</ele>
        <time>2011-09-18T11:08:47Z</time>
      </trkpt>
      <trkpt lat="44.22014" lon="3.80706">
        <ele>499.106</ele>
        <time>2011-09-18T11:08:57Z</time>
      </trkpt>
      <trkpt lat="44.2201" lon="3.80723">
        <ele>498.449</ele>
        <time>2011-09-18T11:09:07Z</time>
      </trkpt>
      <trkpt lat="44.22004" lon="3.80738">
        <ele>496.9</ele>
        <time>2011-09-18T11:09:17Z</time>
      </trkpt>
      <trkpt lat="44.21996" lon="3.80752">
        <ele>496.239</ele>
        <time>2011-09-18T11:09:27Z</time>
      </trkpt>
      <trkpt lat="44.21989" lon="3.80765">
        <ele>494.808</ele>
        <time>2011-09-18T11:09:37Z</time>
      </trkpt>
      <trkpt lat="44.21981" lon="3.80776">
        <ele>493.978</ele>
        <time>2011-09-18T11:09:47Z</time>
      </trkpt>
      <trkpt lat="44.21973" lon="3.80788">
        <ele>493.611</ele>
        <time>2011-09-18T11:09:57Z</time>
      </trkpt>
      <trkpt lat="44.21966" lon="3.80801">
        <ele>492.332</ele>
        <time>2011-09-18T11:10:07Z</time>
      </trkpt>
      <trkpt lat="44.21957" lon="3.80814">
        <ele>491.118</ele>
        <time>2011-09-18T11:10:17Z</time>
      </trkpt>
      <trkpt lat="44.21949" lon="3.80826">
        <ele>490.438</ele>
        <time>2011-09-18T11:10:27Z</time>
      </trkpt>
      <trkpt lat="44.21941" lon="3.80838">
        <ele>489.214</ele>
        <time>2011-09-18T11:10:37Z</time>
      </trkpt>
      <trkpt lat="44.21932" lon="3.80852">
        <ele>488.182</ele>
        <time>2011-09-18T11:10:47Z</time>
      </trkpt>
      <trkpt lat="44.21928" lon="3.80871">
        <ele>486.956</ele>
        <time>2011-09-18T11:10:57Z</time>
      </trkpt>
      <trkpt lat="44.21921" lon="3.80884">
        <ele>485.823</ele>
        <time>2011-09-18T11:11:07Z</time>
      </trkpt>
      <trkpt lat="44.21915" lon="3.80891">
        <ele>484.689</ele>
        <time>2011-09-18T11:11:17Z</time>
      </trkpt>
      <trkpt lat="44.21906" lon="3.80896">
        <ele>483.175</ele>
        <time>2011-09-18T11:11:27Z</time>
      </trkpt>
      <trkpt lat="44.21892" lon="3.80913">
        <ele>482.065</ele>
        <time>2011-09-18T11:11:37Z</time>
      </trkpt>
      <trkpt lat="44.21883" lon="3.80922">
        <ele>480.794</ele>
        <time>2011-09-18T11:11:47Z</time>
      </trkpt>
      <trkpt lat="44.21877" lon="3.80927">
        <ele>480.529</ele>
        <time>2011-09-18T11:11:57Z</time>
      </trkpt>
      <trkpt lat="44.21861" lon="3.80935">
        <ele>480.226</ele>
        <time>2011-09-18T11:12:07Z</time>
      </trkpt>
      <trkpt lat="44.21857" lon="3.80946">
        <ele>479.07</ele>
        <time>2011-09-18T11:12:17Z</time>
      </trkpt>
      <trkpt lat="44.2185" lon="3.80949">
        <ele>478.05</ele>
        <time>2011-09-18T11:12:27Z</time>
      </trkpt>
      <trkpt lat="44.21848" lon="3.8095">
        <ele>478.001</ele>
        <time>2011-09-18T11:12:37Z</time>
      </trkpt>
      <trkpt lat="44.21849" lon="3.8095">
        <ele>478.13</ele>
        <time>2011-09-18T11:12:47Z</time>
      </trkpt>
      <trkpt lat="44.2185" lon="3.80943">
        <ele>478.607</ele>
        <time>2011-09-18T11:12:57Z</time>
      </trkpt>
      <trkpt lat="44.21846" lon="3.80942">
        <ele>478.934</ele>
        <time>2011-09-18T11:13:07Z</time>
      </trkpt>
      <trkpt lat="44.21844" lon="3.80944">
        <ele>478.553</ele>
        <time>2011-09-18T11:13:17Z</time>
      </trkpt>
      <trkpt lat="44.21847" lon="3.80942">
        <ele>478.55</ele>
        <time>2011-09-18T11:13:27Z</time>
      </trkpt>
      <trkpt lat="44.21857" lon="3.80937">
        <ele>479.416</ele>
        <time>2011-09-18T11:13:37Z</time>
      </trkpt>
      <trkpt lat="44.21854" lon="3.80926">
        <ele>480.048</ele>
        <time>2011-09-18T11:13:47Z</time>
      </trkpt>
      <trkpt lat="44.21849" lon="3.80912">
        <ele>480.189</ele>
        <time>2011-09-18T11:13:57Z</time>
      </trkpt>
      <trkpt lat="44.21843" lon="3.80901">
        <ele>480.586</ele>
        <time>2011-09-18T11:14:07Z</time>
      </trkpt>
      <trkpt lat="44.21835" lon="3.80895">
        <ele>480.201</ele>
        <time>2011-09-18T11:14:17Z</time>
      </trkpt>
      <trkpt lat="44.21826" lon="3.80892">
        <ele>479.22</ele>
        <time>2011-09-18T11:14:27Z</time>
      </trkpt>
      <trkpt lat="44.21816" lon="3.80889">
        <ele>478.787</ele>
        <time>2011-09-18T11:14:37Z</time>
      </trkpt>
      <trkpt lat="44.21809" lon="3.8088">
        <ele>478.155</ele>
        <time>2011-09-18T11:14:47Z</time>
      </trkpt>
      <trkpt lat="44.21805" lon="3.80872">
        <ele>477.792</ele>
        <time>2011-09-18T11:14:57Z</time>
      </trkpt>
      <trkpt lat="44.21795" lon="3.80864">
        <ele>477.361</ele>
        <time>2011-09-18T11:15:07Z</time>
      </trkpt>
      <trkpt lat="44.21789" lon="3.80861">
        <ele>477.153</ele>
        <time>2011-09-18T11:15:17Z</time>
      </trkpt>
      <trkpt lat="44.21781" lon="3.80853">
        <ele>477.142</ele>
        <time>2011-09-18T11:15:27Z</time>
      </trkpt>
      <trkpt lat="44.21772" lon="3.80838">
        <ele>477.279</ele>
        <time>2011-09-18T11:15:37Z</time>
      </trkpt>
      <trkpt lat="44.21763" lon="3.80833">
        <ele>477.859</ele>
        <time>2011-09-18T11:15:47Z</time>
      </trkpt>
      <trkpt lat="44.2175" lon="3.80837">
        <ele>477.542</ele>
        <time>2011-09-18T11:15:57Z</time>
      </trkpt>
      <trkpt lat="44.21738" lon="3.8084">
        <ele>476.639</ele>
        <time>2011-09-18T11:16:07Z</time>
      </trkpt>
      <trkpt lat="44.21727" lon="3.80836">
        <ele>476.019</ele>
        <time>2011-09-18T11:16:17Z</time>
      </trkpt>
      <trkpt lat="44.21716" lon="3.80832">
        <ele>476.046</ele>
        <time>2011-09-18T11:16:27Z</time>
      </trkpt>
      <trkpt lat="44.21706" lon="3.80829">
        <ele>476.561</ele>
        <time>2011-09-18T11:16:37Z</time>
      </trkpt>
      <trkpt lat="44.21695" lon="3.80826">
        <ele>476.879</ele>
        <time>2011-09-18T11:16:47Z</time>
      </trkpt>
      <trkpt lat="44.21684" lon="3.80819">
        <ele>477.689</ele>
        <time>2011-09-18T11:16:57Z</time>
      </trkpt>
      <trkpt lat="44.21674" lon="3.80814">
        <ele>478.223</ele>
        <time>2011-09-18T11:17:07Z</time>
      </trkpt>
      <trkpt lat="44.21663" lon="3.80807">
        <ele>478.902</ele>
        <time>2011-09-18T11:17:17Z</time>
      </trkpt>
      <trkpt lat="44.21653" lon="3.808">
        <ele>479.932</ele>
        <time>2011-09-18T11:17:27Z</time>
      </trkpt>
      <trkpt lat="44.21643" lon="3.80791">
        <ele>480.793</ele>
        <time>2011-09-18T11:17:37Z</time>
      </trkpt>
      <trkpt lat="44.21634" lon="3.80785">
        <ele>481.513</ele>
        <time>2011-09-18T11:17:47Z</time>
      </trkpt>
      <trkpt lat="44.21622" lon="3.80777">
        <ele>482.628</ele>
        <time>2011-09-18T11:17:57Z</time>
      </trkpt>
      <trkpt lat="44.21614" lon="3.8077">
        <ele>483.726</ele>
        <time>2011-09-18T11:18:07Z</time>
      </trkpt>
      <trkpt lat="44.21602" lon="3.80761">
        <ele>484.736</ele>
        <time>2011-09-18T11:18:17Z</time>
      </trkpt>
      <trkpt lat="44.21598" lon="3.80744">
        <ele>485.053</ele>
        <time>2011-09-18T11:18:27Z</time>
      </trkpt>
      <trkpt lat="44.21599" lon="3.80725">
        <ele>486.384</ele>
        <time>2011-09-18T11:18:37Z</time>
      </trkpt>
      <trkpt lat="44.21605" lon="3.80707">
        <ele>487.406</ele>
        <time>2011-09-18T11:18:47Z</time>
      </trkpt>
      <trkpt lat="44.21611" lon="3.8069">
        <ele>488.265</ele>
        <time>2011-09-18T11:18:57Z</time>
      </trkpt>
      <trkpt lat="44.21613" lon="3.80673">
        <ele>488.914</ele>
        <time>2011-09-18T11:19:07Z</time>
      </trkpt>
      <trkpt lat="44.21605" lon="3.80663">
        <ele>490.192</ele>
        <time>2011-09-18T11:19:17Z</time>
      </trkpt>
      <trkpt lat="44.21595" lon="3.80663">
        <ele>491.212</ele>
        <time>2011-09-18T11:19:27Z</time>
      </trkpt>
      <trkpt lat="44.21586" lon="3.80668">
        <ele>492.019</ele>
        <time>2011-09-18T11:19:37Z</time>
      </trkpt>
      <trkpt lat="44.21574" lon="3.80677">
        <ele>492.534</ele>
        <time>2011-09-18T11:19:47Z</time>
      </trkpt>
      <trkpt lat="44.21562" lon="3.80688">
        <ele>492.969</ele>
        <time>2011-09-18T11:19:57Z</time>
      </trkpt>
      <trkpt lat="44.21553" lon="3.80702">
        <ele>493.334</ele>
        <time>2011-09-18T11:20:07Z</time>
      </trkpt>
      <trkpt lat="44.21542" lon="3.80711">
        <ele>492.654</ele>
        <time>2011-09-18T11:20:17Z</time>
      </trkpt>
      <trkpt lat="44.21529" lon="3.80713">
        <ele>492.719</ele>
        <time>2011-09-18T11:20:27Z</time>
      </trkpt>
      <trkpt lat="44.21515" lon="3.80711">
        <ele>492.267</ele>
        <time>2011-09-18T11:20:37Z</time>
      </trkpt>
      <trkpt lat="44.21504" lon="3.80711">
        <ele>492.131</ele>
        <time>2011-09-18T11:20:47Z</time>
      </trkpt>
      <trkpt lat="44.21494" lon="3.80711">
        <ele>491.993</ele>
        <time>2011-09-18T11:20:57Z</time>
      </trkpt>
      <trkpt lat="44.21482" lon="3.80717">
        <ele>492.405</ele>
        <time>2011-09-18T11:21:07Z</time>
      </trkpt>
      <trkpt lat="44.21472" lon="3.80726">
        <ele>491.451</ele>
        <time>2011-09-18T11:21:17Z</time>
      </trkpt>
      <trkpt lat="44.21461" lon="3.80733">
        <ele>491.05</ele>
        <time>2011-09-18T11:21:27Z</time>
      </trkpt>
      <trkpt lat="44.2145" lon="3.8074">
        <ele>491.435</ele>
        <time>2011-09-18T11:21:37Z</time>
      </trkpt>
      <trkpt lat="44.21438" lon="3.80747">
        <ele>491.762</ele>
        <time>2011-09-18T11:21:47Z</time>
      </trkpt>
      <trkpt lat="44.2143" lon="3.80758">
        <ele>492.674</ele>
        <time>2011-09-18T11:21:57Z</time>
      </trkpt>
      <trkpt lat="44.21422" lon="3.8077">
        <ele>492.772</ele>
        <time>2011-09-18T11:22:07Z</time>
      </trkpt>
      <trkpt lat="44.21414" lon="3.80782">
        <ele>493.796</ele>
        <time>2011-09-18T11:22:17Z</time>
      </trkpt>
      <trkpt lat="44.21407" lon="3.80795">
        <ele>494.835</ele>
        <time>2011-09-18T11:22:27Z</time>
      </trkpt>
      <trkpt lat="44.214" lon="3.80801">
        <ele>495.727</ele>
        <time>2011-09-18T11:22:37Z</time>
      </trkpt>
      <trkpt lat="44.21387" lon="3.80799">
        <ele>496.655</ele>
        <time>2011-09-18T11:22:47Z</time>
      </trkpt>
      <trkpt lat="44.21377" lon="3.808">
        <ele>498.396</ele>
        <time>2011-09-18T11:22:57Z</time>
      </trkpt>
      <trkpt lat="44.21366" lon="3.80798">
        <ele>499.927</ele>
        <time>2011-09-18T11:23:07Z</time>
      </trkpt>
      <trkpt lat="44.21356" lon="3.80794">
        <ele>501.362</ele>
        <time>2011-09-18T11:23:17Z</time>
      </trkpt>
      <trkpt lat="44.21346" lon="3.80789">
        <ele>502.994</ele>
        <time>2011-09-18T11:23:27Z</time>
      </trkpt>
      <trkpt lat="44.21335" lon="3.80783">
        <ele>504.117</ele>
        <time>2011-09-18T11:23:37Z</time>
      </trkpt>
      <trkpt lat="44.21323" lon="3.80778">
        <ele>505.435</ele>
        <time>2011-09-18T11:23:47Z</time>
      </trkpt>
      <trkpt lat="44.21313" lon="3.80772">
        <ele>506.544</ele>
        <time>2011-09-18T11:23:57Z</time>
      </trkpt>
      <trkpt lat="44.21302" lon="3.80771">
        <ele>507.917</ele>
        <time>2011-09-18T11:24:07Z</time>
      </trkpt>
      <trkpt lat="44.21289" lon="3.80771">
        <ele>508.579</ele>
        <time>2011-09-18T11:24:17Z</time>
      </trkpt>
      <trkpt lat="44.2128" lon="3.80767">
        <ele>509.334</ele>
        <time>2011-09-18T11:24:27Z</time>
      </trkpt>
      <trkpt lat="44.21269" lon="3.80761">
        <ele>510.829</ele>
        <time>2011-09-18T11:24:37Z</time>
      </trkpt>
      <trkpt lat="44.21256" lon="3.80759">
        <ele>512.253</ele>
        <time>2011-09-18T11:24:47Z</time>
      </trkpt>
      <trkpt lat="44.21245" lon="3.80759">
        <ele>513.459</ele>
        <time>2011-09-18T11:24:57Z</time>
      </trkpt>
      <trkpt lat="44.21238" lon="3.8076">
        <ele>515.581</ele>
        <time>2011-09-18T11:25:07Z</time>
      </trkpt>
      <trkpt lat="44.21228" lon="3.8076">
        <ele>516.73</ele>
        <time>2011-09-18T11:25:17Z</time>
      </trkpt>
      <trkpt lat="44.21218" lon="3.80756">
        <ele>517.036</ele>
        <time>2011-09-18T11:25:27Z</time>
      </trkpt>
      <trkpt lat="44.21209" lon="3.80755">
        <ele>518.185</ele>
        <time>2011-09-18T11:25:37Z</time>
      </trkpt>
      <trkpt lat="44.21197" lon="3.80754">
        <ele>518.98</ele>
        <time>2011-09-18T11:25:47Z</time>
      </trkpt>
      <trkpt lat="44.21192" lon="3.8074">
        <ele>519.735</ele>
        <time>2011-09-18T11:25:57Z</time>
      </trkpt>
      <trkpt lat="44.21178" lon="3.80728">
        <ele>520.095</ele>
        <time>2011-09-18T11:26:07Z</time>
      </trkpt>
      <trkpt lat="44.21171" lon="3.80732">
        <ele>521.244</ele>
        <time>2011-09-18T11:26:17Z</time>
      </trkpt>
      <trkpt lat="44.21165" lon="3.80742">
        <ele>522.2</ele>
        <time>2011-09-18T11:26:27Z</time>
      </trkpt>
      <trkpt lat="44.2116" lon="3.80761">
        <ele>523.128</ele>
        <time>2011-09-18T11:26:37Z</time>
      </trkpt>
      <trkpt lat="44.21151" lon="3.8077">
        <ele>523.994</ele>
        <time>2011-09-18T11:26:47Z</time>
      </trkpt>
      <trkpt lat="44.21142" lon="3.80776">
        <ele>525.124</ele>
        <time>2011-09-18T11:26:57Z</time>
      </trkpt>
      <trkpt lat="44.21138" lon="3.80791">
        <ele>525.241</ele>
        <time>2011-09-18T11:27:07Z</time>
      </trkpt>
      <trkpt lat="44.2114" lon="3.80805">
        <ele>526.519</ele>
        <time>2011-09-18T11:27:17Z</time>
      </trkpt>
      <trkpt lat="44.21139" lon="3.80814">
        <ele>527.316</ele>
        <time>2011-09-18T11:27:27Z</time>
      </trkpt>
      <trkpt lat="44.21132" lon="3.80826">
        <ele>528.609</ele>
        <time>2011-09-18T11:27:37Z</time>
      </trkpt>
      <trkpt lat="44.21121" lon="3.80834">
        <ele>530.181</ele>
        <time>2011-09-18T11:27:47Z</time>
      </trkpt>
      <trkpt lat="44.21112" lon="3.80846">
        <ele>530.615</ele>
        <time>2011-09-18T11:27:57Z</time>
      </trkpt>
      <trkpt lat="44.21101" lon="3.80861">
        <ele>532.451</ele>
        <time>2011-09-18T11:28:07Z</time>
      </trkpt>
      <trkpt lat="44.21097" lon="3.80872">
        <ele>534.459</ele>
        <time>2011-09-18T11:28:17Z</time>
      </trkpt>
      <trkpt lat="44.21091" lon="3.80881">
        <ele>536.237</ele>
        <time>2011-09-18T11:28:27Z</time>
      </trkpt>
      <trkpt lat="44.21082" lon="3.80888">
        <ele>537.266</ele>
        <time>2011-09-18T11:28:37Z</time>
      </trkpt>
      <trkpt lat="44.21074" lon="3.809">
        <ele>538.979</ele>
        <time>2011-09-18T11:28:47Z</time>
      </trkpt>
      <trkpt lat="44.21064" lon="3.80909">
        <ele>540.349</ele>
        <time>2011-09-18T11:28:57Z</time>
      </trkpt>
      <trkpt lat="44.21052" lon="3.80915">
        <ele>540.707</ele>
        <time>2011-09-18T11:29:07Z</time>
      </trkpt>
      <trkpt lat="44.21043" lon="3.80923">
        <ele>542.144</ele>
        <time>2011-09-18T11:29:17Z</time>
      </trkpt>
      <trkpt lat="44.21029" lon="3.80925">
        <ele>542.98</ele>
        <time>2011-09-18T11:29:27Z</time>
      </trkpt>
      <trkpt lat="44.21018" lon="3.8093">
        <ele>544.084</ele>
        <time>2011-09-18T11:29:37Z</time>
      </trkpt>
      <trkpt lat="44.2101" lon="3.80926">
        <ele>545.691</ele>
        <time>2011-09-18T11:29:47Z</time>
      </trkpt>
      <trkpt lat="44.20994" lon="3.8093">
        <ele>546.697</ele>
        <time>2011-09-18T11:29:57Z</time>
      </trkpt>
      <trkpt lat="44.20983" lon="3.80929">
        <ele>547.344</ele>
        <time>2011-09-18T11:30:07Z</time>
      </trkpt>
      <trkpt lat="44.2098" lon="3.80924">
        <ele>547.691</ele>
        <time>2011-09-18T11:30:17Z</time>
      </trkpt>
      <trkpt lat="44.2098" lon="3.80923">
        <ele>549.033</ele>
        <time>2011-09-18T11:30:27Z</time>
      </trkpt>
      <trkpt lat="44.20973" lon="3.80921">
        <ele>548.718</ele>
        <time>2011-09-18T11:30:37Z</time>
      </trkpt>
      <trkpt lat="44.20963" lon="3.8091">
        <ele>548.481</ele>
        <time>2011-09-18T11:30:47Z</time>
      </trkpt>
      <trkpt lat="44.20954" lon="3.80899">
        <ele>547.716</ele>
        <time>2011-09-18T11:30:57Z</time>
      </trkpt>
      <trkpt lat="44.20945" lon="3.80883">
        <ele>547.665</ele>
        <time>2011-09-18T11:31:07Z</time>
      </trkpt>
      <trkpt lat="44.20935" lon="3.80871">
        <ele>547.304</ele>
        <time>2011-09-18T11:31:17Z</time>
      </trkpt>
      <trkpt lat="44.20931" lon="3.80865">
        <ele>546.653</ele>
        <time>2011-09-18T11:31:27Z</time>
      </trkpt>
      <trkpt lat="44.20918" lon="3.80861">
        <ele>545.973</ele>
        <time>2011-09-18T11:31:37Z</time>
      </trkpt>
      <trkpt lat="44.20908" lon="3.80863">
        <ele>544.939</ele>
        <time>2011-09-18T11:31:47Z</time>
      </trkpt>
      <trkpt lat="44.20898" lon="3.80874">
        <ele>544.973</ele>
        <time>2011-09-18T11:31:57Z</time>
      </trkpt>
      <trkpt lat="44.20889" lon="3.80889">
        <ele>544.825</ele>
        <time>2011-09-18T11:32:07Z</time>
      </trkpt>
      <trkpt lat="44.20879" lon="3.80904">
        <ele>544.541</ele>
        <time>2011-09-18T11:32:17Z</time>
      </trkpt>
      <trkpt lat="44.20872" lon="3.80915">
        <ele>544.063</ele>
        <time>2011-09-18T11:32:27Z</time>
      </trkpt>
      <trkpt lat="44.20861" lon="3.80924">
        <ele>544.039</ele>
        <time>2011-09-18T11:32:37Z</time>
      </trkpt>
      <trkpt lat="44.20849" lon="3.80936">
        <ele>543.248</ele>
        <time>2011-09-18T11:32:47Z</time>
      </trkpt>
      <trkpt lat="44.2084" lon="3.80944">
        <ele>543.275</ele>
        <time>2011-09-18T11:32:57Z</time>
      </trkpt>
      <trkpt lat="44.20829" lon="3.80952">
        <ele>543.159</ele>
        <time>2011-09-18T11:33:07Z</time>
      </trkpt>
      <trkpt lat="44.20822" lon="3.80966">
        <ele>541.925</ele>
        <time>2011-09-18T11:33:17Z</time>
      </trkpt>
      <trkpt lat="44.20816" lon="3.80981">
        <ele>540.152</ele>
        <time>2011-09-18T11:33:27Z</time>
      </trkpt>
      <trkpt lat="44.2081" lon="3.80996">
        <ele>539.424</ele>
        <time>2011-09-18T11:33:37Z</time>
      </trkpt>
      <trkpt lat="44.20804" lon="3.8101">
        <ele>538.672</ele>
        <time>2011-09-18T11:33:47Z</time>
      </trkpt>
      <trkpt lat="44.20797" lon="3.81019">
        <ele>537.469</ele>
        <time>2011-09-18T11:33:57Z</time>
      </trkpt>
      <trkpt lat="44.2079" lon="3.81036">
        <ele>536.032</ele>
        <time>2011-09-18T11:34:07Z</time>
      </trkpt>
      <trkpt lat="44.20783" lon="3.81048">
        <ele>535.649</ele>
        <time>2011-09-18T11:34:17Z</time>
      </trkpt>
      <trkpt lat="44.20776" lon="3.81062">
        <ele>534.388</ele>
        <time>2011-09-18T11:34:27Z</time>
      </trkpt>
      <trkpt lat="44.20772" lon="3.81079">
        <ele>533.884</ele>
        <time>2011-09-18T11:34:37Z</time>
      </trkpt>
      <trkpt lat="44.20766" lon="3.81089">
        <ele>533.665</ele>
        <time>2011-09-18T11:34:47Z</time>
      </trkpt>
      <trkpt lat="44.20764" lon="3.81091">
        <ele>533.323</ele>
        <time>2011-09-18T11:34:57Z</time>
      </trkpt>
      <trkpt lat="44.20759" lon="3.81108">
        <ele>532.625</ele>
        <time>2011-09-18T11:35:07Z</time>
      </trkpt>
      <trkpt lat="44.20752" lon="3.81123">
        <ele>533.301</ele>
        <time>2011-09-18T11:35:17Z</time>
      </trkpt>
      <trkpt lat="44.20747" lon="3.81133">
        <ele>531.403</ele>
        <time>2011-09-18T11:35:27Z</time>
      </trkpt>
      <trkpt lat="44.20744" lon="3.81137">
        <ele>531.19</ele>
        <time>2011-09-18T11:35:37Z</time>
      </trkpt>
      <trkpt lat="44.20744" lon="3.81142">
        <ele>531.289</ele>
        <time>2011-09-18T11:35:47Z</time>
      </trkpt>
      <trkpt lat="44.20742" lon="3.81158">
        <ele>530.441</ele>
        <time>2011-09-18T11:35:57Z</time>
      </trkpt>
      <trkpt lat="44.20737" lon="3.81173">
        <ele>528.991</ele>
        <time>2011-09-18T11:36:07Z</time>
      </trkpt>
      <trkpt lat="44.2073" lon="3.81187">
        <ele>527.266</ele>
        <time>2011-09-18T11:36:17Z</time>
      </trkpt>
      <trkpt lat="44.20726" lon="3.81208">
        <ele>525.727</ele>
        <time>2011-09-18T11:36:27Z</time>
      </trkpt>
      <trkpt lat="44.20723" lon="3.81228">
        <ele>524.879</ele>
        <time>2011-09-18T11:36:37Z</time>
      </trkpt>
      <trkpt lat="44.20721" lon="3.81245">
        <ele>524.232</ele>
        <time>2011-09-18T11:36:47Z</time>
      </trkpt>
      <trkpt lat="44.20718" lon="3.81262">
        <ele>523.054</ele>
        <time>2011-09-18T11:36:57Z</time>
      </trkpt>
      <trkpt lat="44.20717" lon="3.81277">
        <ele>521.702</ele>
        <time>2011-09-18T11:37:07Z</time>
      </trkpt>
      <trkpt lat="44.20711" lon="3.8129">
        <ele>520.014</ele>
        <time>2011-09-18T11:37:17Z</time>
      </trkpt>
      <trkpt lat="44.207" lon="3.8129">
        <ele>518.33</ele>
        <time>2011-09-18T11:37:27Z</time>
      </trkpt>
      <trkpt lat="44.20689" lon="3.81289">
        <ele>517.16</ele>
        <time>2011-09-18T11:37:37Z</time>
      </trkpt>
      <trkpt lat="44.20676" lon="3.81291">
        <ele>515.967</ele>
        <time>2011-09-18T11:37:47Z</time>
      </trkpt>
      <trkpt lat="44.20665" lon="3.81293">
        <ele>514.101</ele>
        <time>2011-09-18T11:37:57Z</time>
      </trkpt>
      <trkpt lat="44.20654" lon="3.81292">
        <ele>512.897</ele>
        <time>2011-09-18T11:38:07Z</time>
      </trkpt>
      <trkpt lat="44.20646" lon="3.81306">
        <ele>511.272</ele>
        <time>2011-09-18T11:38:17Z</time>
      </trkpt>
      <trkpt lat="44.2064" lon="3.81324">
        <ele>510.005</ele>
        <time>2011-09-18T11:38:27Z</time>
      </trkpt>
      <trkpt lat="44.2064" lon="3.81339">
        <ele>508.853</ele>
        <time>2011-09-18T11:38:37Z</time>
      </trkpt>
      <trkpt lat="44.20635" lon="3.81354">
        <ele>507.03</ele>
        <time>2011-09-18T11:38:47Z</time>
      </trkpt>
      <trkpt lat="44.20634" lon="3.81373">
        <ele>505.463</ele>
        <time>2011-09-18T11:38:57Z</time>
      </trkpt>
      <trkpt lat="44.20631" lon="3.81391">
        <ele>504.167</ele>
        <time>2011-09-18T11:39:07Z</time>
      </trkpt>
      <trkpt lat="44.20627" lon="3.81405">
        <ele>502.379</ele>
        <time>2011-09-18T11:39:17Z</time>
      </trkpt>
      <trkpt lat="44.20625" lon="3.81421">
        <ele>501.361</ele>
        <time>2011-09-18T11:39:27Z</time>
      </trkpt>
      <trkpt lat="44.20622" lon="3.81437">
        <ele>500.027</ele>
        <time>2011-09-18T11:39:37Z</time>
      </trkpt>
      <trkpt lat="44.20619" lon="3.81453">
        <ele>498.881</ele>
        <time>2011-09-18T11:39:47Z</time>
      </trkpt>
      <trkpt lat="44.20613" lon="3.81468">
        <ele>498.364</ele>
        <time>2011-09-18T11:39:57Z</time>
      </trkpt>
      <trkpt lat="44.20608" lon="3.81486">
        <ele>497.797</ele>
        <time>2011-09-18T11:40:07Z</time>
      </trkpt>
      <trkpt lat="44.20604" lon="3.81502">
        <ele>498.51</ele>
        <time>2011-09-18T11:40:17Z</time>
      </trkpt>
      <trkpt lat="44.20604" lon="3.81516">
        <ele>498.682</ele>
        <time>2011-09-18T11:40:27Z</time>
      </trkpt>
      <trkpt lat="44.206" lon="3.81529">
        <ele>499.951</ele>
        <time>2011-09-18T11:40:37Z</time>
      </trkpt>
      <trkpt lat="44.20597" lon="3.81545">
        <ele>500.421</ele>
        <time>2011-09-18T11:40:47Z</time>
      </trkpt>
      <trkpt lat="44.20594" lon="3.81563">
        <ele>501.301</ele>
        <time>2011-09-18T11:40:57Z</time>
      </trkpt>
      <trkpt lat="44.20589" lon="3.81578">
        <ele>501.959</ele>
        <time>2011-09-18T11:41:07Z</time>
      </trkpt>
      <trkpt lat="44.20584" lon="3.81592">
        <ele>502.385</ele>
        <time>2011-09-18T11:41:17Z</time>
      </trkpt>
      <trkpt lat="44.20577" lon="3.81611">
        <ele>502.129</ele>
        <time>2011-09-18T11:41:27Z</time>
      </trkpt>
      <trkpt lat="44.20571" lon="3.81623">
        <ele>502.039</ele>
        <time>2011-09-18T11:41:37Z</time>
      </trkpt>
      <trkpt lat="44.20563" lon="3.81636">
        <ele>501.798</ele>
        <time>2011-09-18T11:41:47Z</time>
      </trkpt>
      <trkpt lat="44.20555" lon="3.81653">
        <ele>501.144</ele>
        <time>2011-09-18T11:41:57Z</time>
      </trkpt>
      <trkpt lat="44.20548" lon="3.81665">
        <ele>500.594</ele>
        <time>2011-09-18T11:42:07Z</time>
      </trkpt>
      <trkpt lat="44.20542" lon="3.81678">
        <ele>499.657</ele>
        <time>2011-09-18T11:42:17Z</time>
      </trkpt>
      <trkpt lat="44.2054" lon="3.81681">
        <ele>499.355</ele>
        <time>2011-09-18T11:42:27Z</time>
      </trkpt>
      <trkpt lat="44.20539" lon="3.81683">
        <ele>499.089</ele>
        <time>2011-09-18T11:42:37Z</time>
      </trkpt>
      <trkpt lat="44.20539" lon="3.81683">
        <ele>499.259</ele>
        <time>2011-09-18T11:42:47Z</time>
      </trkpt>
      <trkpt lat="44.20535" lon="3.81684">
        <ele>499.065</ele>
        <time>2011-09-18T11:42:57Z</time>
      </trkpt>
      <trkpt lat="44.20531" lon="3.81689">
        <ele>498.408</ele>
        <time>2011-09-18T11:43:07Z</time>
      </trkpt>
      <trkpt lat="44.20523" lon="3.81696">
        <ele>498.091</ele>
        <time>2011-09-18T11:43:17Z</time>
      </trkpt>
      <trkpt lat="44.20514" lon="3.817">
        <ele>497.111</ele>
        <time>2011-09-18T11:43:27Z</time>
      </trkpt>
      <trkpt lat="44.20503" lon="3.81704">
        <ele>496.479</ele>
        <time>2011-09-18T11:43:37Z</time>
      </trkpt>
      <trkpt lat="44.20493" lon="3.8171">
        <ele>495.499</ele>
        <time>2011-09-18T11:43:47Z</time>
      </trkpt>
      <trkpt lat="44.20483" lon="3.81718">
        <ele>494.814</ele>
        <time>2011-09-18T11:43:57Z</time>
      </trkpt>
      <trkpt lat="44.20477" lon="3.81734">
        <ele>494.701</ele>
        <time>2011-09-18T11:44:07Z</time>
      </trkpt>
      <trkpt lat="44.20472" lon="3.81745">
        <ele>494.602</ele>
        <time>2011-09-18T11:44:17Z</time>
      </trkpt>
      <trkpt lat="44.20464" lon="3.81761">
        <ele>493.869</ele>
        <time>2011-09-18T11:44:27Z</time>
      </trkpt>
      <trkpt lat="44.20458" lon="3.81777">
        <ele>492.882</ele>
        <time>2011-09-18T11:44:37Z</time>
      </trkpt>
      <trkpt lat="44.20454" lon="3.81791">
        <ele>492.49</ele>
        <time>2011-09-18T11:44:47Z</time>
      </trkpt>
      <trkpt lat="44.20449" lon="3.81809">
        <ele>491.075</ele>
        <time>2011-09-18T11:44:57Z</time>
      </trkpt>
      <trkpt lat="44.20447" lon="3.81825">
        <ele>490.188</ele>
        <time>2011-09-18T11:45:07Z</time>
      </trkpt>
      <trkpt lat="44.20444" lon="3.8184">
        <ele>489.242</ele>
        <time>2011-09-18T11:45:17Z</time>
      </trkpt>
      <trkpt lat="44.2044" lon="3.81858">
        <ele>488.235</ele>
        <time>2011-09-18T11:45:27Z</time>
      </trkpt>
      <trkpt lat="44.20434" lon="3.8187">
        <ele>486.851</ele>
        <time>2011-09-18T11:45:37Z</time>
      </trkpt>
      <trkpt lat="44.20431" lon="3.81886">
        <ele>485.692</ele>
        <time>2011-09-18T11:45:47Z</time>
      </trkpt>
      <trkpt lat="44.20431" lon="3.81905">
        <ele>485.698</ele>
        <time>2011-09-18T11:45:57Z</time>
      </trkpt>
      <trkpt lat="44.20429" lon="3.81921">
        <ele>485.595</ele>
        <time>2011-09-18T11:46:07Z</time>
      </trkpt>
      <trkpt lat="44.20426" lon="3.81934">
        <ele>485.156</ele>
        <time>2011-09-18T11:46:17Z</time>
      </trkpt>
      <trkpt lat="44.20423" lon="3.81944">
        <ele>485.023</ele>
        <time>2011-09-18T11:46:27Z</time>
      </trkpt>
      <trkpt lat="44.20416" lon="3.81959">
        <ele>485.035</ele>
        <time>2011-09-18T11:46:37Z</time>
      </trkpt>
      <trkpt lat="44.20411" lon="3.81971">
        <ele>485.005</ele>
        <time>2011-09-18T11:46:47Z</time>
      </trkpt>
      <trkpt lat="44.20404" lon="3.81987">
        <ele>484.87</ele>
        <time>2011-09-18T11:46:57Z</time>
      </trkpt>
      <trkpt lat="44.204" lon="3.82001">
        <ele>483.94</ele>
        <time>2011-09-18T11:47:07Z</time>
      </trkpt>
      <trkpt lat="44.20397" lon="3.82016">
        <ele>483.364</ele>
        <time>2011-09-18T11:47:17Z</time>
      </trkpt>
      <trkpt lat="44.20398" lon="3.82034">
        <ele>482.304</ele>
        <time>2011-09-18T11:47:27Z</time>
      </trkpt>
      <trkpt lat="44.204" lon="3.8205">
        <ele>481.525</ele>
        <time>2011-09-18T11:47:37Z</time>
      </trkpt>
      <trkpt lat="44.20403" lon="3.82067">
        <ele>480.134</ele>
        <time>2011-09-18T11:47:47Z</time>
      </trkpt>
      <trkpt lat="44.204" lon="3.82086">
        <ele>478.958</ele>
        <time>2011-09-18T11:47:57Z</time>
      </trkpt>
      <trkpt lat="44.20396" lon="3.82101">
        <ele>477.608</ele>
        <time>2011-09-18T11:48:07Z</time>
      </trkpt>
      <trkpt lat="44.20391" lon="3.82116">
        <ele>475.976</ele>
        <time>2011-09-18T11:48:17Z</time>
      </trkpt>
      <trkpt lat="44.20385" lon="3.82133">
        <ele>474.129</ele>
        <time>2011-09-18T11:48:27Z</time>
      </trkpt>
      <trkpt lat="44.20376" lon="3.82142">
        <ele>472.963</ele>
        <time>2011-09-18T11:48:37Z</time>
      </trkpt>
      <trkpt lat="44.20366" lon="3.8215">
        <ele>472.305</ele>
        <time>2011-09-18T11:48:47Z</time>
      </trkpt>
      <trkpt lat="44.20354" lon="3.82156">
        <ele>470.71</ele>
        <time>2011-09-18T11:48:57Z</time>
      </trkpt>
      <trkpt lat="44.20342" lon="3.82163">
        <ele>468.707</ele>
        <time>2011-09-18T11:49:07Z</time>
      </trkpt>
      <trkpt lat="44.20331" lon="3.82174">
        <ele>467.746</ele>
        <time>2011-09-18T11:49:17Z</time>
      </trkpt>
      <trkpt lat="44.20324" lon="3.82188">
        <ele>466.496</ele>
        <time>2011-09-18T11:49:27Z</time>
      </trkpt>
      <trkpt lat="44.2032" lon="3.82205">
        <ele>465.315</ele>
        <time>2011-09-18T11:49:37Z</time>
      </trkpt>
      <trkpt lat="44.20316" lon="3.82219">
        <ele>464.409</ele>
        <time>2011-09-18T11:49:47Z</time>
      </trkpt>
      <trkpt lat="44.20313" lon="3.82238">
        <ele>463.009</ele>
        <time>2011-09-18T11:49:57Z</time>
      </trkpt>
      <trkpt lat="44.20307" lon="3.82255">
        <ele>461.994</ele>
        <time>2011-09-18T11:50:07Z</time>
      </trkpt>
      <trkpt lat="44.20302" lon="3.82267">
        <ele>461.277</ele>
        <time>2011-09-18T11:50:17Z</time>
      </trkpt>
      <trkpt lat="44.20296" lon="3.82276">
        <ele>459.678</ele>
        <time>2011-09-18T11:50:27Z</time>
      </trkpt>
      <trkpt lat="44.20291" lon="3.82291">
        <ele>458.794</ele>
        <time>2011-09-18T11:50:37Z</time>
      </trkpt>
      <trkpt lat="44.20286" lon="3.82306">
        <ele>458.049</ele>
        <time>2011-09-18T11:50:47Z</time>
      </trkpt>
      <trkpt lat="44.20279" lon="3.82321">
        <ele>457.071</ele>
        <time>2011-09-18T11:50:57Z</time>
      </trkpt>
      <trkpt lat="44.20269" lon="3.82332">
        <ele>454.813</ele>
        <time>2011-09-18T11:51:07Z</time>
      </trkpt>
      <trkpt lat="44.20261" lon="3.82347">
        <ele>453.641</ele>
        <time>2011-09-18T11:51:17Z</time>
      </trkpt>
      <trkpt lat="44.20254" lon="3.82357">
        <ele>453.103</ele>
        <time>2011-09-18T11:51:27Z</time>
      </trkpt>
      <trkpt lat="44.2025" lon="3.82373">
        <ele>452.705</ele>
        <time>2011-09-18T11:51:37Z</time>
      </trkpt>
      <trkpt lat="44.20246" lon="3.82391">
        <ele>452.716</ele>
        <time>2011-09-18T11:51:47Z</time>
      </trkpt>
      <trkpt lat="44.20247" lon="3.82407">
        <ele>452.52</ele>
        <time>2011-09-18T11:51:57Z</time>
      </trkpt>
      <trkpt lat="44.20247" lon="3.82423">
        <ele>453.313</ele>
        <time>2011-09-18T11:52:07Z</time>
      </trkpt>
      <trkpt lat="44.20246" lon="3.82436">
        <ele>454.763</ele>
        <time>2011-09-18T11:52:17Z</time>
      </trkpt>
      <trkpt lat="44.20247" lon="3.82452">
        <ele>454.542</ele>
        <time>2011-09-18T11:52:27Z</time>
      </trkpt>
      <trkpt lat="44.20246" lon="3.82469">
        <ele>455.336</ele>
        <time>2011-09-18T11:52:37Z</time>
      </trkpt>
      <trkpt lat="44.2025" lon="3.82487">
        <ele>456.247</ele>
        <time>2011-09-18T11:52:47Z</time>
      </trkpt>
      <trkpt lat="44.20255" lon="3.825">
        <ele>456.207</ele>
        <time>2011-09-18T11:52:57Z</time>
      </trkpt>
      <trkpt lat="44.20255" lon="3.82512">
        <ele>456.714</ele>
        <time>2011-09-18T11:53:07Z</time>
      </trkpt>
      <trkpt lat="44.20257" lon="3.82527">
        <ele>456.806</ele>
        <time>2011-09-18T11:53:17Z</time>
      </trkpt>
      <trkpt lat="44.20259" lon="3.82545">
        <ele>456.674</ele>
        <time>2011-09-18T11:53:27Z</time>
      </trkpt>
      <trkpt lat="44.20263" lon="3.82563">
        <ele>457.047</ele>
        <time>2011-09-18T11:53:37Z</time>
      </trkpt>
      <trkpt lat="44.20265" lon="3.8258">
        <ele>457.497</ele>
        <time>2011-09-18T11:53:47Z</time>
      </trkpt>
      <trkpt lat="44.20263" lon="3.82593">
        <ele>457.495</ele>
        <time>2011-09-18T11:53:57Z</time>
      </trkpt>
      <trkpt lat="44.20258" lon="3.82606">
        <ele>457.428</ele>
        <time>2011-09-18T11:54:07Z</time>
      </trkpt>
      <trkpt lat="44.20253" lon="3.82622">
        <ele>457.639</ele>
        <time>2011-09-18T11:54:17Z</time>
      </trkpt>
      <trkpt lat="44.20248" lon="3.8264">
        <ele>457.368</ele>
        <time>2011-09-18T11:54:27Z</time>
      </trkpt>
      <trkpt lat="44.20242" lon="3.82657">
        <ele>457.093</ele>
        <time>2011-09-18T11:54:37Z</time>
      </trkpt>
      <trkpt lat="44.20236" lon="3.82675">
        <ele>456.592</ele>
        <time>2011-09-18T11:54:47Z</time>
      </trkpt>
      <trkpt lat="44.2023" lon="3.8269">
        <ele>455.232</ele>
        <time>2011-09-18T11:54:57Z</time>
      </trkpt>
      <trkpt lat="44.20224" lon="3.82704">
        <ele>454.831</ele>
        <time>2011-09-18T11:55:07Z</time>
      </trkpt>
      <trkpt lat="44.20224" lon="3.82723">
        <ele>455.419</ele>
        <time>2011-09-18T11:55:17Z</time>
      </trkpt>
      <trkpt lat="44.20226" lon="3.82741">
        <ele>456.551</ele>
        <time>2011-09-18T11:55:27Z</time>
      </trkpt>
      <trkpt lat="44.20231" lon="3.82757">
        <ele>457.875</ele>
        <time>2011-09-18T11:55:37Z</time>
      </trkpt>
      <trkpt lat="44.20233" lon="3.82771">
        <ele>458.367</ele>
        <time>2011-09-18T11:55:47Z</time>
      </trkpt>
      <trkpt lat="44.20226" lon="3.82784">
        <ele>457.362</ele>
        <time>2011-09-18T11:55:57Z</time>
      </trkpt>
      <trkpt lat="44.20215" lon="3.82781">
        <ele>455.964</ele>
        <time>2011-09-18T11:56:07Z</time>
      </trkpt>
      <trkpt lat="44.20205" lon="3.82777">
        <ele>454.277</ele>
        <time>2011-09-18T11:56:17Z</time>
      </trkpt>
      <trkpt lat="44.20206" lon="3.82777">
        <ele>454.177</ele>
        <time>2011-09-18T11:56:27Z</time>
      </trkpt>
      <trkpt lat="44.20203" lon="3.82775">
        <ele>453.884</ele>
        <time>2011-09-18T11:56:37Z</time>
      </trkpt>
      <trkpt lat="44.202" lon="3.82775">
        <ele>453.321</ele>
        <time>2011-09-18T11:56:47Z</time>
      </trkpt>
      <trkpt lat="44.20191" lon="3.82779">
        <ele>452.423</ele>
        <time>2011-09-18T11:56:57Z</time>
      </trkpt>
      <trkpt lat="44.2018" lon="3.82788">
        <ele>450.457</ele>
        <time>2011-09-18T11:57:07Z</time>
      </trkpt>
      <trkpt lat="44.20172" lon="3.82799">
        <ele>448.686</ele>
        <time>2011-09-18T11:57:17Z</time>
      </trkpt>
      <trkpt lat="44.20178" lon="3.82807">
        <ele>447.322</ele>
        <time>2011-09-18T11:57:27Z</time>
      </trkpt>
      <trkpt lat="44.20187" lon="3.82802">
        <ele>445.583</ele>
        <time>2011-09-18T11:57:37Z</time>
      </trkpt>
      <trkpt lat="44.20192" lon="3.828">
        <ele>444.628</ele>
        <time>2011-09-18T11:57:47Z</time>
      </trkpt>
      <trkpt lat="44.20201" lon="3.82803">
        <ele>443.166</ele>
        <time>2011-09-18T11:57:57Z</time>
      </trkpt>
      <trkpt lat="44.20195" lon="3.82815">
        <ele>442.363</ele>
        <time>2011-09-18T11:58:07Z</time>
      </trkpt>
      <trkpt lat="44.20186" lon="3.82815">
        <ele>441.038</ele>
        <time>2011-09-18T11:58:17Z</time>
      </trkpt>
      <trkpt lat="44.20175" lon="3.82822">
        <ele>438.907</ele>
        <time>2011-09-18T11:58:27Z</time>
      </trkpt>
      <trkpt lat="44.2017" lon="3.82834">
        <ele>437.257</ele>
        <time>2011-09-18T11:58:37Z</time>
      </trkpt>
      <trkpt lat="44.20164" lon="3.82847">
        <ele>436.071</ele>
        <time>2011-09-18T11:58:47Z</time>
      </trkpt>
      <trkpt lat="44.20157" lon="3.82858">
        <ele>434.894</ele>
        <time>2011-09-18T11:58:57Z</time>
      </trkpt>
      <trkpt lat="44.20147" lon="3.82873">
        <ele>434.094</ele>
        <time>2011-09-18T11:59:07Z</time>
      </trkpt>
      <trkpt lat="44.20135" lon="3.82885">
        <ele>433.998</ele>
        <time>2011-09-18T11:59:17Z</time>
      </trkpt>
      <trkpt lat="44.20122" lon="3.82894">
        <ele>433.795</ele>
        <time>2011-09-18T11:59:27Z</time>
      </trkpt>
      <trkpt lat="44.20112" lon="3.82898">
        <ele>434.2</ele>
        <time>2011-09-18T11:59:37Z</time>
      </trkpt>
      <trkpt lat="44.20102" lon="3.82904">
        <ele>434.423</ele>
        <time>2011-09-18T11:59:47Z</time>
      </trkpt>
      <trkpt lat="44.2009" lon="3.82907">
        <ele>434.323</ele>
        <time>2011-09-18T11:59:57Z</time>
      </trkpt>
      <trkpt lat="44.2008" lon="3.82911">
        <ele>433.856</ele>
        <time>2011-09-18T12:00:07Z</time>
      </trkpt>
      <trkpt lat="44.20069" lon="3.82914">
        <ele>432.278</ele>
        <time>2011-09-18T12:00:17Z</time>
      </trkpt>
      <trkpt lat="44.2006" lon="3.82923">
        <ele>431.117</ele>
        <time>2011-09-18T12:00:27Z</time>
      </trkpt>
      <trkpt lat="44.20051" lon="3.82933">
        <ele>429.544</ele>
        <time>2011-09-18T12:00:37Z</time>
      </trkpt>
      <trkpt lat="44.20044" lon="3.82947">
        <ele>428.397</ele>
        <time>2011-09-18T12:00:47Z</time>
      </trkpt>
      <trkpt lat="44.20045" lon="3.82962">
        <ele>427.773</ele>
        <time>2011-09-18T12:00:57Z</time>
      </trkpt>
      <trkpt lat="44.2005" lon="3.82976">
        <ele>426.999</ele>
        <time>2011-09-18T12:01:07Z</time>
      </trkpt>
      <trkpt lat="44.20055" lon="3.8299">
        <ele>426.329</ele>
        <time>2011-09-18T12:01:17Z</time>
      </trkpt>
      <trkpt lat="44.20057" lon="3.83011">
        <ele>424.988</ele>
        <time>2011-09-18T12:01:27Z</time>
      </trkpt>
      <trkpt lat="44.20057" lon="3.83027">
        <ele>424.142</ele>
        <time>2011-09-18T12:01:37Z</time>
      </trkpt>
      <trkpt lat="44.20057" lon="3.83044">
        <ele>423.858</ele>
        <time>2011-09-18T12:01:47Z</time>
      </trkpt>
      <trkpt lat="44.20053" lon="3.8306">
        <ele>423.049</ele>
        <time>2011-09-18T12:01:57Z</time>
      </trkpt>
      <trkpt lat="44.20051" lon="3.83076">
        <ele>423.28</ele>
        <time>2011-09-18T12:02:07Z</time>
      </trkpt>
      <trkpt lat="44.20043" lon="3.83091">
        <ele>422.385</ele>
        <time>2011-09-18T12:02:17Z</time>
      </trkpt>
      <trkpt lat="44.20036" lon="3.83104">
        <ele>422.446</ele>
        <time>2011-09-18T12:02:27Z</time>
      </trkpt>
      <trkpt lat="44.20029" lon="3.83116">
        <ele>422.089</ele>
        <time>2011-09-18T12:02:37Z</time>
      </trkpt>
      <trkpt lat="44.20022" lon="3.8313">
        <ele>421.989</ele>
        <time>2011-09-18T12:02:47Z</time>
      </trkpt>
      <trkpt lat="44.20015" lon="3.83143">
        <ele>422.011</ele>
        <time>2011-09-18T12:02:57Z</time>
      </trkpt>
      <trkpt lat="44.20007" lon="3.83157">
        <ele>421.752</ele>
        <time>2011-09-18T12:03:07Z</time>
      </trkpt>
      <trkpt lat="44.19998" lon="3.8317">
        <ele>421.27</ele>
        <time>2011-09-18T12:03:17Z</time>
      </trkpt>
      <trkpt lat="44.1999" lon="3.83179">
        <ele>419.916</ele>
        <time>2011-09-18T12:03:27Z</time>
      </trkpt>
      <trkpt lat="44.19981" lon="3.83187">
        <ele>419.119</ele>
        <time>2011-09-18T12:03:37Z</time>
      </trkpt>
      <trkpt lat="44.19971" lon="3.83188">
        <ele>417.795</ele>
        <time>2011-09-18T12:03:47Z</time>
      </trkpt>
      <trkpt lat="44.19957" lon="3.83189">
        <ele>416.391</ele>
        <time>2011-09-18T12:03:57Z</time>
      </trkpt>
      <trkpt lat="44.19944" lon="3.83184">
        <ele>415.062</ele>
        <time>2011-09-18T12:04:07Z</time>
      </trkpt>
      <trkpt lat="44.1993" lon="3.83183">
        <ele>413.403</ele>
        <time>2011-09-18T12:04:17Z</time>
      </trkpt>
      <trkpt lat="44.19919" lon="3.83178">
        <ele>411.867</ele>
        <time>2011-09-18T12:04:27Z</time>
      </trkpt>
      <trkpt lat="44.19909" lon="3.83174">
        <ele>410.566</ele>
        <time>2011-09-18T12:04:37Z</time>
      </trkpt>
      <trkpt lat="44.19897" lon="3.83172">
        <ele>409.347</ele>
        <time>2011-09-18T12:04:47Z</time>
      </trkpt>
      <trkpt lat="44.19885" lon="3.83173">
        <ele>407.969</ele>
        <time>2011-09-18T12:04:57Z</time>
      </trkpt>
      <trkpt lat="44.1988" lon="3.83184">
        <ele>406.98</ele>
        <time>2011-09-18T12:05:07Z</time>
      </trkpt>
      <trkpt lat="44.19882" lon="3.83198">
        <ele>406.238</ele>
        <time>2011-09-18T12:05:17Z</time>
      </trkpt>
      <trkpt lat="44.1988" lon="3.83214">
        <ele>404.976</ele>
        <time>2011-09-18T12:05:27Z</time>
      </trkpt>
      <trkpt lat="44.19876" lon="3.83227">
        <ele>403.988</ele>
        <time>2011-09-18T12:05:37Z</time>
      </trkpt>
      <trkpt lat="44.19871" lon="3.83241">
        <ele>402.64</ele>
        <time>2011-09-18T12:05:47Z</time>
      </trkpt>
      <trkpt lat="44.19867" lon="3.83254">
        <ele>401.435</ele>
        <time>2011-09-18T12:05:57Z</time>
      </trkpt>
      <trkpt lat="44.19861" lon="3.83267">
        <ele>399.875</ele>
        <time>2011-09-18T12:06:07Z</time>
      </trkpt>
      <trkpt lat="44.19855" lon="3.83279">
        <ele>398.767</ele>
        <time>2011-09-18T12:06:17Z</time>
      </trkpt>
      <trkpt lat="44.1985" lon="3.83292">
        <ele>397.726</ele>
        <time>2011-09-18T12:06:27Z</time>
      </trkpt>
      <trkpt lat="44.1984" lon="3.83308">
        <ele>397.48</ele>
        <time>2011-09-18T12:06:37Z</time>
      </trkpt>
      <trkpt lat="44.19832" lon="3.83319">
        <ele>396.139</ele>
        <time>2011-09-18T12:06:47Z</time>
      </trkpt>
      <trkpt lat="44.19822" lon="3.83319">
        <ele>394.323</ele>
        <time>2011-09-18T12:06:57Z</time>
      </trkpt>
      <trkpt lat="44.19812" lon="3.83312">
        <ele>393.172</ele>
        <time>2011-09-18T12:07:07Z</time>
      </trkpt>
      <trkpt lat="44.198" lon="3.83312">
        <ele>392</ele>
        <time>2011-09-18T12:07:17Z</time>
      </trkpt>
      <trkpt lat="44.19789" lon="3.83305">
        <ele>390.935</ele>
        <time>2011-09-18T12:07:27Z</time>
      </trkpt>
      <trkpt lat="44.19782" lon="3.83292">
        <ele>389.729</ele>
        <time>2011-09-18T12:07:37Z</time>
      </trkpt>
      <trkpt lat="44.19772" lon="3.83282">
        <ele>388.842</ele>
        <time>2011-09-18T12:07:47Z</time>
      </trkpt>
      <trkpt lat="44.19765" lon="3.83269">
        <ele>387.744</ele>
        <time>2011-09-18T12:07:57Z</time>
      </trkpt>
      <trkpt lat="44.19756" lon="3.83257">
        <ele>386.762</ele>
        <time>2011-09-18T12:08:07Z</time>
      </trkpt>
      <trkpt lat="44.19746" lon="3.83247">
        <ele>385.639</ele>
        <time>2011-09-18T12:08:17Z</time>
      </trkpt>
      <trkpt lat="44.19736" lon="3.83236">
        <ele>384.346</ele>
        <time>2011-09-18T12:08:27Z</time>
      </trkpt>
      <trkpt lat="44.19724" lon="3.83233">
        <ele>383.21</ele>
        <time>2011-09-18T12:08:37Z</time>
      </trkpt>
      <trkpt lat="44.19714" lon="3.83231">
        <ele>383.019</ele>
        <time>2011-09-18T12:08:47Z</time>
      </trkpt>
      <trkpt lat="44.19702" lon="3.83233">
        <ele>382.616</ele>
        <time>2011-09-18T12:08:57Z</time>
      </trkpt>
      <trkpt lat="44.19699" lon="3.83249">
        <ele>381.786</ele>
        <time>2011-09-18T12:09:07Z</time>
      </trkpt>
      <trkpt lat="44.19705" lon="3.83264">
        <ele>381.138</ele>
        <time>2011-09-18T12:09:17Z</time>
      </trkpt>
      <trkpt lat="44.19704" lon="3.83284">
        <ele>380.91</ele>
        <time>2011-09-18T12:09:27Z</time>
      </trkpt>
      <trkpt lat="44.19702" lon="3.83303">
        <ele>380.633</ele>
        <time>2011-09-18T12:09:37Z</time>
      </trkpt>
      <trkpt lat="44.19695" lon="3.8332">
        <ele>379.719</ele>
        <time>2011-09-18T12:09:47Z</time>
      </trkpt>
      <trkpt lat="44.19685" lon="3.83332">
        <ele>379.592</ele>
        <time>2011-09-18T12:09:57Z</time>
      </trkpt>
      <trkpt lat="44.19673" lon="3.8334">
        <ele>379.053</ele>
        <time>2011-09-18T12:10:07Z</time>
      </trkpt>
      <trkpt lat="44.19659" lon="3.83345">
        <ele>378.539</ele>
        <time>2011-09-18T12:10:17Z</time>
      </trkpt>
      <trkpt lat="44.19647" lon="3.83341">
        <ele>377.144</ele>
        <time>2011-09-18T12:10:27Z</time>
      </trkpt>
      <trkpt lat="44.19639" lon="3.83331">
        <ele>376.303</ele>
        <time>2011-09-18T12:10:37Z</time>
      </trkpt>
      <trkpt lat="44.19627" lon="3.83333">
        <ele>375.756</ele>
        <time>2011-09-18T12:10:47Z</time>
      </trkpt>
      <trkpt lat="44.19618" lon="3.83344">
        <ele>375.059</ele>
        <time>2011-09-18T12:10:57Z</time>
      </trkpt>
      <trkpt lat="44.19612" lon="3.83359">
        <ele>374.582</ele>
        <time>2011-09-18T12:11:07Z</time>
      </trkpt>
      <trkpt lat="44.19599" lon="3.83366">
        <ele>373.132</ele>
        <time>2011-09-18T12:11:17Z</time>
      </trkpt>
      <trkpt lat="44.19588" lon="3.83373">
        <ele>372.495</ele>
        <time>2011-09-18T12:11:27Z</time>
      </trkpt>
      <trkpt lat="44.19577" lon="3.83382">
        <ele>371.084</ele>
        <time>2011-09-18T12:11:37Z</time>
      </trkpt>
      <trkpt lat="44.19574" lon="3.834">
        <ele>370.946</ele>
        <time>2011-09-18T12:11:47Z</time>
      </trkpt>
      <trkpt lat="44.19571" lon="3.83417">
        <ele>370.408</ele>
        <time>2011-09-18T12:11:57Z</time>
      </trkpt>
      <trkpt lat="44.19567" lon="3.83434">
        <ele>370.126</ele>
        <time>2011-09-18T12:12:07Z</time>
      </trkpt>
      <trkpt lat="44.19559" lon="3.83444">
        <ele>369.879</ele>
        <time>2011-09-18T12:12:17Z</time>
      </trkpt>
      <trkpt lat="44.19548" lon="3.83454">
        <ele>370.069</ele>
        <time>2011-09-18T12:12:27Z</time>
      </trkpt>
      <trkpt lat="44.1954" lon="3.83467">
        <ele>370.184</ele>
        <time>2011-09-18T12:12:37Z</time>
      </trkpt>
      <trkpt lat="44.19528" lon="3.83477">
        <ele>370.652</ele>
        <time>2011-09-18T12:12:47Z</time>
      </trkpt>
      <trkpt lat="44.19517" lon="3.83485">
        <ele>371.032</ele>
        <time>2011-09-18T12:12:57Z</time>
      </trkpt>
      <trkpt lat="44.19505" lon="3.83493">
        <ele>370.866</ele>
        <time>2011-09-18T12:13:07Z</time>
      </trkpt>
      <trkpt lat="44.19495" lon="3.83504">
        <ele>370.215</ele>
        <time>2011-09-18T12:13:17Z</time>
      </trkpt>
      <trkpt lat="44.19496" lon="3.83522">
        <ele>369.033</ele>
        <time>2011-09-18T12:13:27Z</time>
      </trkpt>
      <trkpt lat="44.19503" lon="3.83538">
        <ele>367.297</ele>
        <time>2011-09-18T12:13:37Z</time>
      </trkpt>
      <trkpt lat="44.19513" lon="3.83556">
        <ele>365.602</ele>
        <time>2011-09-18T12:13:47Z</time>
      </trkpt>
      <trkpt lat="44.1952" lon="3.83568">
        <ele>364.797</ele>
        <time>2011-09-18T12:13:57Z</time>
      </trkpt>
      <trkpt lat="44.1953" lon="3.83577">
        <ele>363.891</ele>
        <time>2011-09-18T12:14:07Z</time>
      </trkpt>
      <trkpt lat="44.1954" lon="3.83592">
        <ele>363.141</ele>
        <time>2011-09-18T12:14:17Z</time>
      </trkpt>
      <trkpt lat="44.1955" lon="3.83606">
        <ele>361.817</ele>
        <time>2011-09-18T12:14:27Z</time>
      </trkpt>
      <trkpt lat="44.19551" lon="3.83629">
        <ele>359.898</ele>
        <time>2011-09-18T12:14:37Z</time>
      </trkpt>
      <trkpt lat="44.19545" lon="3.83643">
        <ele>358.994</ele>
        <time>2011-09-18T12:14:47Z</time>
      </trkpt>
      <trkpt lat="44.19539" lon="3.83658">
        <ele>358.012</ele>
        <time>2011-09-18T12:14:57Z</time>
      </trkpt>
      <trkpt lat="44.19529" lon="3.83668">
        <ele>356.603</ele>
        <time>2011-09-18T12:15:07Z</time>
      </trkpt>
      <trkpt lat="44.19521" lon="3.8368">
        <ele>356.012</ele>
        <time>2011-09-18T12:15:17Z</time>
      </trkpt>
      <trkpt lat="44.19515" lon="3.83695">
        <ele>355.277</ele>
        <time>2011-09-18T12:15:27Z</time>
      </trkpt>
      <trkpt lat="44.19507" lon="3.83706">
        <ele>354.078</ele>
        <time>2011-09-18T12:15:37Z</time>
      </trkpt>
      <trkpt lat="44.19501" lon="3.83724">
        <ele>352.706</ele>
        <time>2011-09-18T12:15:47Z</time>
      </trkpt>
      <trkpt lat="44.19498" lon="3.83741">
        <ele>351.245</ele>
        <time>2011-09-18T12:15:57Z</time>
      </trkpt>
      <trkpt lat="44.19494" lon="3.83758">
        <ele>350.537</ele>
        <time>2011-09-18T12:16:07Z</time>
      </trkpt>
      <trkpt lat="44.19492" lon="3.83775">
        <ele>349.527</ele>
        <time>2011-09-18T12:16:17Z</time>
      </trkpt>
      <trkpt lat="44.19491" lon="3.8379">
        <ele>348.767</ele>
        <time>2011-09-18T12:16:27Z</time>
      </trkpt>
      <trkpt lat="44.19487" lon="3.83809">
        <ele>348.091</ele>
        <time>2011-09-18T12:16:37Z</time>
      </trkpt>
      <trkpt lat="44.19481" lon="3.83824">
        <ele>346.493</ele>
        <time>2011-09-18T12:16:47Z</time>
      </trkpt>
      <trkpt lat="44.19475" lon="3.83838">
        <ele>345.778</ele>
        <time>2011-09-18T12:16:57Z</time>
      </trkpt>
      <trkpt lat="44.19471" lon="3.83855">
        <ele>344.205</ele>
        <time>2011-09-18T12:17:07Z</time>
      </trkpt>
      <trkpt lat="44.19465" lon="3.8387">
        <ele>343.914</ele>
        <time>2011-09-18T12:17:17Z</time>
      </trkpt>
      <trkpt lat="44.19463" lon="3.83889">
        <ele>343.119</ele>
        <time>2011-09-18T12:17:27Z</time>
      </trkpt>
      <trkpt lat="44.19457" lon="3.83905">
        <ele>341.871</ele>
        <time>2011-09-18T12:17:37Z</time>
      </trkpt>
      <trkpt lat="44.19446" lon="3.83914">
        <ele>340.498</ele>
        <time>2011-09-18T12:17:47Z</time>
      </trkpt>
      <trkpt lat="44.19432" lon="3.83915">
        <ele>338.984</ele>
        <time>2011-09-18T12:17:57Z</time>
      </trkpt>
      <trkpt lat="44.19425" lon="3.83918">
        <ele>338.421</ele>
        <time>2011-09-18T12:18:07Z</time>
      </trkpt>
      <trkpt lat="44.19415" lon="3.83924">
        <ele>337.557</ele>
        <time>2011-09-18T12:18:17Z</time>
      </trkpt>
      <trkpt lat="44.19409" lon="3.83927">
        <ele>336.764</ele>
        <time>2011-09-18T12:18:27Z</time>
      </trkpt>
      <trkpt lat="44.19406" lon="3.83928">
        <ele>337.387</ele>
        <time>2011-09-18T12:18:37Z</time>
      </trkpt>
      <trkpt lat="44.19406" lon="3.83928">
        <ele>336.645</ele>
        <time>2011-09-18T12:18:47Z</time>
      </trkpt>
      <trkpt lat="44.19406" lon="3.83928">
        <ele>336.906</ele>
        <time>2011-09-18T12:18:57Z</time>
      </trkpt>
      <trkpt lat="44.19406" lon="3.83928">
        <ele>336.064</ele>
        <time>2011-09-18T12:19:07Z</time>
      </trkpt>
      <trkpt lat="44.194" lon="3.83925">
        <ele>336.288</ele>
        <time>2011-09-18T12:19:17Z</time>
      </trkpt>
      <trkpt lat="44.19387" lon="3.83918">
        <ele>335.863</ele>
        <time>2011-09-18T12:19:27Z</time>
      </trkpt>
      <trkpt lat="44.19375" lon="3.83909">
        <ele>334.632</ele>
        <time>2011-09-18T12:19:37Z</time>
      </trkpt>
      <trkpt lat="44.19365" lon="3.83896">
        <ele>334.134</ele>
        <time>2011-09-18T12:19:47Z</time>
      </trkpt>
      <trkpt lat="44.19352" lon="3.83891">
        <ele>333.511</ele>
        <time>2011-09-18T12:19:57Z</time>
      </trkpt>
      <trkpt lat="44.19342" lon="3.83903">
        <ele>332.181</ele>
        <time>2011-09-18T12:20:07Z</time>
      </trkpt>
      <trkpt lat="44.19334" lon="3.8392">
        <ele>331.256</ele>
        <time>2011-09-18T12:20:17Z</time>
      </trkpt>
      <trkpt lat="44.19322" lon="3.83936">
        <ele>330.216</ele>
        <time>2011-09-18T12:20:27Z</time>
      </trkpt>
      <trkpt lat="44.19312" lon="3.83945">
        <ele>329.424</ele>
        <time>2011-09-18T12:20:37Z</time>
      </trkpt>
      <trkpt lat="44.193" lon="3.83946">
        <ele>327.82</ele>
        <time>2011-09-18T12:20:47Z</time>
      </trkpt>
      <trkpt lat="44.19289" lon="3.83948">
        <ele>326.71</ele>
        <time>2011-09-18T12:20:57Z</time>
      </trkpt>
      <trkpt lat="44.19279" lon="3.83947">
        <ele>325.4</ele>
        <time>2011-09-18T12:21:07Z</time>
      </trkpt>
      <trkpt lat="44.19261" lon="3.83951">
        <ele>323.845</ele>
        <time>2011-09-18T12:21:17Z</time>
      </trkpt>
      <trkpt lat="44.19247" lon="3.83948">
        <ele>323.021</ele>
        <time>2011-09-18T12:21:27Z</time>
      </trkpt>
      <trkpt lat="44.19238" lon="3.83944">
        <ele>322.005</ele>
        <time>2011-09-18T12:21:37Z</time>
      </trkpt>
      <trkpt lat="44.19229" lon="3.83945">
        <ele>320.474</ele>
        <time>2011-09-18T12:21:47Z</time>
      </trkpt>
      <trkpt lat="44.19216" lon="3.83939">
        <ele>319.35</ele>
        <time>2011-09-18T12:21:57Z</time>
      </trkpt>
      <trkpt lat="44.19201" lon="3.8393">
        <ele>318.816</ele>
        <time>2011-09-18T12:22:07Z</time>
      </trkpt>
      <trkpt lat="44.19188" lon="3.83922">
        <ele>317.52</ele>
        <time>2011-09-18T12:22:17Z</time>
      </trkpt>
      <trkpt lat="44.19178" lon="3.83916">
        <ele>316.778</ele>
        <time>2011-09-18T12:22:27Z</time>
      </trkpt>
      <trkpt lat="44.19176" lon="3.839">
        <ele>315.649</ele>
        <time>2011-09-18T12:22:37Z</time>
      </trkpt>
      <trkpt lat="44.19172" lon="3.83889">
        <ele>314.674</ele>
        <time>2011-09-18T12:22:47Z</time>
      </trkpt>
      <trkpt lat="44.19162" lon="3.83878">
        <ele>313.969</ele>
        <time>2011-09-18T12:22:57Z</time>
      </trkpt>
      <trkpt lat="44.19147" lon="3.83862">
        <ele>312.78</ele>
        <time>2011-09-18T12:23:07Z</time>
      </trkpt>
      <trkpt lat="44.19139" lon="3.83849">
        <ele>311.929</ele>
        <time>2011-09-18T12:23:17Z</time>
      </trkpt>
      <trkpt lat="44.19132" lon="3.83834">
        <ele>310.566</ele>
        <time>2011-09-18T12:23:27Z</time>
      </trkpt>
      <trkpt lat="44.19122" lon="3.83821">
        <ele>309.406</ele>
        <time>2011-09-18T12:23:37Z</time>
      </trkpt>
      <trkpt lat="44.19113" lon="3.83806">
        <ele>308.655</ele>
        <time>2011-09-18T12:23:47Z</time>
      </trkpt>
      <trkpt lat="44.19104" lon="3.83796">
        <ele>307.384</ele>
        <time>2011-09-18T12:23:57Z</time>
      </trkpt>
      <trkpt lat="44.19101" lon="3.83783">
        <ele>305.943</ele>
        <time>2011-09-18T12:24:07Z</time>
      </trkpt>
      <trkpt lat="44.19097" lon="3.83768">
        <ele>305.069</ele>
        <time>2011-09-18T12:24:17Z</time>
      </trkpt>
      <trkpt lat="44.19098" lon="3.83751">
        <ele>304.284</ele>
        <time>2011-09-18T12:24:27Z</time>
      </trkpt>
      <trkpt lat="44.19101" lon="3.83737">
        <ele>303.484</ele>
        <time>2011-09-18T12:24:37Z</time>
      </trkpt>
      <trkpt lat="44.1911" lon="3.83723">
        <ele>302.892</ele>
        <time>2011-09-18T12:24:47Z</time>
      </trkpt>
      <trkpt lat="44.19108" lon="3.8371">
        <ele>302.171</ele>
        <time>2011-09-18T12:24:57Z</time>
      </trkpt>
      <trkpt lat="44.19117" lon="3.83699">
        <ele>300.662</ele>
        <time>2011-09-18T12:25:07Z</time>
      </trkpt>
      <trkpt lat="44.19124" lon="3.83688">
        <ele>299.814</ele>
        <time>2011-09-18T12:25:17Z</time>
      </trkpt>
      <trkpt lat="44.19116" lon="3.83687">
        <ele>299.148</ele>
        <time>2011-09-18T12:25:27Z</time>
      </trkpt>
      <trkpt lat="44.19116" lon="3.83687">
        <ele>299.224</ele>
        <time>2011-09-18T12:25:37Z</time>
      </trkpt>
      <trkpt lat="44.19117" lon="3.83689">
        <ele>299.446</ele>
        <time>2011-09-18T12:25:47Z</time>
      </trkpt>
      <trkpt lat="44.19119" lon="3.83688">
        <ele>299.195</ele>
        <time>2011-09-18T12:25:57Z</time>
      </trkpt>
      <trkpt lat="44.19122" lon="3.83691">
        <ele>298.987</ele>
        <time>2011-09-18T12:26:07Z</time>
      </trkpt>
      <trkpt lat="44.19121" lon="3.83688">
        <ele>299.177</ele>
        <time>2011-09-18T12:26:17Z</time>
      </trkpt>
      <trkpt lat="44.19112" lon="3.83689">
        <ele>298.688</ele>
        <time>2011-09-18T12:26:27Z</time>
      </trkpt>
      <trkpt lat="44.19103" lon="3.83688">
        <ele>297.05</ele>
        <time>2011-09-18T12:26:37Z</time>
      </trkpt>
      <trkpt lat="44.19087" lon="3.83694">
        <ele>295.499</ele>
        <time>2011-09-18T12:26:47Z</time>
      </trkpt>
      <trkpt lat="44.19071" lon="3.83696">
        <ele>294.582</ele>
        <time>2011-09-18T12:26:57Z</time>
      </trkpt>
      <trkpt lat="44.19058" lon="3.83696">
        <ele>294.045</ele>
        <time>2011-09-18T12:27:07Z</time>
      </trkpt>
      <trkpt lat="44.19056" lon="3.83703">
        <ele>294.36</ele>
        <time>2011-09-18T12:27:17Z</time>
      </trkpt>
      <trkpt lat="44.19061" lon="3.83711">
        <ele>294.41</ele>
        <time>2011-09-18T12:27:27Z</time>
      </trkpt>
      <trkpt lat="44.19064" lon="3.8372">
        <ele>295.042</ele>
        <time>2011-09-18T12:27:37Z</time>
      </trkpt>
      <trkpt lat="44.19067" lon="3.83731">
        <ele>295.788</ele>
        <time>2011-09-18T12:27:47Z</time>
      </trkpt>
      <trkpt lat="44.19073" lon="3.83749">
        <ele>296.771</ele>
        <time>2011-09-18T12:27:57Z</time>
      </trkpt>
      <trkpt lat="44.19078" lon="3.83767">
        <ele>297.389</ele>
        <time>2011-09-18T12:28:07Z</time>
      </trkpt>
      <trkpt lat="44.19079" lon="3.83778">
        <ele>297.348</ele>
        <time>2011-09-18T12:28:17Z</time>
      </trkpt>
      <trkpt lat="44.19073" lon="3.83777">
        <ele>294.365</ele>
        <time>2011-09-18T12:28:27Z</time>
      </trkpt>
      <trkpt lat="44.19064" lon="3.8377">
        <ele>291.854</ele>
        <time>2011-09-18T12:28:37Z</time>
      </trkpt>
      <trkpt lat="44.19049" lon="3.8376">
        <ele>288.164</ele>
        <time>2011-09-18T12:28:47Z</time>
      </trkpt>
      <trkpt lat="44.19045" lon="3.8377">
        <ele>286.948</ele>
        <time>2011-09-18T12:28:57Z</time>
      </trkpt>
      <trkpt lat="44.19037" lon="3.83773">
        <ele>284.291</ele>
        <time>2011-09-18T12:29:07Z</time>
      </trkpt>
      <trkpt lat="44.19029" lon="3.83776">
        <ele>281.129</ele>
        <time>2011-09-18T12:29:17Z</time>
      </trkpt>
      <trkpt lat="44.19024" lon="3.8378">
        <ele>278.16</ele>
        <time>2011-09-18T12:29:27Z</time>
      </trkpt>
      <trkpt lat="44.19015" lon="3.83777">
        <ele>275.268</ele>
        <time>2011-09-18T12:29:37Z</time>
      </trkpt>
      <trkpt lat="44.19007" lon="3.83772">
        <ele>273.024</ele>
        <time>2011-09-18T12:29:47Z</time>
      </trkpt>
      <trkpt lat="44.19004" lon="3.83771">
        <ele>270.214</ele>
        <time>2011-09-18T12:29:57Z</time>
      </trkpt>
      <trkpt lat="44.18997" lon="3.83774">
        <ele>267.57</ele>
        <time>2011-09-18T12:30:07Z</time>
      </trkpt>
      <trkpt lat="44.18995" lon="3.83782">
        <ele>266.262</ele>
        <time>2011-09-18T12:30:17Z</time>
      </trkpt>
      <trkpt lat="44.19002" lon="3.83787">
        <ele>266.81</ele>
        <time>2011-09-18T12:30:27Z</time>
      </trkpt>
      <trkpt lat="44.19009" lon="3.83798">
        <ele>267.323</ele>
        <time>2011-09-18T12:30:37Z</time>
      </trkpt>
      <trkpt lat="44.19017" lon="3.83812">
        <ele>267.534</ele>
        <time>2011-09-18T12:30:47Z</time>
      </trkpt>
      <trkpt lat="44.19026" lon="3.83823">
        <ele>268.43</ele>
        <time>2011-09-18T12:30:57Z</time>
      </trkpt>
      <trkpt lat="44.19032" lon="3.83833">
        <ele>268.607</ele>
        <time>2011-09-18T12:31:07Z</time>
      </trkpt>
      <trkpt lat="44.19042" lon="3.83842">
        <ele>269.07</ele>
        <time>2011-09-18T12:31:17Z</time>
      </trkpt>
      <trkpt lat="44.19052" lon="3.83852">
        <ele>268.735</ele>
        <time>2011-09-18T12:31:27Z</time>
      </trkpt>
      <trkpt lat="44.19067" lon="3.8386">
        <ele>268.347</ele>
        <time>2011-09-18T12:31:37Z</time>
      </trkpt>
      <trkpt lat="44.19076" lon="3.83875">
        <ele>268.031</ele>
        <time>2011-09-18T12:31:47Z</time>
      </trkpt>
      <trkpt lat="44.19086" lon="3.83888">
        <ele>267.563</ele>
        <time>2011-09-18T12:31:57Z</time>
      </trkpt>
      <trkpt lat="44.19089" lon="3.83907">
        <ele>267.09</ele>
        <time>2011-09-18T12:32:07Z</time>
      </trkpt>
      <trkpt lat="44.19097" lon="3.83919">
        <ele>266.852</ele>
        <time>2011-09-18T12:32:17Z</time>
      </trkpt>
      <trkpt lat="44.19097" lon="3.83939">
        <ele>266.103</ele>
        <time>2011-09-18T12:32:27Z</time>
      </trkpt>
      <trkpt lat="44.19103" lon="3.83955">
        <ele>265.719</ele>
        <time>2011-09-18T12:32:37Z</time>
      </trkpt>
      <trkpt lat="44.19112" lon="3.83971">
        <ele>265.092</ele>
        <time>2011-09-18T12:32:47Z</time>
      </trkpt>
      <trkpt lat="44.19117" lon="3.8399">
        <ele>264.698</ele>
        <time>2011-09-18T12:32:57Z</time>
      </trkpt>
      <trkpt lat="44.19124" lon="3.84002">
        <ele>264.809</ele>
        <time>2011-09-18T12:33:07Z</time>
      </trkpt>
      <trkpt lat="44.19132" lon="3.84017">
        <ele>264.672</ele>
        <time>2011-09-18T12:33:17Z</time>
      </trkpt>
      <trkpt lat="44.19139" lon="3.8403">
        <ele>264.122</ele>
        <time>2011-09-18T12:33:27Z</time>
      </trkpt>
      <trkpt lat="44.19152" lon="3.84048">
        <ele>263.737</ele>
        <time>2011-09-18T12:33:37Z</time>
      </trkpt>
      <trkpt lat="44.19163" lon="3.84063">
        <ele>262.946</ele>
        <time>2011-09-18T12:33:47Z</time>
      </trkpt>
      <trkpt lat="44.19176" lon="3.84079">
        <ele>262.196</ele>
        <time>2011-09-18T12:33:57Z</time>
      </trkpt>
      <trkpt lat="44.19187" lon="3.84091">
        <ele>261.882</ele>
        <time>2011-09-18T12:34:07Z</time>
      </trkpt>
      <trkpt lat="44.19196" lon="3.84106">
        <ele>261.81</ele>
        <time>2011-09-18T12:34:17Z</time>
      </trkpt>
      <trkpt lat="44.19202" lon="3.84114">
        <ele>261.327</ele>
        <time>2011-09-18T12:34:27Z</time>
      </trkpt>
      <trkpt lat="44.19208" lon="3.84122">
        <ele>261.221</ele>
        <time>2011-09-18T12:34:37Z</time>
      </trkpt>
      <trkpt lat="44.19224" lon="3.84127">
        <ele>261.554</ele>
        <time>2011-09-18T12:34:47Z</time>
      </trkpt>
      <trkpt lat="44.1923" lon="3.84134">
        <ele>261.343</ele>
        <time>2011-09-18T12:34:57Z</time>
      </trkpt>
      <trkpt lat="44.1924" lon="3.84138">
        <ele>261.543</ele>
        <time>2011-09-18T12:35:07Z</time>
      </trkpt>
      <trkpt lat="44.19245" lon="3.8414">
        <ele>261.506</ele>
        <time>2011-09-18T12:35:17Z</time>
      </trkpt>
      <trkpt lat="44.19252" lon="3.84155">
        <ele>261.628</ele>
        <time>2011-09-18T12:35:27Z</time>
      </trkpt>
      <trkpt lat="44.19249" lon="3.84172">
        <ele>261.543</ele>
        <time>2011-09-18T12:35:37Z</time>
      </trkpt>
      <trkpt lat="44.19247" lon="3.8419">
        <ele>260.603</ele>
        <time>2011-09-18T12:35:47Z</time>
      </trkpt>
      <trkpt lat="44.19243" lon="3.84205">
        <ele>259.728</ele>
        <time>2011-09-18T12:35:57Z</time>
      </trkpt>
      <trkpt lat="44.19237" lon="3.84223">
        <ele>260.22</ele>
        <time>2011-09-18T12:36:07Z</time>
      </trkpt>
      <trkpt lat="44.19229" lon="3.84237">
        <ele>260.996</ele>
        <time>2011-09-18T12:36:17Z</time>
      </trkpt>
      <trkpt lat="44.19228" lon="3.84247">
        <ele>261.995</ele>
        <time>2011-09-18T12:36:27Z</time>
      </trkpt>
      <trkpt lat="44.19227" lon="3.84262">
        <ele>263.353</ele>
        <time>2011-09-18T12:36:37Z</time>
      </trkpt>
      <trkpt lat="44.19228" lon="3.84275">
        <ele>264.807</ele>
        <time>2011-09-18T12:36:47Z</time>
      </trkpt>
      <trkpt lat="44.1923" lon="3.84289">
        <ele>266.329</ele>
        <time>2011-09-18T12:36:57Z</time>
      </trkpt>
      <trkpt lat="44.1923" lon="3.84297">
        <ele>267.629</ele>
        <time>2011-09-18T12:37:07Z</time>
      </trkpt>
      <trkpt lat="44.19228" lon="3.84309">
        <ele>268.178</ele>
        <time>2011-09-18T12:37:17Z</time>
      </trkpt>
      <trkpt lat="44.19226" lon="3.84326">
        <ele>268.754</ele>
        <time>2011-09-18T12:37:27Z</time>
      </trkpt>
      <trkpt lat="44.19221" lon="3.84344">
        <ele>269.404</ele>
        <time>2011-09-18T12:37:37Z</time>
      </trkpt>
      <trkpt lat="44.19219" lon="3.84357">
        <ele>270.604</ele>
        <time>2011-09-18T12:37:47Z</time>
      </trkpt>
      <trkpt lat="44.19219" lon="3.84355">
        <ele>270.395</ele>
        <time>2011-09-18T12:37:57Z</time>
      </trkpt>
      <trkpt lat="44.19219" lon="3.84357">
        <ele>269.951</ele>
        <time>2011-09-18T12:38:07Z</time>
      </trkpt>
      <trkpt lat="44.19215" lon="3.84372">
        <ele>271.006</ele>
        <time>2011-09-18T12:38:17Z</time>
      </trkpt>
      <trkpt lat="44.19215" lon="3.84388">
        <ele>272.786</ele>
        <time>2011-09-18T12:38:27Z</time>
      </trkpt>
      <trkpt lat="44.1921" lon="3.84393">
        <ele>271.967</ele>
        <time>2011-09-18T12:38:37Z</time>
      </trkpt>
      <trkpt lat="44.19208" lon="3.84391">
        <ele>271.772</ele>
        <time>2011-09-18T12:38:47Z</time>
      </trkpt>
      <trkpt lat="44.19208" lon="3.84391">
        <ele>272.123</ele>
        <time>2011-09-18T12:38:57Z</time>
      </trkpt>
      <trkpt lat="44.19205" lon="3.84384">
        <ele>271.848</ele>
        <time>2011-09-18T12:39:07Z</time>
      </trkpt>
      <trkpt lat="44.19204" lon="3.84376">
        <ele>271.735</ele>
        <time>2011-09-18T12:39:17Z</time>
      </trkpt>
      <trkpt lat="44.19205" lon="3.84379">
        <ele>271.973</ele>
        <time>2011-09-18T12:39:27Z</time>
      </trkpt>
      <trkpt lat="44.1921" lon="3.84384">
        <ele>271.875</ele>
        <time>2011-09-18T12:39:37Z</time>
      </trkpt>
      <trkpt lat="44.19214" lon="3.84386">
        <ele>271.885</ele>
        <time>2011-09-18T12:39:47Z</time>
      </trkpt>
      <trkpt lat="44.19215" lon="3.84389">
        <ele>271.785</ele>
        <time>2011-09-18T12:39:57Z</time>
      </trkpt>
      <trkpt lat="44.19216" lon="3.84392">
        <ele>271.772</ele>
        <time>2011-09-18T12:40:07Z</time>
      </trkpt>
      <trkpt lat="44.19215" lon="3.84391">
        <ele>271.988</ele>
        <time>2011-09-18T12:40:17Z</time>
      </trkpt>
      <trkpt lat="44.19215" lon="3.8439">
        <ele>271.78</ele>
        <time>2011-09-18T12:40:27Z</time>
      </trkpt>
      <trkpt lat="44.19216" lon="3.84387">
        <ele>272.055</ele>
        <time>2011-09-18T12:40:37Z</time>
      </trkpt>
      <trkpt lat="44.19216" lon="3.84384">
        <ele>272.123</ele>
        <time>2011-09-18T12:40:47Z</time>
      </trkpt>
      <trkpt lat="44.19211" lon="3.84378">
        <ele>271.629</ele>
        <time>2011-09-18T12:40:57Z</time>
      </trkpt>
      <trkpt lat="44.19212" lon="3.84377">
        <ele>271.809</ele>
        <time>2011-09-18T12:41:07Z</time>
      </trkpt>
      <trkpt lat="44.19211" lon="3.8438">
        <ele>271.428</ele>
        <time>2011-09-18T12:41:17Z</time>
      </trkpt>
      <trkpt lat="44.19208" lon="3.84383">
        <ele>271.885</ele>
        <time>2011-09-18T12:41:27Z</time>
      </trkpt>
      <trkpt lat="44.19204" lon="3.84386">
        <ele>271.616</ele>
        <time>2011-09-18T12:41:37Z</time>
      </trkpt>
      <trkpt lat="44.19206" lon="3.84389">
        <ele>272.136</ele>
        <time>2011-09-18T12:41:47Z</time>
      </trkpt>
      <trkpt lat="44.19208" lon="3.84381">
        <ele>272.522</ele>
        <time>2011-09-18T12:41:57Z</time>
      </trkpt>
      <trkpt lat="44.19211" lon="3.84383">
        <ele>272.409</ele>
        <time>2011-09-18T12:42:07Z</time>
      </trkpt>
      <trkpt lat="44.19213" lon="3.84379">
        <ele>272.438</ele>
        <time>2011-09-18T12:42:17Z</time>
      </trkpt>
      <trkpt lat="44.19216" lon="3.84381">
        <ele>272.559</ele>
        <time>2011-09-18T12:42:27Z</time>
      </trkpt>
      <trkpt lat="44.19212" lon="3.84382">
        <ele>272.417</ele>
        <time>2011-09-18T12:42:37Z</time>
      </trkpt>
      <trkpt lat="44.19212" lon="3.84383">
        <ele>272.129</ele>
        <time>2011-09-18T12:42:47Z</time>
      </trkpt>
      <trkpt lat="44.1921" lon="3.84382">
        <ele>272.641</ele>
        <time>2011-09-18T12:42:57Z</time>
      </trkpt>
      <trkpt lat="44.19217" lon="3.84382">
        <ele>272.234</ele>
        <time>2011-09-18T12:43:06Z</time>
      </trkpt>
      <trkpt lat="44.19218" lon="3.84382">
        <ele>272.234</ele>
        <time>2011-09-18T12:43:07Z</time>
      </trkpt>
    </trkseg>
  </trk>
</gpx>